[[{"header":{"parameterUnit":"m.s-1","parameterCategory":1,"la1":30.6,"la2":28.766,"lo1":-90.7593,"lo2":-88.6598,"dy":0.0162,"dx":0.0183,"nx":116,"ny":114,"refTime":"2024-03-12T06:00:00:Z","depth":0,"parameterNumber":2,"parameterNumberName":"U-component_of_WINDS"},"data":[0.0,0.0,0.0,0.0,0.0,0.0,0.0,0.0,0.0,0.0,0.0,0.0,0.0,0.0,0.0,0.0,0.0,0.0,0.0,0.0,0.0,0.0,0.0,0.0,0.0,0.0,0.0,0.0,0.0,0.0,0.0,0.0,0.0,0.0,0.0,0.0,0.0,0.0,0.0,0.0,0.0,0.0,0.0,0.0,0.0,0.0,0.0,0.0,0.0,0.0,0.0,0.0,0.0,0.0,0.0,0.0,0.0,0.0,0.0,0.0,0.0,0.0,0.0,0.0,0.0,0.0,0.0,0.0,0.0,0.0,0.0,0.0,0.0,0.0,0.0,0.0,0.0,0.0,0.0,0.0,0.0,0.0,0.0,0.0,0.0,0.0,0.0,0.0,0.0,0.0,0.0,0.0,0.0,0.0,0.0,0.0,0.0,0.0,0.0,0.0,0.0,0.0,0.0,0.0,0.0,0.0,0.0,0.0,0.0,0.0,0.0,0.0,0.0,0.0,0.0,0.0,0.0,0.0,0.0,0.0,0.0,0.0,0.0,0.0,0.0,0.0,0.0,0.0,0.0,0.0,0.0,0.0,0.0,0.0,0.0,0.0,0.0,0.0,0.0,0.0,0.0,0.0,0.0,0.0,0.0,0.0,0.0,0.0,0.0,0.0,0.0,0.0,0.0,0.0,0.0,0.0,0.0,0.0,0.0,0.0,0.0,0.0,0.0,0.0,0.0,0.0,0.0,0.0,0.0,0.0,0.0,0.0,0.0,0.0,0.0,0.0,0.0,0.0,0.0,0.0,0.0,0.0,0.0,0.0,0.0,0.0,0.0,0.0,0.0,0.0,0.0,0.0,0.0,0.0,0.0,0.0,0.0,0.0,0.0,0.0,0.0,0.0,0.0,0.0,0.0,0.0,0.0,0.0,0.0,0.0,0.0,0.0,0.0,0.0,0.0,0.0,0.0,0.0,0.0,0.0,0.0,0.0,0.0,0.0,0.0,0.0,0.0,0.0,0.0,0.0,0.0,0.0,0.0,0.0,0.0,0.0,0.0,0.0,0.0,0.0,0.0,0.0,0.0,0.0,0.0,0.0,0.0,0.0,0.0,0.0,0.0,0.0,0.0,0.0,0.0,0.0,0.0,0.0,0.0,0.0,0.0,0.0,0.0,0.0,0.0,0.0,0.0,0.0,0.0,0.0,0.0,0.0,0.0,0.0,0.0,0.0,0.0,0.0,0.0,0.0,0.0,0.0,0.0,0.0,0.0,0.0,0.0,0.0,0.0,0.0,0.0,0.0,0.0,0.0,0.0,0.0,0.0,0.0,0.0,0.0,0.0,0.0,0.0,0.0,0.0,0.0,0.0,0.0,0.0,0.0,0.0,0.0,0.0,0.0,0.0,0.0,0.0,0.0,0.0,0.0,0.0,0.0,0.0,0.0,0.0,0.0,0.0,0.0,0.0,0.0,0.0,0.0,0.0,0.0,0.0,0.0,0.0,0.0,0.0,0.0,0.0,0.0,0.0,0.0,0.0,0.0,0.0,0.0,0.0,0.0,0.0,0.0,0.0,0.0,0.0,0.0,0.0,0.0,0.0,0.0,0.0,0.0,0.0,0.0,0.0,0.0,0.0,0.0,0.0,0.0,0.0,0.0,0.0,0.0,0.0,0.0,0.0,0.0,0.0,0.0,0.0,0.0,0.0,0.0,0.0,0.0,0.0,0.0,0.0,0.0,0.0,0.0,0.0,0.0,0.0,0.0,0.0,0.0,0.0,0.0,0.0,0.0,0.0,0.0,0.0,0.0,0.0,0.0,0.0,0.0,0.0,0.0,0.0,0.0,0.0,0.0,0.0,0.0,0.0,0.0,0.0,0.0,0.0,0.0,0.0,0.0,0.0,0.0,0.0,0.0,0.0,0.0,0.0,0.0,0.0,0.0,0.0,0.0,0.0,0.0,0.0,0.0,0.0,0.0,0.0,0.0,0.0,0.0,0.0,0.0,0.0,0.0,0.0,0.0,0.0,0.0,0.0,0.0,0.0,0.0,0.0,0.0,0.0,0.0,0.0,0.0,0.0,0.0,0.0,0.0,0.0,0.0,0.0,0.0,0.0,0.0,0.0,0.0,0.0,0.0,0.0,0.0,0.0,0.0,0.0,0.0,0.0,0.0,0.0,0.0,0.0,0.0,0.0,0.0,0.0,0.0,0.0,0.0,0.0,0.0,0.0,0.0,0.0,0.0,0.0,0.0,0.0,0.0,0.0,0.0,0.0,0.0,0.0,0.0,0.0,0.0,0.0,0.0,0.0,0.0,0.0,0.0,0.0,0.0,0.0,0.0,0.0,0.0,0.0,0.0,0.0,0.0,0.0,0.0,0.0,0.0,0.0,0.0,0.0,0.0,0.0,0.0,0.0,0.0,0.0,0.0,0.0,0.0,0.0,0.0,0.0,0.0,0.0,0.0,0.0,0.0,0.0,0.0,0.0,0.0,0.0,0.0,0.0,0.0,0.0,0.0,0.0,0.0,0.0,0.0,0.0,0.0,0.0,0.0,0.0,0.0,0.0,0.0,0.0,0.0,0.0,0.0,0.0,0.0,0.0,0.0,0.0,0.0,0.0,0.0,0.0,0.0,0.0,0.0,0.0,0.0,0.0,0.0,0.0,0.0,0.0,0.0,0.0,0.0,0.0,0.0,0.0,0.0,0.0,0.0,0.0,0.0,0.0,0.0,0.0,0.0,0.0,0.0,0.0,0.0,0.0,0.0,0.0,0.0,0.0,0.0,0.0,0.0,0.0,0.0,0.0,0.0,0.0,0.0,0.0,0.0,0.0,0.0,0.0,0.0,0.0,0.0,0.0,0.0,0.0,0.0,0.0,0.0,0.0,0.0,0.0,0.0,0.0,0.0,0.0,0.0,0.0,0.0,0.0,0.0,0.0,0.0,0.0,0.0,0.0,0.0,0.0,0.0,0.0,0.0,0.0,0.0,0.0,0.0,0.0,0.0,0.0,0.0,0.0,0.0,0.0,0.0,0.0,0.0,0.0,0.0,0.0,0.0,0.0,0.0,0.0,0.0,0.0,0.0,0.0,0.0,0.0,0.0,0.0,0.0,0.0,0.0,0.0,0.0,0.0,0.0,0.0,0.0,0.0,0.0,0.0,0.0,0.0,0.0,0.0,0.0,0.0,0.0,0.0,0.0,0.0,0.0,0.0,0.0,0.0,0.0,0.0,0.0,0.0,0.0,0.0,0.0,0.0,0.0,0.0,0.0,0.0,0.0,0.0,0.0,0.0,0.0,0.0,0.0,0.0,0.0,0.0,0.0,0.0,0.0,0.0,0.0,0.0,0.0,0.0,0.0,0.0,0.0,0.0,0.0,0.0,0.0,0.0,0.0,0.0,0.0,0.0,0.0,0.0,0.0,0.0,0.0,0.0,0.0,0.0,0.0,0.0,0.0,0.0,0.0,0.0,0.0,0.0,0.0,0.0,0.0,0.0,0.0,0.0,0.0,0.0,0.0,0.0,0.0,0.0,0.0,0.0,0.0,0.0,0.0,0.0,0.0,0.0,0.0,0.0,0.0,0.0,0.0,0.0,0.0,0.0,0.0,0.0,0.0,0.0,0.0,0.0,0.0,0.0,0.0,0.0,0.0,0.0,0.0,0.0,0.0,0.0,0.0,0.0,0.0,0.0,0.0,0.0,0.0,0.0,0.0,0.0,0.0,0.0,0.0,0.0,0.0,0.0,0.0,0.0,0.0,0.0,0.0,0.0,0.0,0.0,0.0,0.0,0.0,0.0,0.0,0.0,0.0,0.0,0.0,0.0,0.0,0.0,0.0,0.0,0.0,0.0,0.0,0.0,0.0,0.0,0.0,0.0,0.0,0.0,0.0,0.0,0.0,0.0,0.0,0.0,0.0,0.0,0.0,0.0,0.0,0.0,0.0,0.0,0.0,0.0,0.0,0.0,0.0,0.0,0.0,0.0,0.0,0.0,0.0,0.0,0.0,0.0,0.0,0.0,0.0,0.0,0.0,0.0,0.0,0.0,0.0,0.0,0.0,0.0,0.0,0.0,0.0,0.0,0.0,0.0,0.0,0.0,0.0,0.0,0.0,0.0,0.0,0.0,0.0,0.0,0.0,0.0,0.0,0.0,0.0,0.0,0.0,0.0,0.0,0.0,0.0,0.0,0.0,0.0,0.0,0.0,0.0,0.0,0.0,0.0,0.0,0.0,0.0,0.0,0.0,0.0,0.0,0.0,0.0,0.0,0.0,0.0,0.0,0.0,0.0,0.0,0.0,0.0,0.0,0.0,0.0,0.0,0.0,0.0,0.0,0.0,0.0,0.0,0.0,0.0,0.0,0.0,0.0,0.0,0.0,0.0,0.0,0.0,0.0,0.0,0.0,0.0,0.0,0.0,0.0,0.0,0.0,0.0,0.0,0.0,0.0,0.0,0.0,0.0,0.0,0.0,0.0,0.0,0.0,0.0,0.0,0.0,0.0,0.0,0.0,0.0,0.0,0.0,0.0,0.0,0.0,0.0,0.0,0.0,0.0,0.0,0.0,0.0,0.0,0.0,0.0,0.0,0.0,0.0,0.0,0.0,0.0,0.0,0.0,0.0,0.0,0.0,0.0,0.0,0.0,0.0,0.0,0.0,0.0,0.0,0.0,0.0,0.0,0.0,0.0,0.0,0.0,0.0,0.0,0.0,0.0,0.0,0.0,0.0,0.0,0.0,0.0,0.0,0.0,0.0,0.0,0.0,0.0,0.0,0.0,0.0,0.0,0.0,0.0,0.0,0.0,0.0,0.0,0.0,0.0,0.0,0.0,0.0,0.0,0.0,0.0,0.0,0.0,0.0,0.0,0.0,0.0,0.0,0.0,0.0,0.0,0.0,0.0,0.0,0.0,0.0,0.0,0.0,0.0,0.0,0.0,0.0,0.0,0.0,0.0,0.0,0.0,0.0,0.0,0.0,0.0,0.0,0.0,0.0,0.0,0.0,0.0,0.0,0.0,0.0,0.0,0.0,0.0,0.0,0.0,0.0,0.0,0.0,0.0,0.0,0.0,0.0,0.0,0.0,0.0,0.0,0.0,0.0,0.0,0.0,0.0,0.0,0.0,0.0,0.0,0.0,0.0,0.0,0.0,0.0,0.0,0.0,0.0,0.0,0.0,0.0,0.0,0.0,0.0,0.0,0.0,0.0,0.0,0.0,0.0,0.0,0.0,0.0,0.0,0.0,0.0,0.0,0.0,0.0,0.0,0.0,0.0,0.0,0.0,0.0,0.0,0.0,0.0,0.0,0.0,0.0,0.0,0.0,0.0,0.0,0.0,0.0,0.0,0.0,0.0,0.0,0.0,0.0,0.0,0.0,0.0,0.0,0.0,0.0,0.0,0.0,0.0,0.0,0.0,0.0,0.0,0.0,0.0,0.0,0.0,0.0,0.0,0.0,0.0,0.0,0.0,0.0,0.0,0.0,0.0,0.0,0.0,0.0,0.0,0.0,0.0,0.0,0.0,0.0,0.0,0.0,0.0,0.0,0.0,0.0,0.0,0.0,0.0,0.0,0.0,0.0,0.0,0.0,0.0,0.0,0.0,0.0,0.0,0.0,0.0,0.0,0.0,0.0,0.0,0.0,0.0,0.0,0.0,0.0,0.0,0.0,0.0,0.0,0.0,0.0,0.0,0.0,0.0,0.0,0.0,0.0,0.0,0.0,0.0,0.0,0.0,0.0,0.0,0.0,0.0,0.0,0.0,0.0,0.0,0.0,0.0,0.0,0.0,0.0,0.0,0.0,0.0,0.0,0.0,0.0,0.0,0.0,0.0,0.0,0.0,0.0,0.0,0.0,0.0,0.0,0.0,0.0,0.0,0.0,0.0,0.0,0.0,0.0,0.0,0.0,0.0,0.0,0.0,0.0,0.0,0.0,0.0,0.0,0.0,0.0,0.0,0.0,0.0,0.0,0.0,0.0,0.0,0.0,0.0,0.0,0.0,0.0,0.0,0.0,0.0,0.0,0.0,0.0,0.0,0.0,0.0,0.0,0.0,0.0,0.0,0.0,0.0,0.0,0.0,0.0,0.0,0.0,0.0,0.0,0.0,0.0,0.0,0.0,0.0,4.3356,0.0,0.0,0.0,0.0,0.0,0.0,0.0,0.0,0.0,0.0,0.0,0.0,0.0,0.0,0.0,0.0,0.0,0.0,0.0,0.0,0.0,0.0,0.0,0.0,0.0,0.0,0.0,0.0,0.0,0.0,0.0,0.0,0.0,0.0,0.0,4.5586,4.5586,4.5586,4.5586,4.5586,4.5586,4.5586,4.5586,4.5586,4.5586,0.0,0.0,0.0,0.0,0.0,0.0,0.0,0.0,0.0,0.0,0.0,0.0,0.0,0.0,0.0,0.0,0.0,0.0,0.0,0.0,0.0,0.0,0.0,0.0,0.0,0.0,0.0,0.0,0.0,0.0,0.0,0.0,0.0,0.0,0.0,0.0,0.0,0.0,0.0,0.0,0.0,0.0,0.0,0.0,0.0,0.0,0.0,0.0,0.0,0.0,0.0,0.0,0.0,0.0,0.0,0.0,0.0,0.0,0.0,0.0,0.0,0.0,0.0,0.0,0.0,0.0,0.0,0.0,0.0,0.0,0.0,4.2503,0.0,0.0,0.0,0.0,0.0,0.0,0.0,0.0,0.0,0.0,0.0,0.0,0.0,0.0,0.0,0.0,0.0,0.0,0.0,0.0,0.0,0.0,0.0,4.5618,4.562,4.5603,4.5586,4.5586,4.5586,4.5586,4.5586,4.5586,4.5586,4.5586,4.5586,4.5586,4.5586,4.5586,4.5586,4.5586,4.5586,4.5586,4.5586,4.5586,4.5586,0.0,0.0,0.0,0.0,0.0,0.0,0.0,0.0,0.0,0.0,0.0,0.0,0.0,0.0,0.0,0.0,0.0,0.0,0.0,0.0,0.0,0.0,0.0,0.0,0.0,0.0,0.0,0.0,0.0,0.0,0.0,0.0,0.0,0.0,0.0,0.0,0.0,0.0,0.0,0.0,0.0,0.0,0.0,0.0,0.0,0.0,0.0,0.0,0.0,0.0,0.0,0.0,0.0,0.0,0.0,0.0,0.0,0.0,0.0,0.0,0.0,0.0,0.0,4.2121,4.1926,4.1828,4.1547,4.0963,4.0206,4.0946,4.1033,4.0634,4.1039,0.0,0.0,0.0,0.0,0.0,0.0,0.0,0.0,0.0,0.0,0.0,0.0,0.0,0.0,0.0,0.0,0.0,0.0,0.0,0.0,0.0,4.5771,4.5746,4.5603,4.5586,4.5586,4.5586,4.5586,4.5586,4.5586,4.5586,4.5586,4.5586,4.5586,4.5586,4.5586,4.5586,4.5586,4.5586,4.5586,4.5586,4.5586,4.5586,4.5586,4.5586,0.0,0.0,0.0,0.0,0.0,0.0,0.0,0.0,0.0,0.0,0.0,0.0,0.0,0.0,0.0,0.0,0.0,0.0,0.0,0.0,0.0,0.0,0.0,0.0,0.0,0.0,0.0,0.0,0.0,0.0,0.0,0.0,0.0,0.0,0.0,0.0,0.0,0.0,0.0,0.0,0.0,4.584,4.5836,0.0,0.0,0.0,0.0,0.0,0.0,0.0,0.0,0.0,0.0,0.0,0.0,0.0,4.3369,4.3235,4.2519,4.2127,4.2065,4.1121,4.0384,3.9915,3.9137,3.851,3.8044,3.8052,0.0,3.941,3.9056,0.0,0.0,0.0,0.0,0.0,0.0,0.0,0.0,0.0,0.0,0.0,0.0,0.0,0.0,0.0,0.0,0.0,0.0,0.0,0.0,0.0,4.58,4.5742,4.5603,4.5586,4.5586,4.5586,4.5586,4.5586,4.5586,4.5586,4.5586,4.5586,4.5586,4.5586,4.5586,4.5668,4.5696,4.5696,4.5747,4.5769,4.5769,4.5769,4.5747,4.5696,4.5696,0.0,0.0,0.0,0.0,0.0,0.0,0.0,0.0,0.0,0.0,0.0,0.0,0.0,0.0,0.0,0.0,0.0,0.0,0.0,0.0,0.0,0.0,0.0,0.0,0.0,0.0,0.0,0.0,0.0,0.0,0.0,0.0,0.0,0.0,0.0,0.0,0.0,0.0,0.0,4.5883,4.5742,4.5683,4.5622,4.558,0.0,0.0,0.0,0.0,0.0,0.0,0.0,0.0,0.0,4.3361,4.2796,4.2304,4.1855,4.1525,4.1198,4.1008,4.0442,3.9976,3.9723,3.9221,3.8838,3.8507,3.8029,3.7888,3.804,3.8019,3.8117,3.8404,0.0,0.0,0.0,0.0,3.6914,3.6044,0.0,0.0,0.0,0.0,0.0,0.0,0.0,0.0,0.0,0.0,0.0,0.0,4.5879,4.5841,4.578,4.5651,4.562,4.5586,4.5586,4.5637,4.5635,4.5635,4.5665,4.5696,4.5696,4.5696,4.5696,4.5696,4.5794,4.5815,4.5829,4.5886,4.5899,4.5899,4.5899,4.5875,4.5815,4.5815,4.5883,4.594,0.0,0.0,0.0,0.0,0.0,0.0,0.0,0.0,0.0,0.0,0.0,0.0,0.0,0.0,0.0,0.0,0.0,0.0,0.0,0.0,0.0,0.0,0.0,0.0,0.0,0.0,0.0,0.0,0.0,0.0,0.0,0.0,0.0,0.0,0.0,0.0,0.0,4.5642,4.5458,4.5493,4.5264,4.512,0.0,0.0,0.0,0.0,0.0,0.0,4.3431,4.3083,4.2849,4.2659,4.2055,4.1503,4.1094,4.0847,4.0433,3.9993,3.9706,3.9434,3.9188,3.8758,3.8515,3.8288,3.7615,3.7005,3.6546,3.7024,3.7188,3.7188,3.7296,3.6956,3.6359,3.6423,3.5814,3.5007,0.0,0.0,0.0,0.0,0.0,0.0,0.0,0.0,0.0,0.0,0.0,4.6091,4.6091,4.5978,4.5863,4.58,4.5668,4.5586,4.5586,4.5712,4.58,4.58,4.584,4.5889,4.5889,4.5889,4.5889,4.5889,4.5889,4.5889,4.5889,4.5899,4.5899,4.5899,4.5899,4.5899,4.5889,4.5889,4.5978,4.6091,4.6091,0.0,0.0,0.0,0.0,0.0,0.0,0.0,0.0,0.0,0.0,0.0,0.0,0.0,0.0,0.0,0.0,0.0,0.0,0.0,0.0,0.0,0.0,0.0,0.0,0.0,0.0,0.0,0.0,0.0,0.0,0.0,0.0,0.0,0.0,0.0,0.0,0.0,0.0,4.5173,4.4657,0.0,0.0,0.0,0.0,4.3602,4.3351,4.2886,4.2163,4.2065,4.2228,4.2597,4.1538,4.1255,4.1946,4.0877,4.0015,3.9436,3.8745,3.806,3.7459,3.6356,3.5827,3.5754,3.5274,3.504,3.5026,3.5683,3.5981,3.5981,3.6134,3.6079,3.5981,3.6064,3.5626,3.4941,0.0,0.0,0.0,0.0,0.0,0.0,0.0,0.0,4.6245,4.63,4.6269,4.6206,4.6105,4.5987,4.5875,4.5814,4.5684,4.5637,4.5712,4.5771,4.5822,4.5852,4.5878,4.5899,4.5899,4.5899,4.5899,4.5899,4.5987,4.6041,4.6041,4.6131,4.617,4.617,4.617,4.617,4.6144,4.6057,4.6105,4.624,4.624,4.6261,0.0,0.0,0.0,0.0,0.0,0.0,0.0,0.0,0.0,0.0,0.0,0.0,0.0,0.0,0.0,0.0,0.0,0.0,0.0,0.0,0.0,0.0,0.0,0.0,0.0,0.0,0.0,0.0,0.0,0.0,0.0,0.0,0.0,0.0,0.0,0.0,0.0,4.458,4.4233,0.0,4.3745,4.3424,4.303,4.2575,4.2282,4.1984,4.1782,4.1445,4.137,4.1574,4.0539,4.0037,4.0296,3.959,3.9091,3.897,3.8666,3.8376,3.806,3.7329,3.6957,3.6821,3.5878,3.5411,3.5411,3.5056,3.5044,3.5291,3.535,3.4997,3.4491,3.4135,3.3797,3.3429,0.0,0.0,0.0,0.0,0.0,0.0,0.0,0.0,4.63,4.63,4.63,4.6269,4.6176,4.6049,4.5949,4.5914,4.5775,4.5733,4.5829,4.5879,4.5917,4.5969,4.6005,4.6021,4.6021,4.6021,4.6021,4.6021,4.6112,4.6176,4.6176,4.6269,4.63,4.63,4.63,4.63,4.63,4.6201,4.6214,4.6293,4.6293,4.6284,4.6269,0.0,0.0,0.0,0.0,0.0,0.0,0.0,0.0,0.0,0.0,0.0,0.0,0.0,0.0,0.0,0.0,0.0,0.0,0.0,0.0,0.0,0.0,0.0,0.0,0.0,0.0,0.0,0.0,0.0,0.0,0.0,0.0,0.0,0.0,4.4444,4.4167,4.3874,4.3531,4.3191,4.2832,4.2474,4.2121,4.1657,4.1446,4.1274,4.1167,4.0863,4.0773,4.0815,3.9895,3.9454,3.9544,3.897,3.8622,3.8418,3.8246,3.8077,3.7763,3.7169,3.6844,3.6716,3.5669,3.5264,3.5196,3.4634,3.4566,3.4694,3.4694,3.4319,3.3635,3.3208,3.2979,3.2856,0.0,0.0,0.0,0.0,0.0,0.0,0.0,4.63,4.63,4.63,4.63,4.63,4.63,4.6181,4.6098,4.6098,4.5978,4.5899,4.591,4.6033,4.6098,4.6105,4.624,4.63,4.63,4.63,4.63,4.63,4.63,4.63,4.63,4.63,4.63,4.6303,4.6303,4.6303,4.6303,4.6303,4.6307,4.6307,4.6307,4.6269,4.6204,0.0,0.0,0.0,0.0,0.0,0.0,0.0,0.0,0.0,0.0,0.0,0.0,0.0,0.0,0.0,0.0,0.0,0.0,0.0,0.0,0.0,0.0,0.0,0.0,0.0,0.0,0.0,0.0,0.0,0.0,0.0,0.0,0.0,4.4157,4.3717,4.3351,4.3188,4.2641,4.218,4.2014,4.1725,4.136,4.0967,4.0914,4.0717,4.0324,4.0312,4.036,4.0499,3.9835,3.9573,3.9713,3.9103,3.8412,3.781,3.7372,3.6858,3.6312,3.5494,3.5072,3.499,3.4564,3.4314,3.4397,3.4314,3.4314,3.4397,3.4397,3.3979,3.3398,3.3313,3.3313,3.3313,0.0,0.0,0.0,0.0,0.0,0.0,0.0,4.63,4.63,4.63,4.63,4.63,4.63,4.6181,4.6098,4.6098,4.5978,4.594,4.6041,4.6091,4.6144,4.624,4.6277,4.63,4.63,4.63,4.63,4.63,4.63,4.63,4.63,4.63,4.629,4.6303,4.6303,4.6268,4.623,4.6229,4.6223,4.6231,4.6225,4.6221,4.6199,0.0,0.0,0.0,0.0,0.0,0.0,0.0,0.0,0.0,0.0,0.0,0.0,0.0,0.0,0.0,0.0,0.0,0.0,0.0,0.0,0.0,0.0,0.0,0.0,0.0,0.0,0.0,0.0,0.0,0.0,0.0,4.3348,4.3175,4.3553,4.349,4.3159,4.2564,4.2785,4.2703,4.1998,4.2302,4.2226,4.1271,4.1178,4.0968,4.0388,3.9959,3.9749,3.9948,3.8892,3.84,3.8428,3.7505,3.6993,3.6772,3.6336,3.5749,3.5182,3.4538,3.4037,3.3518,3.3091,3.3189,3.3641,3.3104,3.3189,3.3641,3.3641,3.3556,3.3313,3.2264,3.1913,3.1765,0.0,0.0,0.0,0.0,0.0,0.0,0.0,4.63,4.63,4.63,4.63,4.63,4.63,4.624,4.6181,4.6181,4.6105,4.6098,4.6181,4.6181,4.6216,4.63,4.63,4.63,4.63,4.63,4.63,4.63,4.6671,4.6834,4.6805,4.7174,4.7144,4.6816,4.7187,4.7127,4.6731,4.6742,4.6749,4.6713,4.6351,4.6201,4.6201,4.6201,4.6203,4.6196,4.6138,4.613,4.6102,4.6018,0.0,0.0,0.0,0.0,0.0,0.0,0.0,0.0,0.0,0.0,0.0,0.0,0.0,0.0,0.0,0.0,0.0,0.0,0.0,0.0,0.0,0.0,0.0,0.0,4.3304,4.3197,4.3498,4.3268,4.2831,4.2132,4.2748,4.277,4.175,4.2053,4.1925,4.0983,4.0896,4.07,4.0168,3.9794,3.9425,3.8987,3.8263,3.7658,3.7303,3.6693,3.6312,3.6058,3.5386,3.4786,3.4345,3.359,3.3091,3.2735,3.2389,3.2575,3.2945,3.2488,3.2575,0.0,0.0,0.0,0.0,0.0,3.0707,2.9915,0.0,0.0,0.0,0.0,0.0,0.0,0.0,4.63,4.63,4.63,4.63,4.63,4.63,4.63,4.63,4.63,4.63,4.63,4.63,4.63,4.63,4.63,4.63,4.63,4.63,4.63,4.6358,4.6456,4.7201,4.7603,4.7655,4.8437,4.8398,4.7684,4.8445,4.8365,4.764,4.7654,4.764,4.7552,4.6768,4.6356,4.6189,4.6189,4.6162,4.6119,4.6017,4.5966,4.5944,4.5744,0.0,0.0,0.0,0.0,0.0,0.0,0.0,0.0,0.0,0.0,0.0,0.0,0.0,0.0,0.0,0.0,0.0,0.0,0.0,0.0,0.0,0.0,0.0,0.0,4.366,4.364,4.364,4.3086,4.2497,4.2092,4.2666,4.2705,4.1515,4.1484,4.1243,4.061,4.0464,4.022,3.9722,0.0,0.0,0.0,0.0,3.7366,3.6405,3.6312,3.6058,3.5642,3.4468,3.3869,3.3771,3.2649,3.2127,3.204,3.204,3.214,3.214,3.214,3.204,3.2052,3.214,3.1801,3.1128,3.1026,2.977,2.8151,0.0,0.0,0.0,0.0,0.0,0.0,0.0,4.63,4.63,4.63,4.63,4.63,4.63,4.63,4.63,4.63,4.63,4.63,4.63,4.63,4.63,4.63,4.63,4.63,4.63,4.63,4.6632,4.7354,4.7452,4.7868,4.8554,4.8729,4.8716,4.8556,4.8712,4.8713,4.8542,4.8555,4.8452,4.8292,4.8126,4.7252,4.6027,4.6027,4.5936,4.5783,4.5777,4.5764,4.5744,4.5717,4.5703,4.5703,4.5703,4.5636,0.0,0.0,0.0,0.0,0.0,0.0,0.0,0.0,0.0,0.0,0.0,0.0,0.0,0.0,0.0,0.0,0.0,0.0,0.0,4.3686,4.3393,4.3143,4.3143,4.322,4.3133,4.2806,4.3441,4.342,4.2278,4.275,4.2594,4.1369,4.0908,4.0377,3.9737,3.8797,3.8113,3.7886,3.7429,3.6915,3.6405,3.6058,3.5642,3.5236,0.0,0.0,3.2562,3.1801,3.1193,3.0656,3.0656,3.0925,3.1472,3.0836,3.0656,3.0656,3.1282,3.1026,3.0306,2.9463,2.8774,2.7826,0.0,0.0,0.0,0.0,0.0,0.0,0.0,4.63,4.63,4.63,4.63,4.63,4.63,4.63,4.63,4.63,4.63,4.63,4.63,4.6293,4.6297,4.6297,4.6265,4.6248,4.6248,4.6678,4.7107,4.7557,4.8398,4.902,4.9463,4.9863,4.982,4.9432,4.9855,4.9761,4.9304,4.9304,4.9174,4.8974,4.8567,4.7849,4.7018,4.7107,4.7094,4.6989,4.6893,4.6841,4.6824,4.6758,4.6647,4.6492,4.6492,4.6309,4.5993,0.0,0.0,0.0,0.0,0.0,0.0,0.0,0.0,0.0,0.0,0.0,0.0,0.0,0.0,4.2386,4.259,0.0,4.2555,4.2775,4.2466,4.2219,4.2219,4.2367,4.2515,4.2702,4.3348,4.332,4.2048,4.231,4.1949,4.0668,4.0324,3.9763,3.8855,3.8263,3.7734,3.7429,3.6993,3.6457,3.6058,3.5642,3.4977,3.4243,3.3288,3.25,3.1813,3.1104,3.0578,3.0216,3.0216,3.0397,3.0758,3.0306,2.9932,2.9463,2.9829,2.9738,2.9371,2.891,2.7843,2.6475,0.0,0.0,0.0,0.0,0.0,0.0,0.0,4.63,4.63,4.63,4.63,4.63,4.63,4.63,4.63,4.63,4.63,4.63,4.63,4.6301,4.6307,4.6307,4.6404,4.6458,4.6458,4.7315,4.7842,4.8018,4.9402,5.0172,5.0357,5.0996,5.0908,5.0244,5.0945,5.0792,4.9989,4.9989,4.9891,4.9663,4.901,4.8638,4.8472,4.8638,4.8461,4.8081,4.7934,4.7815,4.7752,4.7632,4.7416,4.7197,4.7197,4.6807,4.6234,4.5653,4.5183,0.0,0.0,0.0,0.0,0.0,0.0,0.0,0.0,4.1945,4.2072,4.1956,4.1831,4.1855,4.1995,4.2002,4.2022,4.2176,4.1858,4.1601,4.1601,4.1667,4.1862,4.2163,4.2851,4.2831,4.1641,4.1393,4.0857,3.9753,3.9466,3.8943,3.7962,3.781,3.7443,3.6915,3.6549,3.6152,3.5562,3.5141,3.4397,3.3398,3.25,3.1801,3.1306,3.0578,3.0216,3.0216,3.0216,3.0216,3.0216,3.0034,2.9463,2.8724,2.8434,2.8247,2.8154,2.8154,2.6816,2.5029,0.0,0.0,0.0,0.0,0.0,0.0,0.0,0.0,4.63,4.63,4.63,4.63,4.63,4.63,4.63,4.63,4.63,4.63,4.63,4.6301,4.6307,4.6307,4.6971,4.7354,4.7354,4.8213,4.9033,4.9817,5.0008,5.046,5.1162,5.1258,5.1189,5.0992,5.1089,5.0959,5.0685,5.0685,5.061,5.0471,5.0394,5.0218,5.0061,5.0084,4.8972,4.7403,4.7397,4.7178,4.6939,4.6901,4.6872,4.6861,4.6861,4.6237,4.5518,4.5443,4.4761,4.4023,4.3931,4.3382,4.2831,4.2719,4.2172,4.1754,0.0,4.2517,4.2693,4.3331,4.311,4.3042,4.3715,4.2997,4.2575,4.3207,4.278,4.2402,4.2402,4.2405,4.2219,4.166,4.222,4.2332,4.1575,4.1044,4.0516,3.9753,3.8708,3.8037,3.7886,3.7352,3.6915,3.647,3.6391,3.5978,3.5168,3.4468,3.3882,3.3398,3.2089,3.1383,3.1306,3.0578,3.0216,3.0216,3.0216,3.0216,3.0125,2.9279,2.8817,2.862,2.7767,2.6819,2.6081,2.6081,2.5602,2.4935,0.0,0.0,0.0,0.0,0.0,0.0,0.0,0.0,0.0,4.63,4.63,4.63,4.63,4.6293,4.63,4.63,4.63,4.6284,4.6249,4.623,4.6462,4.6981,4.7327,4.7738,4.8245,4.9059,4.9683,5.004,5.0543,5.0918,5.1189,5.1172,5.1097,5.0932,5.0932,5.0844,5.0678,5.0678,5.0587,5.044,5.044,5.0374,5.0302,5.0302,4.9537,4.8494,4.8662,4.8551,0.0,4.8269,4.8134,4.7975,4.7975,4.7485,4.6726,4.5786,4.513,4.4529,4.376,4.3454,4.3269,4.2943,4.2427,4.2051,4.236,4.2446,4.2397,4.2311,4.2132,4.1963,4.1899,4.1527,4.1308,4.1602,4.1107,4.0704,4.0704,4.0736,4.0532,3.9915,4.0473,4.0789,4.0478,4.027,3.9707,3.8708,3.8188,3.7734,3.7352,3.6915,3.6549,3.6405,3.5898,3.5236,3.4468,3.3882,3.3129,3.2176,3.156,3.1128,3.0668,3.0306,3.0216,3.0216,3.0216,2.984,2.9279,2.891,2.8341,2.7767,2.6723,2.6071,2.5693,2.5693,2.5189,2.4463,0.0,0.0,0.0,0.0,0.0,0.0,0.0,0.0,0.0,0.0,4.63,4.63,4.63,4.63,4.6307,4.6307,4.6289,4.6249,4.6204,4.6434,4.6834,4.7474,4.7938,4.8475,4.9118,4.9937,5.0365,5.0365,5.0989,5.123,5.1105,5.1105,5.0978,5.0745,5.0745,5.0661,5.0526,5.0526,5.0421,5.0302,5.0302,5.0302,5.0302,5.0212,4.9784,4.9314,4.957,4.9394,4.9015,4.9015,4.885,4.8623,4.8568,4.8161,4.7405,4.6257,4.5494,4.4885,4.3882,4.3605,4.3485,4.3111,4.262,4.2337,4.2557,4.2483,4.2244,4.1962,4.1766,4.1458,4.0982,4.0756,4.0617,4.0617,4.0103,3.9671,3.9477,3.9529,3.9306,3.8717,3.9152,3.9394,3.9235,3.9235,3.8855,3.7962,3.7734,3.7429,3.6836,3.6549,3.6312,3.6072,3.5236,3.4481,3.3882,3.3129,3.2351,3.1306,3.1116,3.0758,3.0216,3.0216,3.0216,3.0216,3.0216,2.9658,2.8724,2.8724,2.8154,2.7094,2.6071,2.5693,2.5596,2.5001,2.4322,2.3538,0.0,0.0,0.0,0.0,0.0,0.0,0.0,0.0,0.0,0.0,0.0,0.0,0.0,4.63,4.6307,4.6307,4.6249,4.6204,4.6204,4.6983,4.7474,4.7494,4.9068,4.9937,4.9956,5.0813,5.1261,5.1261,5.13,5.123,5.1105,5.1105,5.0923,5.0625,5.0625,5.0506,5.0302,5.0302,5.0302,5.0302,5.0302,5.0302,5.0259,4.9955,4.9599,4.9283,4.9314,4.8881,4.8306,4.8247,4.8226,4.8187,4.8072,4.7441,4.6721,4.6684,4.5665,4.4535,4.4456,4.3781,4.3011,4.3011,4.262,4.2489,4.3217,4.2835,4.2601,4.3297,4.2888,4.2456,4.2456,4.1885,4.1462,4.1462,4.0894,4.0255,3.9763,3.9707,3.9508,3.8841,3.8841,3.856,3.8037,3.7962,3.7962,3.7886,3.7366,3.6836,3.647,3.6405,3.5992,3.5168,3.4384,3.3882,3.3398,3.2089,3.1306,3.1306,3.0578,3.0216,3.0216,3.0216,3.0216,3.0216,3.0216,2.9658,2.8724,2.8724,2.8154,2.7094,2.6071,2.5693,2.5489,2.332,2.2627,2.2426,0.0,0.0,0.0,0.0,0.0,0.0,0.0,0.0,0.0,0.0,0.0,0.0,0.0,0.0,0.0,0.0,4.6209,4.6195,4.6211,4.7016,4.7752,4.8347,4.9398,5.0268,5.0852,5.1145,5.13,5.13,5.122,5.1086,5.0903,5.0816,5.0644,5.0396,5.0396,5.0352,5.0302,5.0302,5.0302,5.0278,5.0051,5.01,5.0236,4.9674,4.9394,4.9271,0.0,4.8623,4.8226,4.8187,4.8148,4.805,4.7992,4.7765,4.7293,4.632,4.5684,4.5125,4.4458,4.4401,4.4457,4.4139,4.3956,4.3748,4.3538,4.3281,4.2977,4.2283,4.2013,4.1706,4.1276,4.0956,4.0836,4.0836,4.037,3.9895,3.9768,3.9379,3.8855,3.8263,3.8188,3.7962,3.7366,3.7658,3.7734,3.7366,3.6836,3.6549,3.6405,3.5386,3.4881,3.5072,3.3687,3.2834,3.2673,3.1737,3.1306,3.1306,3.1026,3.0668,3.0216,3.0668,3.0668,3.0216,3.0758,3.0102,2.8724,2.8724,2.8527,2.8049,2.635,2.6071,2.6234,2.2785,2.1395,2.1183,0.0,0.0,0.0,0.0,0.0,0.0,0.0,0.0,0.0,0.0,0.0,0.0,0.0,0.0,0.0,0.0,0.0,4.6663,4.667,4.7749,4.8646,4.9196,5.0014,5.0735,5.13,5.1248,5.123,5.123,5.1074,5.0903,5.0731,5.0625,5.0485,5.0302,5.0302,5.0302,5.0302,5.0169,5.012,5.0076,4.9749,4.9721,4.983,4.9252,4.9029,0.0,4.8568,4.8306,4.8087,4.8087,4.8046,4.7947,4.7929,4.7723,4.736,4.6391,4.585,4.5409,4.4715,4.48,4.4927,4.4333,4.4179,4.4047,4.3333,4.2953,4.252,4.1706,4.1343,4.1024,4.0593,4.0524,4.0524,4.0524,4.0176,3.9824,3.9466,3.9017,3.8486,3.7658,3.7582,3.7366,3.6836,3.7148,3.7211,3.6836,3.6549,3.6232,3.5978,3.4716,3.4134,3.4481,3.2834,3.1977,3.1977,3.156,3.1306,3.1306,3.1306,3.1026,3.0578,3.1128,3.1038,3.0578,3.1116,3.0283,2.8724,2.9095,2.9002,2.8538,2.6924,2.6628,2.6693,2.2466,2.0885,2.057,0.0,0.0,0.0,0.0,0.0,0.0,0.0,0.0,0.0,0.0,0.0,0.0,0.0,0.0,0.0,0.0,0.0,0.0,4.7501,4.9021,4.9956,4.9995,5.0833,5.13,5.13,5.119,5.1105,5.1105,5.0903,5.0728,5.0587,5.0606,5.0485,5.0302,5.0278,5.0259,5.0236,4.991,4.9757,4.973,4.9321,4.9164,4.9132,4.8639,4.8513,4.8477,4.8132,4.7947,4.7902,4.7902,4.7861,4.7819,4.7717,4.7302,4.6845,4.6817,4.6049,4.525,4.5197,4.4872,4.431,4.3647,4.3453,4.3257,4.2583,4.1949,4.1525,4.1459,4.0956,4.0524,4.0524,4.0455,4.0455,4.0455,4.0385,4.0021,3.8929,3.8708,3.8263,3.7134,3.6978,3.6836,3.6484,3.6405,3.6312,3.6312,3.6312,3.5898,3.5086,3.4288,3.3797,3.3398,3.2113,3.1431,3.1431,3.1455,3.1377,3.1377,3.1354,3.1342,3.1342,3.1407,3.1395,3.1306,3.1306,3.0374,2.891,2.984,2.9658,2.8713,2.7662,2.7189,2.6693,2.2466,2.0885,2.0459,0.0,0.0,0.0,0.0,0.0,0.0,0.0,0.0,0.0,0.0,0.0,0.0,0.0,0.0,0.0,0.0,0.0,0.0,4.7462,4.8514,4.9372,4.9976,5.0833,5.13,5.13,5.1276,5.1211,5.1105,5.0903,5.0728,5.0606,5.0462,5.0352,5.0302,5.0051,4.9929,4.9884,4.9502,4.9352,4.9321,4.8847,4.8847,4.8996,4.8384,4.8271,4.844,4.8032,4.7902,4.7902,4.7902,4.7554,4.7151,4.7107,4.6753,4.6213,4.5817,4.5181,4.4461,4.4061,4.3495,4.297,4.2831,4.2769,4.2583,4.1901,4.1641,4.1327,4.0836,4.0646,4.0524,4.0524,4.0176,3.9895,3.9895,3.9147,3.8472,3.8188,3.7734,3.7366,3.7056,3.6772,3.6549,3.6405,3.6058,3.5548,3.4716,3.462,3.4538,3.4301,3.3262,3.2932,3.3398,3.2908,3.2941,3.3446,3.3322,3.2986,3.2459,3.2611,3.2316,3.1841,3.2523,3.2264,3.1306,3.1801,3.1536,3.0566,3.0306,3.0397,3.0374,2.8121,2.7189,2.6693,2.2466,2.0885,2.0254,0.0,0.0,0.0,0.0,0.0,0.0,0.0,0.0,0.0,0.0,0.0,0.0,0.0,0.0,0.0,0.0,0.0,0.0,0.0,4.8319,4.9157,4.9956,5.0463,5.0911,5.13,5.1239,5.119,5.1105,5.0844,5.0661,5.0606,5.0396,5.0212,5.0025,4.983,4.9646,4.9435,4.9048,4.8881,0.0,0.0,4.8365,4.8495,4.8014,4.7992,4.8114,4.7907,4.7657,4.7468,4.7468,4.7214,4.6908,4.6908,4.6358,4.5699,4.5407,4.4661,4.3913,4.3555,4.3015,4.2458,4.2141,4.2078,4.1901,4.1209,4.1091,4.0956,4.0593,4.0524,4.0524,4.0524,4.0036,3.9681,3.9681,3.8943,3.8188,3.7962,3.7582,3.7211,3.6772,3.6549,3.6232,3.5898,3.5304,3.4716,3.4204,3.4384,3.4301,3.3797,3.3104,3.3045,3.3728,3.3433,3.3618,3.4565,3.4512,3.421,3.387,3.3925,3.3776,3.3379,3.3295,3.2883,3.2164,0.0,3.1713,3.0847,3.0758,3.0758,3.0578,2.8121,2.6884,2.5991,2.2265,2.057,1.9524,0.0,0.0,0.0,0.0,0.0,0.0,0.0,0.0,0.0,0.0,4.6295,0.0,0.0,0.0,0.0,0.0,0.0,0.0,0.0,0.0,4.8982,4.982,4.9937,5.0346,5.1106,5.1102,5.1093,5.1062,5.075,5.0567,5.0527,5.0374,5.0095,4.9749,4.9665,4.9394,4.8996,4.8603,4.8403,4.8384,4.801,4.7861,4.7861,0.0,4.7717,4.7717,4.7717,4.7407,4.7017,4.6908,4.6817,4.6707,4.6707,4.6017,4.5214,4.5214,4.4418,4.3512,4.3376,4.2892,4.2205,4.1525,4.1409,4.1209,4.0646,4.0524,4.0524,4.0524,4.0524,4.0524,4.0524,4.0036,3.9681,3.961,3.909,3.8486,3.7886,3.7734,3.7366,3.647,3.6312,3.5898,3.5154,3.4468,3.4121,3.423,3.4743,3.4577,3.3484,3.3398,3.3751,3.4448,3.3946,3.4259,3.5455,3.5366,3.5276,3.5263,3.5199,3.5251,3.5149,3.4045,3.3529,3.3402,3.2834,3.1809,3.067,3.1151,3.0937,3.0114,2.8028,2.6587,2.5392,2.2064,2.0261,1.8902,0.0,0.0,0.0,0.0,0.0,0.0,0.0,0.0,0.0,0.0,4.63,4.6307,0.0,0.0,0.0,0.0,0.0,0.0,0.0,0.0,0.0,4.8962,4.9644,5.0073,5.0229,5.0791,5.1017,5.0855,5.068,5.0506,5.0283,5.0236,5.0139,5.0012,4.9431,4.915,4.9052,4.8326,4.7988,4.7988,4.7801,4.7717,4.7717,4.7717,0.0,0.0,4.7717,4.7657,4.7511,4.7062,4.631,4.5563,4.5563,4.5178,4.472,4.472,4.4145,4.3376,4.2814,4.2205,4.1525,4.0836,4.0646,4.0646,4.0524,4.0524,4.0524,4.0524,4.0524,4.0524,4.0524,4.0036,3.9538,3.9017,3.8486,3.781,3.7211,3.6836,3.6628,3.6405,3.5737,3.5249,3.5086,3.4647,3.4147,3.3654,3.4147,3.423,3.3484,3.3398,3.4114,3.5739,3.6171,3.6715,3.7404,3.6721,3.643,3.643,3.5961,3.5745,3.572,3.5684,3.525,3.4691,3.4111,0.0,3.2621,3.1651,3.1205,3.0847,2.8215,2.7084,2.6396,2.2366,2.0783,1.9937,0.0,0.0,0.0,0.0,0.0,0.0,0.0,4.63,4.63,4.63,4.629,4.63,4.6307,4.6245,4.6206,0.0,0.0,0.0,0.0,0.0,0.0,0.0,0.0,0.0,4.9995,5.0713,5.1049,5.0945,0.0,5.0486,5.0355,5.0212,5.0012,4.9759,4.945,4.9071,4.8677,4.8267,4.8006,4.7801,4.7717,4.7717,4.7717,0.0,0.0,0.0,4.7801,4.7572,4.7214,4.666,4.5968,4.5303,4.5303,4.4998,4.4587,4.4587,4.4105,4.3453,4.3136,4.2269,4.1393,4.1091,4.0783,4.0524,4.0524,4.0524,4.0524,4.0524,4.0524,4.0524,4.0524,4.0036,3.961,3.9322,3.8486,3.772,3.7169,3.6679,3.6232,3.5817,3.5331,3.499,3.4743,3.423,3.3894,3.3894,3.3894,3.3725,3.3398,3.4276,3.5331,3.6541,3.7155,3.7612,3.79,3.7505,3.7307,3.7307,3.7037,3.6908,3.6882,3.629,3.584,3.5531,3.4971,3.411,3.3138,3.2524,3.161,3.026,2.8028,2.6491,2.5111,2.2072,2.057,1.942,0.0,0.0,0.0,0.0,0.0,0.0,0.0,4.63,4.63,4.63,4.63,4.6309,4.6303,4.625,4.6221,0.0,0.0,0.0,0.0,0.0,0.0,0.0,0.0,0.0,4.9707,0.0,0.0,5.0992,5.0605,0.0,0.0,0.0,0.0,0.0,4.942,4.8986,4.8402,4.8229,4.801,0.0,0.0,4.7717,0.0,0.0,0.0,0.0,0.0,4.7302,4.6863,4.631,4.59,4.5597,4.5511,4.5089,4.4587,4.4587,4.4179,4.3706,4.3571,4.2707,4.1885,4.1771,4.1209,4.0768,4.0904,4.0836,4.0768,4.0904,4.0836,4.0715,4.0715,4.0231,3.9895,3.995,3.8987,3.8159,3.7724,3.6936,3.6204,3.5467,3.5154,3.4825,3.4397,3.3894,3.381,3.4397,3.401,3.3832,3.3832,3.5288,3.6384,3.6985,3.7586,3.79,3.79,3.807,3.807,3.79,3.8057,3.807,3.7887,3.6843,3.6442,3.6404,3.575,3.4729,0.0,3.3288,3.1902,2.9692,2.7923,2.6194,2.4417,2.187,2.0364,1.9117,0.0,0.0,0.0,0.0,0.0,0.0,0.0,4.63,4.63,4.63,4.63,4.63,4.6303,4.6282,4.6269,0.0,0.0,0.0,0.0,0.0,0.0,0.0,0.0,0.0,0.0,0.0,0.0,5.0641,5.0294,0.0,0.0,0.0,0.0,0.0,0.0,4.8816,4.8711,4.8032,0.0,0.0,0.0,0.0,0.0,0.0,0.0,0.0,0.0,4.6707,4.6999,4.6454,4.6501,4.666,4.6165,4.539,4.4587,4.4587,4.457,4.4367,4.3706,4.3376,4.3196,4.2583,4.1885,4.1591,4.2205,4.1836,4.1591,4.2205,4.1836,4.1393,4.1393,4.0888,4.0439,4.0569,3.9975,3.9508,3.9316,3.771,3.6466,3.6229,3.5196,3.4481,3.4397,3.4314,3.4314,3.4397,3.4822,3.5135,3.5135,3.5783,3.6384,3.6985,3.7586,3.79,3.79,3.8715,3.8715,3.79,3.8715,3.8639,3.79,3.7756,3.773,3.7691,3.7091,3.5762,0.0,3.3449,3.2016,2.9932,2.7945,2.7084,2.6396,2.2366,2.0783,2.0254,0.0,0.0,0.0,0.0,0.0,0.0,4.63,4.63,4.63,4.63,4.63,4.6303,4.6295,4.6295,4.6265,4.6205,0.0,0.0,0.0,0.0,0.0,0.0,0.0,0.0,0.0,0.0,5.087,5.0709,5.0467,0.0,0.0,0.0,0.0,0.0,0.0,4.8967,4.8532,4.8307,0.0,0.0,0.0,0.0,0.0,0.0,0.0,0.0,0.0,0.0,4.6954,4.6753,4.6753,4.6817,4.6262,4.5614,4.5035,4.5035,4.4797,4.4514,4.4236,4.3839,4.3317,4.2645,4.2332,4.2078,4.1965,4.2013,4.2334,4.3087,4.2993,4.2797,4.2845,4.2601,4.2147,4.1395,4.07,4.0031,3.9334,3.8101,3.6986,3.6215,3.5588,3.495,3.4481,3.4397,3.4634,3.5114,3.5662,3.6156,3.6529,3.6595,3.692,3.7521,3.7782,3.8148,3.8715,3.9046,3.9046,3.8715,3.9033,3.8715,3.79,3.79,3.79,3.79,3.7652,3.6715,0.0,3.4167,3.2461,3.0316,2.8111,2.6819,2.5858,2.2274,2.0885,2.0459,0.0,0.0,0.0,0.0,0.0,4.6306,4.63,4.6306,4.6309,4.6309,4.6303,4.6306,4.6301,4.629,4.6276,4.623,4.6214,0.0,0.0,0.0,0.0,0.0,0.0,0.0,0.0,0.0,5.0959,5.0742,5.0548,5.0358,0.0,0.0,4.9833,4.9529,0.0,0.0,0.0,0.0,0.0,0.0,0.0,0.0,0.0,0.0,0.0,0.0,0.0,0.0,0.0,0.0,0.0,4.7787,4.74,4.6931,4.6342,4.5528,4.4998,4.4587,4.4587,4.4236,4.3722,4.3229,4.297,4.2756,4.2733,4.2986,4.3431,4.4434,4.4456,4.4349,4.4329,4.4157,4.3743,4.2942,4.2124,4.1348,4.0709,3.9463,3.8251,3.7133,3.6618,3.6015,3.5251,3.5182,3.5494,3.6317,3.6879,3.7414,3.803,3.8041,3.8123,3.8304,3.8317,3.8729,3.9651,3.9899,3.9724,3.921,3.9461,3.897,3.79,3.8148,3.8317,3.8317,3.8317,3.754,0.0,3.4663,3.2823,3.0676,2.8193,2.6819,2.5771,2.2593,2.1191,2.0467,0.0,0.0,0.0,0.0,0.0,0.0,4.6303,4.6295,4.6301,4.6301,4.629,4.6306,4.6301,4.629,4.6306,4.6301,4.6245,0.0,0.0,0.0,0.0,0.0,0.0,0.0,0.0,0.0,5.087,5.0605,5.0469,5.0291,5.0108,5.0108,4.9914,4.9569,0.0,0.0,0.0,0.0,0.0,0.0,0.0,0.0,0.0,0.0,0.0,0.0,0.0,0.0,0.0,0.0,0.0,0.0,0.0,4.9685,4.8745,4.61,4.4998,4.4587,4.4587,4.457,4.4587,4.457,4.4047,4.3905,4.5327,4.5126,4.5069,4.6499,4.6257,4.5794,4.581,4.5226,4.5016,4.5669,4.4603,4.3797,4.4282,4.2253,4.0436,3.9481,3.8561,3.7728,3.6958,3.688,3.7147,3.7793,3.8412,0.0,3.9634,4.0252,4.0159,3.921,3.921,3.9637,4.0589,4.1463,4.1029,3.921,4.0159,3.9678,3.79,3.8792,3.921,3.921,3.921,3.8169,0.0,3.474,3.2962,3.1026,2.8308,2.7179,2.6798,2.3692,2.181,2.0783,0.0,0.0,0.0,0.0,0.0,0.0,0.0,4.6297,4.6309,4.6309,4.6303,4.6306,4.6301,4.63,4.6297,4.6301,4.6289,0.0,0.0,0.0,0.0,0.0,0.0,0.0,0.0,5.0363,5.1047,5.0726,5.0692,5.0509,5.0231,5.0207,4.9868,4.934,4.9214,4.8869,0.0,0.0,0.0,0.0,0.0,0.0,4.819,0.0,0.0,0.0,0.0,0.0,0.0,0.0,0.0,0.0,0.0,0.0,0.0,4.8285,4.737,4.667,4.667,4.6368,4.6017,4.5511,4.557,4.5757,4.5751,4.5939,4.6397,4.7352,4.7366,4.7239,4.7251,4.7077,4.6635,4.5898,4.5423,4.4805,4.3863,4.296,4.1869,4.0408,3.9294,3.8208,3.7021,3.7818,3.8558,3.8736,3.9291,3.9923,4.0584,4.0604,4.0418,4.0159,4.0159,4.0603,4.1561,4.1825,4.1728,4.1113,4.138,4.0958,3.9752,4.0,4.0159,4.0159,3.9461,3.8445,0.0,3.5467,3.3667,3.1789,2.9761,2.8287,2.6894,2.4445,2.2366,2.0783,0.0,0.0,0.0,0.0,0.0,0.0,0.0,4.63,4.6295,4.6306,4.6305,4.6285,4.6269,4.6269,4.6269,4.6269,4.6287,0.0,0.0,0.0,0.0,0.0,0.0,0.0,4.9255,5.0547,5.1078,5.079,5.0745,5.0568,5.0302,5.0255,4.9876,4.9259,4.9259,4.8885,0.0,0.0,0.0,0.0,0.0,0.0,4.8343,0.0,0.0,0.0,0.0,0.0,0.0,0.0,0.0,0.0,0.0,0.0,0.0,0.0,4.9856,4.8942,4.8153,4.7706,4.7335,4.6941,4.713,4.7403,4.7299,4.7418,4.7749,4.8498,4.8489,4.8338,4.8303,4.8306,4.8028,4.7176,4.6732,4.6139,4.4749,4.415,4.3234,4.1575,4.0535,3.9607,3.8693,3.9511,4.0106,4.0307,4.0961,4.1474,4.1865,4.1974,4.2068,4.2068,4.1435,4.1547,4.2496,4.2496,4.2333,4.199,4.199,4.1699,4.1042,4.1099,4.1253,4.1446,3.9981,3.9086,0.0,3.5822,3.3985,3.2599,3.0819,2.8925,2.6989,2.5586,2.3231,2.0783,0.0,0.0,0.0,0.0,0.0,0.0,0.0,4.6303,4.6308,4.6287,4.6293,4.6262,4.6204,4.6204,4.6204,4.6204,0.0,0.0,0.0,0.0,0.0,0.0,0.0,0.0,4.9968,5.0703,5.0992,5.0793,5.0662,5.0506,5.0302,5.0302,4.9955,4.9283,4.9283,4.8915,0.0,0.0,0.0,0.0,4.8306,4.8306,0.0,0.0,0.0,0.0,0.0,0.0,0.0,0.0,0.0,0.0,0.0,0.0,0.0,0.0,0.0,0.0,0.0,4.8711,4.866,4.866,4.866,4.8836,4.9539,4.9304,0.0,4.9792,4.9496,4.9063,4.9107,4.9107,4.9063,4.9063,4.8487,4.7639,4.6615,4.5647,4.4461,4.2791,4.2061,4.1591,4.1525,4.1517,4.178,4.2432,4.3198,4.3593,4.3442,4.4143,4.4601,4.4601,4.3096,4.2644,4.3472,4.3409,4.2981,4.2155,4.2155,4.2082,4.1951,4.2038,4.2511,0.0,4.0742,0.0,0.0,3.5889,3.4063,3.3318,3.1604,2.9362,2.7179,2.6832,2.43,2.0987,0.0,0.0,0.0,0.0,0.0,0.0,0.0,0.0,0.0,0.0,4.6225,4.6215,4.6204,4.6204,4.6204,0.0,0.0,0.0,0.0,0.0,0.0,0.0,0.0,0.0,4.9817,5.0513,5.0813,5.0643,5.0606,5.0506,5.0302,5.0302,4.9955,4.9283,4.9283,4.8915,0.0,0.0,0.0,0.0,4.8306,4.8306,0.0,0.0,0.0,0.0,5.1504,5.2212,0.0,0.0,0.0,0.0,0.0,0.0,0.0,0.0,5.2387,5.2185,5.1712,0.0,5.0153,5.0153,5.0153,5.0206,0.0,5.0326,5.0325,5.0445,5.0067,4.9815,5.022,4.9971,4.9656,4.9656,4.9426,4.855,4.6639,4.499,4.3614,4.2726,4.2912,4.271,4.1591,4.2489,4.319,4.327,4.3977,4.4611,4.5138,4.5332,4.5405,4.5405,4.5005,4.493,4.5095,4.4526,4.4143,4.3881,4.3881,4.3866,4.3821,4.335,4.3274,4.3289,4.092,0.0,3.8286,3.6674,3.466,3.2537,3.2103,3.0011,2.7179,2.7074,2.4935,2.2013,0.0,0.0,0.0,0.0,0.0,0.0,0.0,0.0,0.0,0.0,0.0,4.6195,4.6191,4.6191,0.0,0.0,0.0,0.0,0.0,0.0,0.0,0.0,0.0,4.9093,5.0367,5.0612,5.0661,5.0587,5.0506,5.0418,5.0302,5.0144,4.9784,4.9302,4.8982,4.864,0.0,0.0,0.0,4.8306,4.8306,0.0,0.0,0.0,0.0,0.0,5.204,5.2736,0.0,5.285,5.2743,5.2654,0.0,0.0,0.0,0.0,5.2498,5.2498,5.2498,5.203,5.1533,5.1533,5.1533,5.1533,5.1533,5.1312,5.1087,5.1087,5.0661,5.0331,5.0643,4.9886,4.9459,5.009,4.898,4.7615,4.6245,4.5098,4.4186,4.3529,4.3814,4.3621,0.0,4.3169,4.3605,4.3579,4.4553,4.5164,4.5191,4.5881,4.6039,4.5703,4.5703,4.5722,4.5697,4.5258,4.488,4.4553,4.4553,4.4528,4.4543,4.3841,4.3526,4.3422,4.113,0.0,3.8296,3.6727,3.4844,3.287,3.2834,3.0765,2.7851,2.7735,2.5692,2.2776,0.0,0.0,0.0,0.0,0.0,0.0,0.0,0.0,0.0,0.0,0.0,0.0,0.0,0.0,0.0,0.0,0.0,0.0,0.0,0.0,0.0,0.0,4.8593,4.9283,5.1011,5.0733,5.0547,5.0547,5.0374,5.0302,5.0302,5.0025,4.9674,4.9252,4.8623,4.8306,4.8306,4.8306,4.8306,4.8306,4.8306,0.0,0.0,0.0,0.0,0.0,0.0,0.0,0.0,5.306,5.2893,5.2761,5.2654,0.0,0.0,0.0,0.0,0.0,5.2498,5.2498,5.2498,5.2498,5.2498,5.2498,5.2498,5.2096,5.1719,5.1719,5.126,5.0823,5.0647,4.9649,4.9067,4.9875,4.7824,4.6008,4.5669,4.5299,4.4892,4.4558,4.4446,4.4179,4.3789,4.3752,4.3782,4.3782,4.4984,4.5446,4.483,4.5959,4.6348,4.5731,4.5714,4.5737,4.5722,4.558,4.5207,4.4621,4.4621,4.4564,4.4592,4.3894,4.3506,4.3337,0.0,0.0,3.8592,3.6647,3.487,3.3428,3.3262,3.1424,2.862,2.8183,2.624,2.3538,0.0,0.0,0.0,0.0,0.0,0.0,0.0,0.0,0.0,0.0,0.0,0.0,0.0,0.0,0.0,0.0,0.0,0.0,0.0,0.0,0.0,4.8709,4.8495,4.9122,5.0816,5.0508,5.0348,5.0348,5.0325,5.0302,5.0302,5.0236,4.9884,4.9252,4.8623,4.8306,4.8306,4.8306,4.8306,4.8306,4.8306,0.0,0.0,0.0,0.0,0.0,0.0,0.0,0.0,5.306,5.2893,5.2761,5.2654,0.0,0.0,0.0,0.0,0.0,5.2498,5.2498,5.2498,5.2498,5.2498,5.2498,5.2498,5.2434,5.2387,5.2387,5.1884,5.1236,5.051,5.0295,4.9663,4.8002,4.6287,4.514,4.487,4.4297,4.4006,4.4446,4.4064,4.3889,4.4333,4.448,4.4549,4.4549,4.5342,4.5741,4.5615,4.5857,4.5937,4.5821,4.5805,4.5807,4.5779,4.5146,4.4734,4.4621,4.4621,4.4623,4.4576,4.3945,4.3327,4.2647,0.0,3.9207,3.7176,3.6844,3.5089,3.2463,3.2488,3.0956,2.862,2.7662,2.6416,2.4571,0.0,0.0,0.0,0.0,0.0,0.0,0.0,0.0,0.0,0.0,0.0,0.0,0.0,0.0,0.0,0.0,0.0,0.0,0.0,0.0,4.6933,4.8574,4.8412,4.9092,5.0751,5.0467,5.0302,5.0302,5.0302,5.0302,5.0302,4.9929,4.9618,4.9302,4.8816,4.8676,4.8832,4.8658,4.855,4.855,0.0,0.0,0.0,0.0,0.0,0.0,0.0,0.0,0.0,0.0,5.2955,5.2806,5.2717,0.0,0.0,0.0,0.0,0.0,5.2498,5.2498,5.2389,5.1955,5.1846,5.1846,5.1846,5.1282,5.0991,5.1692,5.1401,5.0852,5.0378,4.9643,4.8283,4.5662,4.5551,4.5523,4.4733,4.4518,4.4524,4.4502,0.0,4.4373,4.4064,4.4365,4.4449,4.4108,4.4787,4.5202,4.5202,4.5566,4.5616,4.5202,4.5202,4.5003,4.4622,4.4204,4.4259,4.4636,4.4636,4.444,4.4063,4.369,4.3134,4.2363,0.0,3.9703,3.7936,3.7127,3.5521,3.3467,3.2636,3.1424,2.9818,2.7631,2.5227,2.2785,0.0,0.0,0.0,0.0,0.0,0.0,0.0,0.0,0.0,0.0,0.0,0.0,0.0,0.0,0.0,0.0,0.0,0.0,0.0,4.6196,4.6897,4.8444,4.8372,4.9077,5.0723,5.0466,5.0302,5.0302,5.0302,5.0302,5.0302,4.9702,4.9424,4.9405,4.9048,4.9048,4.9283,4.9034,4.8866,4.8781,0.0,0.0,0.0,0.0,0.0,0.0,0.0,0.0,0.0,0.0,0.0,0.0,0.0,0.0,0.0,5.2645,5.2645,5.2599,5.2544,5.2498,5.2353,5.1719,5.1574,5.1466,5.1086,5.0361,5.0006,5.0859,5.0574,5.0084,4.9759,4.8311,4.6502,4.4407,4.506,4.5448,4.4417,4.4635,4.4783,4.4558,4.4855,4.4783,4.3906,4.4236,4.4219,4.3628,4.4125,4.444,4.444,4.497,4.5019,4.4456,4.444,4.4175,4.3628,4.3568,4.3833,4.444,4.444,4.4098,4.3568,4.3235,4.271,4.1917,4.0878,3.9688,3.825,3.6894,3.5467,3.4056,3.2809,3.1424,2.9886,2.7243,2.3934,2.0767,0.0,0.0,0.0,0.0,0.0,0.0,0.0,0.0,0.0,0.0,0.0,0.0,0.0,0.0,0.0,0.0,0.0,0.0,0.0,4.6196,4.6897,4.8444,4.8372,4.9032,5.0587,5.0418,5.0302,5.0302,5.0302,5.0302,5.0302,4.9929,4.9757,4.9757,4.9424,4.9302,4.9302,4.9252,4.908,4.8816,4.8781,0.0,0.0,0.0,0.0,0.0,0.0,0.0,0.0,0.0,0.0,0.0,0.0,0.0,5.3054,5.3054,5.3054,5.2987,5.2618,5.2498,5.248,5.2426,5.2408,5.2009,5.0524,5.0705,5.095,5.0307,4.9636,4.8941,4.8037,4.6187,4.4897,4.5392,4.4507,4.3796,4.3687,4.3671,4.3889,4.4446,4.4558,4.4502,4.4446,4.4446,4.4219,4.3628,4.3678,4.3694,4.3694,4.3761,4.3761,4.3694,4.3694,4.3678,4.3628,4.3509,4.3525,4.3711,4.3575,4.3498,4.3372,4.2474,4.1755,4.0992,3.947,3.7878,3.6452,3.5709,3.4485,3.3031,3.2488,3.0191,2.6968,2.6127,2.324,1.9627,0.0,0.0,0.0,0.0,0.0,0.0,0.0,0.0,0.0,0.0,0.0,0.0,0.0,0.0,0.0,0.0,0.0,0.0,0.0,4.6196,4.6852,4.8308,4.8333,4.8964,5.038,5.0348,5.0302,5.0302,5.0302,5.0302,5.0302,4.9955,4.991,5.012,4.9757,4.973,4.9929,4.9702,4.9541,4.9394,4.9209,4.89,0.0,0.0,0.0,0.0,0.0,0.0,0.0,0.0,5.2955,5.285,5.3198,5.3222,5.3096,5.3096,5.3096,5.3011,5.2599,5.2118,5.1629,5.1122,5.0995,5.0832,5.0109,4.9181,4.855,4.901,4.8662,4.8156,4.7643,4.5873,4.4604,4.4891,4.4206,4.3628,4.3628,4.3628,4.3671,4.3889,4.4276,4.4333,4.3948,4.4276,4.4219,4.3628,4.3628,4.3628,4.3628,4.3628,4.3628,4.3628,4.3509,4.3509,4.3509,4.3312,4.3235,4.3295,4.3235,4.3235,4.3174,4.2301,4.1722,4.1393,3.9185,3.8043,3.7634,3.5709,3.4759,3.4236,3.2352,3.0022,2.7526,2.6214,2.4168,2.1887,0.0,0.0,0.0,0.0,0.0,0.0,0.0,0.0,0.0,0.0,0.0,0.0,0.0,0.0,0.0,0.0,0.0,0.0,4.6196,4.6154,4.6775,4.8241,4.8237,4.8855,5.0264,5.0302,5.0302,5.0302,5.0302,5.0302,5.0302,5.0076,5.0076,5.0302,5.0051,5.0095,5.0278,5.0051,4.9903,4.9757,4.9541,4.9271,0.0,0.0,0.0,0.0,0.0,0.0,0.0,0.0,5.324,5.3072,5.3545,5.3526,5.3285,5.3285,5.3101,5.2794,5.2263,5.152,5.0778,5.0172,4.9846,4.9621,4.9469,4.8317,4.7464,4.8012,4.7857,4.7482,4.7139,4.5823,4.4746,4.4746,4.4105,4.3628,4.3628,4.3628,4.3628,4.3628,4.4121,4.4276,4.3687,4.4179,4.4219,4.3628,4.3628,4.3628,4.3628,4.3568,4.3568,4.3568,4.3372,4.3312,4.3312,4.3129,4.3068,4.3068,4.299,4.299,4.299,4.1852,4.1377,4.1229,3.8458,3.7439,3.7529,3.5224,3.4178,3.3766,3.1452,2.9396,2.7631,2.6031,2.4482,2.2802,0.0,0.0,0.0,0.0,0.0,0.0,0.0,0.0,0.0,0.0,0.0,0.0,0.0,0.0,0.0,0.0,0.0,0.0,4.6196,4.6075,4.6698,4.8226,4.8101,4.8719,5.0264,5.0302,5.0302,5.0302,5.0302,5.0302,5.0302,5.0302,5.0302,5.0302,5.0302,5.0302,5.0302,5.0302,5.012,4.9784,4.9784,4.9599,4.9377,0.0,0.0,0.0,0.0,0.0,0.0,0.0,5.3888,5.3565,5.433,5.4174,5.3683,5.3683,5.3125,5.2343,5.1515,5.0705,5.0071,4.992,4.9279,4.8614,4.8406,4.8524,4.8424,4.7481,4.7249,4.698,4.6332,4.5683,4.5303,4.5303,4.4356,4.3628,4.3628,4.3628,4.3628,4.3628,4.4121,4.4293,4.3687,4.4121,4.4219,4.3611,4.3628,4.3628,4.3628,4.3492,4.3372,4.3372,4.3174,4.3113,4.3113,4.2945,4.2899,4.2899,4.2696,4.2696,4.2837,4.1178,4.0416,4.0193,3.6965,3.5615,3.5453,3.4037,3.2488,3.1045,2.9612,2.8143,2.6638,2.5373,2.3692,2.1777,0.0,0.0,0.0,0.0,0.0,0.0,0.0,0.0,0.0,0.0,0.0,0.0,0.0,0.0,0.0,0.0,0.0,0.0,4.6066,4.5883,4.6496,4.8024,4.8029,4.8719,5.0264,5.0302,5.0302,5.0302,5.0302,5.0302,5.0302,5.0302,5.0302,5.0302,5.0302,5.0302,5.0302,5.0302,5.0236,5.0144,5.0144,4.9955,4.9665,0.0,0.0,0.0,0.0,0.0,0.0,0.0,0.0,0.0,5.4311,5.4121,5.3683,5.3683,5.2915,5.1948,5.1445,5.0307,4.9213,4.9107,4.8449,4.7785,4.7582,4.7582,4.7555,4.7169,4.707,4.6888,4.6284,4.607,4.5649,4.4855,4.4801,4.4524,4.373,4.3948,4.4064,4.3628,4.373,4.3789,4.3628,4.3789,4.3789,4.3628,4.3628,4.3568,4.3432,4.3432,4.3312,4.3174,4.3068,4.2945,4.2945,4.2759,4.2696,4.2696,4.2634,4.2349,4.1868,4.0826,4.0139,3.9505,3.676,3.5709,3.5722,3.3335,3.2064,3.1247,2.8925,2.7725,2.7063,2.4875,2.3719,2.2802,0.0,0.0,0.0,0.0,0.0,0.0,0.0,0.0,0.0,0.0,4.6196,4.6196,0.0,0.0,0.0,0.0,0.0,0.0,0.0,4.6051,4.6689,4.7952,4.8279,4.902,5.0264,5.0302,5.0302,5.0302,5.0302,5.0302,5.0302,5.0302,5.0302,5.0302,5.0302,5.0302,5.0302,5.0302,5.0302,5.0302,5.0302,5.0169,4.9981,0.0,0.0,0.0,0.0,0.0,0.0,0.0,0.0,0.0,5.356,5.3316,5.29,5.2735,5.1991,5.1072,5.05,4.9358,4.8338,4.8189,4.7572,4.6908,4.6537,4.6619,4.6731,4.6411,4.6525,4.659,4.6235,4.602,4.57,4.5232,4.4855,4.4468,4.4006,4.4064,4.4006,4.3611,4.3628,4.3628,4.3628,4.3628,4.3628,4.3628,4.3628,4.3552,4.3492,4.3449,4.3372,4.3235,4.2743,4.2476,4.2476,4.1997,4.1738,4.1738,4.1738,4.1311,4.0622,4.0485,3.9999,3.916,3.6696,3.5129,3.4139,3.2115,3.0991,3.017,2.7829,2.6989,2.6703,2.4492,2.3728,2.3211,0.0,0.0,4.6189,4.6196,0.0,0.0,0.0,0.0,0.0,0.0,4.6162,4.6162,0.0,0.0,0.0,0.0,0.0,0.0,0.0,4.6367,4.7126,4.7934,4.8769,4.9538,5.0283,5.0302,5.0302,5.0302,5.0302,5.0302,5.0302,5.0302,5.0302,5.0302,5.0302,5.0302,5.0302,5.0302,5.0302,5.0302,5.0302,5.0302,5.0302,5.0302,0.0,0.0,0.0,0.0,0.0,0.0,0.0,0.0,5.2418,5.2197,5.1734,5.1355,5.0673,4.9898,4.9131,4.8211,4.745,4.7258,4.6707,4.6067,4.5355,4.5649,4.592,4.5407,4.5751,4.6087,4.607,4.5649,4.5477,4.592,4.4746,4.3889,4.435,4.4006,4.3671,4.3628,4.3628,4.3628,4.3628,4.3628,4.3628,4.3628,4.3628,4.3568,4.3568,4.3449,4.3372,4.3372,4.2396,4.1803,4.1787,4.0909,4.0416,4.0416,4.0416,3.9999,3.9305,3.9999,3.9773,3.8855,3.6369,3.3959,3.1536,3.0441,2.9441,2.8434,2.6648,2.5994,2.5703,2.4125,2.3529,2.3011,0.0,0.0,4.6075,4.6189,0.0,0.0,0.0,0.0,0.0,0.0,0.0,0.0,0.0,4.5871,0.0,0.0,0.0,0.0,0.0,4.6167,4.6946,4.7807,4.9255,5.013,5.0302,5.0302,5.0302,5.0302,5.0302,5.0302,5.0302,5.0302,5.0302,5.0302,5.0302,5.0302,5.0302,5.0302,5.0302,5.0302,5.0302,5.0302,5.0302,5.0302,5.0302,0.0,0.0,0.0,0.0,0.0,0.0,0.0,5.2493,5.2197,5.1767,5.1701,5.0672,4.9504,4.9281,4.8405,4.7363,4.666,4.6,4.5355,4.4801,4.4763,4.4964,4.5267,4.5407,4.5372,4.4927,4.5108,4.5054,4.4259,4.458,4.4674,4.3889,4.4064,4.4121,4.3687,4.3628,4.3628,4.3628,4.3628,4.3628,4.3628,4.3628,4.3568,4.3449,4.3449,4.3312,4.3174,4.2412,4.1948,4.1787,4.106,4.0585,0.0,4.0416,3.9999,3.932,3.9448,3.8369,3.6304,3.4323,3.2759,3.1448,2.9726,2.8495,2.762,2.5848,2.4805,2.4125,2.3138,2.2224,2.1175,0.0,0.0,0.0,0.0,0.0,0.0,0.0,0.0,0.0,0.0,0.0,0.0,0.0,4.5708,0.0,0.0,0.0,0.0,0.0,0.0,4.7685,4.8945,4.9824,5.0302,5.0302,5.0302,5.0302,5.0302,5.0302,5.0302,5.0302,5.0302,5.0302,5.0302,5.0302,5.0302,5.0302,5.0302,5.0302,5.0302,5.0302,5.0302,5.0302,5.0302,5.0302,5.0302,5.0302,0.0,0.0,0.0,0.0,0.0,0.0,0.0,5.084,5.0704,5.0075,4.9305,4.895,4.8283,4.7378,4.613,4.5355,4.4746,4.4219,4.4064,4.4162,4.4412,4.4746,4.4855,4.4558,4.4763,4.4801,4.4468,4.4468,4.4356,4.4064,4.4064,4.3948,4.3628,4.3628,4.3628,4.3628,4.3628,4.3628,4.3628,4.3628,4.3568,4.3509,4.3509,4.3432,4.3355,4.2253,4.1575,4.1346,4.0224,3.955,3.9305,3.8913,3.8295,3.7544,3.7951,3.6746,3.4254,3.3318,3.1879,3.0079,2.868,2.7652,2.6617,2.4982,2.4115,2.3529,2.2215,2.1293,2.0451,0.0,0.0,0.0,0.0,0.0,0.0,0.0,0.0,0.0,0.0,0.0,0.0,0.0,0.0,0.0,0.0,0.0,0.0,0.0,0.0,0.0,5.0225,5.0302,5.0302,5.0302,5.0302,5.0302,5.0302,5.0302,5.0302,5.0302,5.0302,5.0302,5.0302,5.0302,5.0302,5.0302,5.0302,5.0302,5.0302,5.0302,5.0302,5.0302,5.0302,5.0302,5.0302,5.0302,5.0302,5.0278,5.0207,0.0,0.0,0.0,0.0,4.9871,4.9566,4.9446,4.9239,4.8532,4.7999,4.7263,4.5681,4.491,4.4333,4.373,4.3628,4.3628,4.3628,4.4006,4.4333,4.4333,4.4333,4.4485,4.4947,4.4202,4.3789,4.4276,4.3889,4.3628,4.3628,4.3628,4.3628,4.3628,4.3628,4.3628,4.3628,4.3628,4.3628,4.3628,4.3628,4.3568,4.3432,4.1949,4.1064,4.0712,3.9247,3.8277,3.7962,3.7092,3.6201,3.5386,3.5935,3.4994,3.2893,3.2549,3.0897,2.8423,2.7641,2.6617,2.5509,2.4223,2.3628,2.3329,2.1599,2.0562,1.9819,0.0,0.0,0.0,0.0,0.0,0.0,0.0,0.0,0.0,0.0,4.5419,4.54,0.0,0.0,0.0,0.0,0.0,0.0,4.65,0.0,0.0,5.0264,5.0302,5.0302,5.0302,5.0302,5.0302,5.0302,5.0302,5.0302,5.0302,5.0302,5.0302,5.0302,5.0302,5.0302,5.0302,5.0302,5.0302,5.0302,5.0302,5.0302,5.0302,5.0302,5.0302,5.0302,5.0302,5.0278,5.0188,5.0133,5.0082,0.0,0.0,0.0,4.9879,4.9852,4.9625,4.9302,4.8709,4.7565,4.6341,4.5494,4.491,4.4333,4.373,4.3628,4.3628,4.3628,4.3671,4.373,4.373,4.373,4.373,4.3848,4.3671,4.3628,4.373,4.3628,4.3628,4.3628,4.3628,4.3628,4.3628,4.3628,4.3628,4.3628,4.3628,4.3628,4.3628,4.3628,4.3355,4.2772,4.1755,4.0811,4.0015,3.8987,3.8037,3.7092,3.6188,3.5318,3.4538,3.3779,3.3233,3.2807,3.1276,2.9487,2.762,2.6638,2.5392,2.4026,2.3827,2.3338,2.2636,2.1404,2.0151,1.8679,0.0,0.0,0.0,0.0,0.0,0.0,0.0,0.0,0.0,0.0,0.0,4.5319,0.0,0.0,0.0,4.5927,4.6309,4.692,4.7895,4.9098,4.992,5.0283,5.0302,5.0302,5.0302,5.0302,5.0302,5.0302,5.0302,5.0302,5.0302,5.0302,5.0302,5.0302,5.0302,5.0302,5.0302,5.0302,5.0302,5.0302,5.0302,5.0302,5.0302,5.0302,5.0278,5.0236,5.0236,5.0207,5.0158,5.0108,5.0057,4.9986,4.9978,0.0,0.0,0.0,4.9797,4.9499,4.8744,4.7482,4.631,4.5903,4.5125,4.4446,4.4179,4.3848,4.3628,4.3628,4.3628,4.3628,4.3628,4.3628,4.3628,4.3628,4.3628,4.3492,4.3096,4.3355,4.3295,4.2506,4.3096,4.3295,4.2506,4.2772,4.2851,4.2443,4.2443,4.2443,4.2443,4.2301,4.2141,4.182,4.0961,3.9969,3.9013,3.819,3.7,3.5507,3.5101,3.4178,3.2834,3.2364,3.1904,3.1276,2.9465,2.7913,2.6617,2.5285,2.4322,2.3628,2.2509,2.1912,2.1293,1.8762,1.7285,1.6225,0.0,0.0,0.0,0.0,0.0,0.0,0.0,0.0,0.0,0.0,0.0,0.0,0.0,0.0,0.0,0.0,4.7035,4.7799,4.9308,4.9977,5.0302,5.0302,5.0302,5.0302,5.0302,5.0302,5.0302,5.0302,5.0302,5.0302,5.0302,5.0302,5.0302,5.0302,5.0302,5.0302,5.0302,5.0302,5.0302,5.0302,5.0302,5.0302,5.0278,5.0278,5.0231,5.0163,5.0163,5.0133,5.0082,5.0082,5.0031,4.9959,4.9959,4.9879,0.0,0.0,0.0,4.9309,4.8621,4.7578,4.6566,4.6151,4.5337,4.4652,4.4333,4.3889,4.3628,4.3628,4.3628,4.3568,4.3372,4.3372,4.3295,4.3113,4.3035,4.2896,4.238,4.2772,4.271,4.1656,4.2443,4.2632,4.1591,4.1981,4.211,4.1525,4.1295,4.1147,4.1131,4.0733,4.043,4.0224,3.95,3.8708,3.7713,3.6852,3.5803,3.4397,3.3882,3.2932,3.1536,3.0878,3.0147,2.9407,2.8079,2.6788,2.5401,2.4223,2.3628,2.3229,2.1489,2.0775,2.0349,1.6654,1.5056,1.441,0.0,0.0,0.0,0.0,0.0,0.0,0.0,0.0,0.0,0.0,0.0,0.0,4.7685,4.7685,4.7704,4.7742,4.8487,4.9328,5.0187,5.0283,5.0302,5.0302,5.0302,0.0,5.0302,5.0302,5.0302,5.0302,5.0302,5.0302,5.0302,5.0302,5.0302,5.0302,5.0302,5.0302,5.0302,5.0302,5.0302,5.0302,5.0302,5.0278,5.0207,5.0207,5.0163,5.0108,5.0108,5.0057,5.0005,5.0005,4.9978,4.9925,4.9925,4.9665,4.9446,0.0,0.0,0.0,4.8192,4.7692,4.6954,4.58,4.5407,4.5001,4.3889,4.3628,4.3628,4.3628,4.3628,4.3432,4.2772,4.2648,4.2443,4.1722,4.1591,4.1591,4.1591,4.1591,4.1591,4.1525,4.1591,4.1591,4.1525,4.1525,4.1525,4.1525,4.0764,4.0224,4.001,3.9219,3.8413,3.7523,3.7296,3.6817,3.6001,3.5006,3.4481,3.4397,3.2575,3.1713,3.1536,2.8914,2.7704,2.761,2.7516,2.6098,2.3827,2.3728,2.3338,2.2535,2.1073,2.0546,2.0025,1.6318,1.4731,1.4083,0.0,0.0,0.0,0.0,0.0,0.0,0.0,0.0,0.0,0.0,0.0,0.0,0.0,4.7799,4.8028,4.8582,4.9385,4.9996,5.0283,5.0302,5.0302,5.0302,5.0302,5.0302,5.0302,5.0302,5.0302,5.0302,5.0302,5.0302,5.0302,5.0302,5.0302,5.0302,5.0302,5.0302,5.0302,5.0236,5.0255,5.0231,5.0182,5.0158,5.0133,5.0133,5.0089,5.0005,4.9805,4.9805,4.9906,4.9683,4.9741,4.9898,4.9898,4.9683,4.9334,4.9071,4.8677,4.8267,4.8153,4.7752,4.7214,4.6262,4.5699,4.5197,4.4373,4.3906,4.3628,4.3628,4.3628,4.3235,4.211,4.2253,4.238,4.1591,4.1525,4.1327,4.094,4.1194,4.0961,3.952,4.0163,4.0201,3.8693,3.8969,3.9026,3.8385,3.8088,3.7849,3.7566,3.7124,3.6754,3.6406,3.5639,3.4492,3.311,3.2153,3.1665,3.1665,3.0485,2.9567,2.8914,2.7421,2.6194,2.5051,2.466,2.4187,2.3628,2.3238,2.2426,2.1395,1.9937,1.8561,1.6858,1.367,1.1946,1.0853,0.0,0.0,0.0,0.0,0.0,0.0,0.0,0.0,4.864,4.864,0.0,0.0,0.0,0.0,4.8869,4.9442,4.9996,5.0302,5.0302,5.0302,5.0302,5.0302,5.0302,5.0302,5.0302,5.0034,5.0034,5.0302,5.0011,5.0011,5.0302,5.0255,5.0255,5.0278,5.0255,5.0255,5.0278,5.0188,5.0182,5.0163,5.0133,5.0082,5.0082,5.0082,5.0031,4.9933,4.9722,4.975,4.9871,4.9655,4.9712,4.9898,4.9898,4.9577,4.909,4.8568,4.8269,4.8072,4.7974,4.7585,4.6999,4.6262,4.5597,4.5001,4.4333,4.3906,4.3628,4.3628,4.3432,4.2912,4.1722,4.1722,4.1656,4.0925,4.0805,4.0668,4.0216,4.0547,4.017,3.8412,3.9073,3.8854,3.7112,3.7377,3.7363,3.6646,3.6332,0.0,3.5211,3.5102,3.4884,3.4446,3.3753,3.2635,3.1086,3.0214,2.9772,2.9772,2.8637,2.7787,2.7043,2.5809,2.4571,2.3329,2.2308,2.2097,2.2601,2.2021,2.0861,1.9376,1.8025,1.633,1.4196,1.1415,0.99,0.902,0.0,0.0,0.0,0.0,0.0,0.0,0.0,0.0,5.0302,5.0302,0.0,0.0,0.0,0.0,0.0,5.0302,5.0302,5.0302,5.0302,5.0302,5.0302,5.0302,5.0302,5.0302,5.0302,4.9519,4.9519,5.0302,4.9449,4.9468,5.0302,5.0158,5.0133,5.0188,5.0133,5.0133,5.0188,5.0114,5.0108,5.0108,5.0108,5.0057,5.0005,5.0005,4.9952,4.9898,4.9898,4.9879,4.9898,4.9898,4.9898,4.9879,4.9879,4.9389,4.8676,4.7911,4.7699,4.7717,0.0,0.0,0.0,4.585,4.5108,4.439,4.373,4.3628,4.3628,4.3628,4.3052,4.238,4.1656,4.094,4.0285,3.9553,3.9424,3.9424,3.9337,3.9337,3.9046,3.8202,3.8127,3.7796,3.6894,3.6802,3.6724,3.6489,3.5695,3.4611,3.3221,3.325,3.2772,3.1536,3.1524,3.0991,3.0079,2.9293,2.8914,2.8811,2.7127,2.629,2.6194,2.389,2.282,2.2719,2.0451,1.9826,2.0341,2.0063,1.8658,1.6392,1.5252,1.3971,1.2351,0.9892,0.8923,0.8706,0.0,0.0,0.0,0.0,0.0,5.0138,4.9981,5.0168,5.0302,0.0,0.0,0.0,5.0302,5.0302,5.0302,5.0302,5.0302,5.0302,5.0302,5.0302,5.0302,5.0302,5.0302,5.0302,5.0302,5.0073,5.0049,5.0231,4.9978,4.9954,5.0158,5.0108,5.0108,5.0114,5.0057,5.0057,5.0038,5.0031,5.0031,5.0031,4.9959,4.9933,4.9925,4.9925,4.9925,4.9852,4.9625,4.9712,4.9852,4.9625,4.9537,4.9488,4.9201,4.8952,4.8711,4.8249,4.7929,4.7657,4.7572,0.0,0.0,0.0,0.0,0.0,4.3831,4.3628,4.3628,4.3628,4.3052,4.238,4.1656,4.094,4.0285,3.9553,3.9424,3.9192,3.8575,3.8501,3.8037,3.6531,3.6373,3.5976,3.4937,3.4855,3.469,0.0,3.3407,3.2636,3.2103,3.1412,3.0621,2.9543,2.8936,2.8193,2.721,2.6416,2.6011,2.6011,2.4973,2.4285,2.3791,2.1971,2.0963,2.0451,1.879,1.7298,1.6206,1.7154,1.6727,1.5252,1.3858,1.214,1.0202,0.924,0.838,0.7619,0.0,0.0,5.0728,5.0507,5.0464,5.044,5.0325,5.0302,5.0302,0.0,0.0,0.0,5.0302,5.0302,5.0302,5.0302,5.0302,5.0302,5.0302,5.0302,5.0302,5.0302,5.0302,5.0302,5.0302,4.9935,4.9911,5.0188,4.9815,4.9765,5.0108,5.0057,5.0031,5.0057,4.9852,4.9769,4.9769,4.9769,4.9769,4.9741,4.9712,4.9683,4.9683,4.9683,4.9769,4.9879,4.9683,4.9636,4.9655,4.9476,4.9302,4.9071,4.8694,4.855,4.844,4.8151,4.7788,4.7468,4.7258,4.7107,4.6707,4.5425,0.0,0.0,4.3831,4.3628,4.3492,0.0,4.2648,4.1917,4.1194,4.0547,3.9809,3.9031,3.8885,3.8738,3.8277,3.7872,3.7155,3.583,3.5575,3.4992,3.3602,3.336,3.3018,3.2215,3.1677,3.1146,3.0598,2.9579,2.8669,2.7746,2.715,2.6313,2.5333,2.4381,2.3795,2.3602,2.3001,2.2178,2.1369,2.0287,1.9095,1.7921,1.6567,1.4961,1.3444,1.3424,1.2994,1.237,1.1602,1.0198,0.8358,0.8266,0.7727,0.7184,0.0,0.0,5.0677,5.0374,5.0302,5.0302,5.0302,5.0302,5.0302,0.0,5.0302,5.0302,5.0302,5.0302,5.0302,5.0302,5.0302,5.0302,5.0302,5.0302,5.0302,5.0302,5.0302,5.0302,5.0302,4.9525,4.9482,5.0163,4.9359,4.9328,5.0082,4.9952,4.9933,4.9978,4.9596,4.9415,4.9415,4.9415,4.9365,4.9334,4.9427,4.9476,4.9476,4.9476,4.9655,4.9898,4.9852,4.9655,4.9384,4.9302,4.9038,4.8657,4.8345,4.8153,4.7977,4.7705,4.745,4.7107,4.6707,4.6406,4.595,4.4841,4.4563,0.0,4.373,4.3628,4.3432,0.0,4.2061,4.1327,4.0737,3.995,3.9192,3.8427,3.8202,3.8037,3.7962,3.7232,3.6503,3.5655,3.5237,3.4389,3.271,3.2289,3.1665,3.0586,3.0305,2.9659,2.8626,2.7651,2.6876,2.622,2.5674,2.4996,2.4117,2.2804,2.196,2.1666,2.1047,2.0098,1.8787,1.8473,1.7232,1.5323,1.3965,1.2699,1.1415,0.957,0.892,0.892,0.9016,0.8251,0.716,0.7176,0.6956,0.6733,5.0835,5.0713,5.0567,5.0329,5.0302,5.0302,5.0302,5.0302,5.0302,5.0302,5.0302,5.0302,5.0302,5.0302,5.0302,5.0302,5.0302,5.0302,5.0302,5.0302,5.0302,5.0302,5.0302,5.0278,5.0212,5.0035,4.9986,5.0057,4.9879,4.9827,4.9952,4.9906,4.9925,4.9906,4.9566,4.9415,4.9415,4.9415,4.922,4.8952,4.9558,4.9797,4.9797,4.9797,4.9824,4.9852,4.9577,4.9476,4.9302,4.8713,4.8366,4.8143,4.8137,4.7802,4.7398,4.7288,4.6972,4.6501,4.59,4.5716,4.5459,4.4691,4.4485,0.0,4.373,4.3628,4.3552,0.0,4.238,4.1459,4.1327,4.027,3.9352,3.9192,3.8008,3.6908,3.6294,3.6056,3.5575,3.4799,3.3746,3.2882,3.2389,3.1476,3.0676,3.0249,2.8925,2.7421,2.5828,2.5226,2.4861,2.4679,2.3398,2.2731,2.2948,2.0636,1.9723,1.9998,1.8905,1.7526,1.6004,1.5245,1.4045,1.2553,1.1509,1.053,0.9464,0.8803,0.8696,0.8809,0.7925,0.7493,0.7176,0.7182,0.5717,0.3585,5.0835,5.0745,5.0625,5.0352,5.0302,5.0302,5.0302,5.0302,5.0302,5.0302,5.0302,5.0348,5.0421,5.0442,5.0442,5.0442,5.0442,5.0418,5.0302,5.0302,5.0302,5.0302,5.0278,5.0236,5.0188,5.0139,5.0082,5.0005,4.9978,4.9933,4.9898,4.9898,4.9898,4.9898,4.9566,4.9415,4.9415,4.9415,4.9302,4.9137,4.9518,4.9655,4.9655,4.9655,4.9655,4.9625,4.9476,4.9174,4.8748,4.8132,4.7838,4.7684,4.7385,4.7062,4.6756,4.646,4.6143,4.58,4.5233,4.5233,4.5197,4.4276,4.4293,0.0,0.0,4.3628,4.3492,4.3174,4.2506,4.1933,4.1591,4.0668,3.9793,3.9391,3.7951,3.666,3.5816,3.5345,3.4786,3.3979,3.3006,3.2115,3.1146,3.0147,2.9246,2.8226,2.6979,2.5537,2.4115,2.362,2.2919,2.1926,2.0695,2.0028,1.9829,1.8422,1.7366,1.6842,1.6424,1.5109,1.3211,1.2923,1.1813,1.0148,0.9633,0.8728,0.7624,0.6697,0.6498,0.6506,0.6012,0.5479,0.5037,0.5493,0.4257,0.2128,5.0825,5.0761,5.0659,5.0352,5.0302,5.0302,5.0302,5.0302,5.0325,5.0352,5.0352,5.0421,5.0625,5.0625,5.0625,5.0625,5.0625,5.0567,5.0374,5.0352,5.0329,5.0302,5.0255,5.0188,5.0163,5.0063,5.0005,4.9978,4.9925,4.9898,4.9898,4.9898,4.9898,4.9898,4.9566,4.9415,4.9415,4.9415,4.9352,4.9302,4.9384,4.9415,4.9396,4.9302,4.9302,4.9252,4.9188,4.8713,4.8072,4.7621,4.7407,4.7232,4.666,4.631,4.6067,4.5614,4.5303,4.5037,4.4529,4.4712,4.4729,4.3831,4.3948,4.4236,0.0,0.0,0.0,4.2912,4.2585,4.219,4.1591,0.0,0.0,3.9152,0.0,0.0,0.0,3.4966,0.0,3.3654,3.2575,3.1323,3.0068,2.9084,2.7694,2.5984,2.5217,2.424,2.3053,2.2205,2.0995,1.9419,1.8318,1.7478,1.6992,1.6075,1.5082,1.4017,1.3739,1.2558,1.0397,1.0442,0.9507,0.7691,0.727,0.655,0.5633,0.4433,0.3813,0.3601,0.3997,0.3465,0.2461,0.3361,0.2576,0.0784,5.068,5.0625,5.0547,5.0348,5.0302,5.0302,5.0302,5.0302,5.0352,5.0546,5.0567,5.0606,5.0761,5.0793,5.0793,5.0793,5.0793,5.0731,5.0586,5.0567,5.0485,5.0302,5.0255,5.0163,5.0108,5.0057,4.9978,4.9906,4.9879,4.9898,4.9898,4.9898,4.9898,4.9898,4.9566,4.9415,4.9415,4.9415,4.9188,4.8885,4.927,4.9415,4.9365,4.9005,4.885,4.8816,4.8402,4.7955,4.7536,4.7407,4.7053,4.6666,4.6424,4.6017,4.5459,4.4801,4.4597,4.4446,4.3889,4.3713,4.3789,4.3611,4.3628,4.3671,4.3628,0.0,4.3568,4.3492,0.0,4.1591,4.1525,0.0,0.0,3.8586,0.0,0.0,3.5997,3.4996,3.4397,3.4314,3.184,3.0237,3.0652,2.8691,2.6754,2.5187,2.4659,2.3768,2.2192,2.0361,1.9312,1.9082,1.7137,1.6218,1.6588,1.4052,1.2882,1.316,1.0863,0.9221,0.7949,0.6845,0.5701,0.4665,0.3626,0.324,0.3188,0.2704,0.1853,0.1092,0.2443,0.2237,0.1343,0.1456,0.0336,-0.1458,5.0625,5.0587,5.0546,5.0348,5.0302,5.0302,5.0302,5.0302,5.0374,5.0567,5.0587,5.0698,5.0951,5.0959,5.0959,5.0959,5.087,5.0778,5.0731,5.0528,5.0442,5.0464,5.0259,5.0133,5.0108,5.0005,4.9925,4.9898,4.9898,4.9898,4.9898,4.9898,4.9898,4.9879,4.9741,4.9683,4.9683,4.9457,4.9302,4.9123,4.8853,4.8748,4.8748,4.8781,4.8694,4.8458,4.8153,4.8014,4.7893,4.7309,4.7035,4.6728,4.5681,4.5144,4.4801,4.4162,4.3948,4.3889,4.3687,4.3312,4.3035,4.3035,4.3035,4.2912,4.2506,4.271,4.2912,4.2443,0.0,0.0,0.0,0.0,0.0,0.0,3.8075,3.6796,0.0,0.0,3.3628,3.3262,0.0,0.0,2.8193,2.6809,2.5383,0.0,2.3805,2.3039,2.1466,1.9574,1.8255,1.7596,1.5064,1.3663,1.3476,1.1434,1.0266,0.987,0.8598,0.7518,0.6434,0.5222,0.444,0.397,0.2748,0.2146,0.2063,0.1062,0.0321,-0.032,-0.0442,-0.0448,-0.0448,-0.0,-0.0785,-0.1908,5.0526,5.0526,5.0464,5.0325,5.0302,5.0302,5.0302,5.0302,5.0396,5.0625,5.0662,5.0781,5.1128,5.115,5.115,5.115,5.1011,5.0926,5.0884,5.0661,5.0547,5.0567,5.0333,5.0139,5.0082,4.9978,4.9898,4.9898,4.9898,4.9898,4.9898,4.9898,4.9898,4.9898,4.9797,4.9797,4.9898,4.9537,4.9415,4.9334,4.8818,4.855,4.8458,4.8623,4.8569,4.8402,4.821,4.821,4.8192,4.7237,4.6937,0.0,4.5127,4.4614,4.439,4.3789,4.3628,4.3628,4.3628,4.3113,4.2648,4.2851,4.271,4.2522,4.219,4.2317,4.2459,4.1917,4.1525,0.0,0.0,0.0,3.9703,3.9335,0.0,3.6526,3.6359,3.4817,0.0,0.0,0.0,0.0,0.0,2.5974,2.5015,0.0,0.0,2.2482,2.0619,1.8745,1.7246,1.6075,1.3471,1.1741,1.1077,0.9497,0.8315,0.7528,0.6927,0.6132,0.5033,0.3825,0.3219,0.2818,0.151,0.0808,0.0508,-0.063,-0.1167,-0.1485,-0.232,-0.2469,-0.202,-0.1346,-0.1682,-0.2243,5.0352,5.0302,5.0302,5.0302,5.0302,5.0302,5.0302,5.0302,5.0423,5.0742,5.079,5.0926,5.1256,5.1292,5.1292,5.1292,5.1292,5.123,5.1105,5.1093,5.0908,5.0527,5.0425,5.0268,5.0005,4.9952,4.9898,4.9898,4.9898,4.9898,4.9898,4.9898,4.9898,4.9898,4.9566,4.9596,4.9898,4.9537,4.9415,4.9415,4.9365,4.9123,4.8746,4.8439,4.8532,4.8746,4.8495,0.0,0.0,4.7026,4.6618,0.0,0.0,0.0,0.0,4.3789,4.3628,4.3628,4.3628,0.0,4.2772,4.3432,4.3096,4.2772,4.3372,4.3035,4.2585,4.2585,4.1475,4.0293,3.9429,3.8708,3.782,3.6321,3.5894,0.0,0.0,3.4523,3.4147,3.3471,3.1235,0.0,0.0,2.7526,2.639,0.0,2.4003,0.0,1.9636,1.7574,1.6082,1.5038,1.2528,1.1072,1.0783,0.8715,0.7528,0.7223,0.5934,0.4734,0.3629,0.2318,0.1109,0.0101,-0.1312,-0.1938,-0.1972,-0.2432,-0.2575,-0.2608,-0.267,-0.2693,-0.2693,-0.2693,-0.2691,-0.2688,5.0485,5.0396,5.0302,5.0302,5.0418,5.0527,5.0624,5.0623,5.0711,5.0978,5.1005,5.1086,5.1284,5.13,5.13,5.13,5.122,5.1201,5.123,5.1011,5.0903,5.0908,5.0659,5.0448,5.0268,5.0144,5.0038,4.9898,4.9898,4.9898,4.9898,4.9898,4.9898,4.9898,4.9769,4.9797,4.9898,4.9537,4.9415,4.9384,4.9104,4.8866,4.8639,4.8532,4.8587,4.8641,4.8569,4.8495,0.0,4.7409,4.6981,4.6564,4.5163,4.4652,4.4406,4.3923,4.3687,0.0,0.0,0.0,4.2522,4.2253,0.0,0.0,0.0,4.1393,4.1044,4.0476,3.9632,3.8738,3.7846,3.7496,3.7147,3.669,3.6064,3.5601,0.0,3.3965,3.292,3.2673,3.0473,2.8555,0.0,0.0,0.0,0.0,2.2544,0.0,0.0,1.6972,1.5298,1.3753,1.1448,0.9702,0.8715,0.7126,0.6134,0.5837,0.5236,0.4332,0.3324,0.2116,0.0907,-0.0302,-0.1515,-0.2246,-0.2596,-0.2831,-0.297,-0.3228,-0.366,-0.392,-0.3908,-0.3698,-0.3589,-0.3699,5.0485,5.0462,5.0374,5.0325,5.0464,5.0643,5.0793,5.079,5.087,5.1062,5.1089,5.1152,5.1284,5.133,5.133,5.1297,5.1226,5.1209,5.13,5.11,5.0998,5.1062,5.0825,5.0623,5.0448,5.0336,5.0193,5.0012,5.0012,4.9959,4.9898,4.9898,4.9898,4.9879,4.9769,4.9797,4.9898,4.9537,4.9476,4.9566,4.9296,4.9099,4.8967,0.0,4.8694,4.8694,0.0,4.8569,4.8365,4.7434,4.6981,4.6611,4.5477,4.4947,4.4763,4.4597,4.4236,4.3948,4.4064,4.3366,0.0,4.249,4.2029,0.0,4.1377,0.0,4.0378,3.9617,3.8796,3.7796,3.6568,3.6425,3.6267,3.5775,3.5413,3.5196,0.0,3.3577,3.2289,3.194,3.0022,2.8129,2.6763,0.0,0.0,0.0,0.0,0.0,0.0,0.0,1.4536,1.2603,1.0569,0.881,0.7428,0.6134,0.5338,0.5037,0.4531,0.3626,0.262,0.1411,0.0202,-0.1009,-0.1932,-0.2577,-0.2936,-0.3064,-0.3317,-0.3591,-0.4225,-0.447,-0.4457,-0.448,-0.4484,-0.4589,5.0374,5.0485,5.0547,5.0374,5.0506,5.0662,5.079,5.082,5.0898,5.1086,5.1113,5.1152,5.1299,5.1369,5.1372,5.1308,5.1303,5.1302,5.1308,5.13,5.121,5.1023,5.0945,5.0778,5.0529,5.0448,5.0358,5.0212,5.0212,5.0114,4.9906,4.9906,4.9925,4.9898,4.9566,4.9596,4.9898,4.9566,4.9625,4.9898,4.9898,4.9816,4.9615,4.9099,4.8897,4.8829,4.8711,4.8658,4.8458,4.7114,4.6635,4.6495,4.58,4.5459,4.5407,4.5648,4.5144,4.4597,4.4855,4.3905,4.3092,4.3772,0.0,0.0,0.0,0.0,4.0447,0.0,0.0,3.7477,3.5628,3.5494,3.5101,3.3641,3.3979,3.4314,3.416,3.3177,3.2178,3.1311,2.9692,2.8032,2.6496,2.5732,0.0,0.0,0.0,1.8902,0.0,0.0,1.3584,1.1565,0.9985,0.8506,0.7123,0.5837,0.5037,0.4834,0.3726,0.262,0.1513,0.0202,-0.1009,-0.2026,-0.2679,-0.2937,-0.3098,-0.3454,-0.3625,-0.3698,-0.4362,-0.4576,-0.4681,-0.5268,-0.5485,-0.5462,5.0694,5.0711,5.0778,5.0894,5.0937,5.1024,5.1152,5.1172,5.118,5.1232,5.1252,5.1274,5.1369,5.1396,5.1396,5.1372,5.1336,5.1294,5.1302,5.1303,5.1284,5.1239,5.1109,5.0965,5.0793,5.068,5.0527,5.0358,5.0358,5.0268,5.0114,5.0114,5.0038,4.9898,4.9797,4.9824,4.9879,4.9797,4.9824,4.9898,4.9898,4.9665,4.9296,0.0,4.8672,4.8366,4.8212,4.8014,4.777,4.7518,4.7258,4.6989,4.6519,4.631,4.6165,4.5918,4.5597,4.5303,4.5001,4.4618,4.393,4.2282,4.1579,4.1135,0.0,0.0,0.0,0.0,0.0,0.0,0.0,0.0,3.4217,3.4147,3.4314,3.4314,3.416,3.2821,3.1665,3.1223,2.8001,2.6113,2.6978,2.4462,2.229,0.0,0.0,0.0,0.0,0.0,0.0,1.019,0.8715,0.7325,0.6032,0.5438,0.5037,0.4834,0.3726,0.2517,0.1309,0.0101,-0.1219,-0.2681,-0.2796,-0.3063,-0.3366,-0.3901,-0.4171,-0.4369,-0.5375,-0.6151,-0.6478,-0.6146,-0.6369,-0.6702,5.0825,5.087,5.0992,5.1161,5.1201,5.121,5.1291,5.1296,5.1303,5.1294,5.1332,5.1366,5.1396,5.1406,5.1406,5.1405,5.1361,5.1333,5.1343,5.1327,5.1297,5.1297,5.121,5.1086,5.0978,5.0883,5.0717,5.0527,5.0527,5.0445,5.0287,5.0236,5.0139,5.0012,4.9933,4.9898,4.9898,4.9898,4.9824,4.9712,4.9824,4.9588,0.0,4.8863,4.8476,4.7999,4.7752,4.7775,4.786,4.7578,4.7518,4.753,4.7178,4.6954,4.6817,4.6707,4.6406,4.6,4.58,4.4988,4.3813,4.248,4.1304,4.0309,3.9546,3.8811,3.8263,0.0,3.6632,3.5386,0.0,0.0,3.3797,3.3894,3.423,3.3959,3.2777,3.1674,3.0607,2.9593,2.704,2.5564,2.634,2.2852,2.032,0.0,0.0,0.0,0.0,0.0,0.0,0.9011,0.7922,0.683,0.5636,0.4734,0.423,0.4128,0.2517,0.1309,0.0504,-0.0711,-0.1848,-0.2908,-0.3058,-0.3435,-0.3932,-0.4279,-0.465,-0.5037,-0.5935,-0.6715,-0.7154,-0.6927,-0.7041,-0.7154,5.0898,5.1017,5.1161,5.1284,5.1308,5.1291,5.1303,5.131,5.1297,5.1308,5.1352,5.1402,5.1403,5.1398,5.1405,5.1402,5.1404,5.1406,5.1402,5.1343,5.1308,5.1308,5.125,5.1162,5.112,5.1056,5.0932,5.0738,5.0738,5.0644,5.0425,5.0333,5.0236,5.0188,5.0012,4.9906,4.9898,4.9898,4.9741,4.9506,4.9769,4.9646,4.9196,4.8844,4.8384,4.7901,4.7596,4.7846,4.8161,4.7567,4.7638,4.8025,4.7715,4.75,4.745,4.7657,4.7196,4.666,4.6753,4.5234,4.3506,4.323,4.1517,3.9783,3.9301,3.8738,3.8127,3.761,3.6531,3.521,0.0,0.0,3.3458,3.3386,3.3746,3.325,3.0965,3.0194,2.919,2.758,2.6151,0.0,0.0,0.0,1.8824,0.0,0.0,0.0,0.0,0.0,0.0,0.812,0.7322,0.6528,0.5636,0.0,0.3224,0.3224,0.1007,-0.0202,-0.0504,-0.185,-0.2701,-0.3025,-0.3448,-0.3937,-0.4387,-0.4673,-0.5148,-0.5706,-0.627,-0.6826,-0.7379,-0.7607,-0.7493,-0.7265,5.1219,5.1248,5.1265,5.13,5.1304,5.1323,5.1372,5.1332,5.1312,5.1386,5.1386,5.1404,5.1391,5.1402,5.1398,5.1402,5.1398,5.1405,5.1406,5.1382,5.1374,5.1374,5.1263,5.1199,5.1191,5.1122,5.1043,5.0947,5.0947,5.0835,5.0664,5.0606,5.0464,5.0188,5.0163,5.0038,4.9898,4.9898,0.0,4.9824,4.9898,4.9959,4.9955,4.9447,4.9027,4.8699,4.8688,4.82,4.7548,4.7988,4.7968,4.7901,4.8218,4.8139,4.787,4.7741,4.7615,4.732,4.6454,4.5915,4.4902,4.1995,4.0974,4.0056,3.7965,3.7352,3.7211,3.7148,3.6322,3.5413,3.4664,0.0,0.0,3.3313,3.2654,3.1893,3.1199,2.9173,2.7821,2.7875,2.4616,2.2866,2.4217,2.2135,2.039,0.0,0.0,0.0,0.0,0.0,0.0,0.0,0.6631,0.0,0.0,0.0,0.3224,0.3224,0.1007,-0.0302,-0.0807,-0.1954,-0.2824,-0.3399,-0.4006,-0.4292,-0.4573,-0.5588,-0.6487,-0.7271,-0.7385,-0.761,-0.7835,-0.7946,-0.7937,-0.7811,5.1304,5.1303,5.1289,5.1304,5.1308,5.1304,5.1307,5.1268,5.1289,5.1386,5.134,5.1307,5.1293,5.1308,5.1297,5.1297,5.1355,5.1394,5.1394,5.1406,5.1406,5.1406,5.1349,5.1284,5.1249,5.1183,5.1113,5.1042,5.103,5.0932,5.0808,5.0738,5.0567,5.0291,5.0236,5.0025,4.9757,0.0,0.0,4.9917,5.0081,5.0111,4.9999,4.9751,4.9429,4.9107,4.913,4.8819,4.8364,4.8621,4.8777,4.8837,4.8837,4.8618,4.8402,4.8289,4.8132,4.7911,4.7403,4.6212,4.4534,4.219,4.07,3.9298,3.7462,3.6978,3.6978,3.6978,3.6322,3.5332,3.4152,3.2571,0.0,0.0,0.0,2.9927,2.8482,2.7053,2.5921,2.5197,2.3299,2.2311,2.3142,2.24,2.1112,1.9372,1.8025,0.0,0.0,0.0,0.0,0.0,0.0,0.0,0.0,0.0,0.0,0.1511,-0.0202,-0.1217,-0.174,-0.2399,-0.3186,-0.3889,-0.4284,-0.4777,-0.5483,-0.6374,-0.7046,-0.7607,-0.7607,-0.7718,-0.8054,-0.8168,-0.8273,-0.8257,5.1285,5.1294,5.1316,5.1281,5.1271,5.1267,5.1215,5.1185,5.1205,5.1304,5.1221,5.1167,5.1167,5.1164,5.1159,5.1203,5.1297,5.1367,5.1394,5.1394,5.1402,5.1402,5.1406,5.1379,5.131,5.126,5.1206,5.1133,5.1066,0.0,0.0,5.0773,5.0606,5.0404,0.0,0.0,0.0,0.0,5.0237,5.0016,5.0301,5.0237,5.0016,5.0016,4.9765,4.9447,4.9557,4.9538,4.9465,4.9481,4.961,4.9698,4.9409,4.907,4.8813,4.8847,4.855,4.8151,4.8114,4.6404,4.4215,4.2621,4.0739,3.8794,3.6788,3.636,3.6188,3.5721,3.4886,3.3856,3.2657,3.0949,0.0,0.0,0.0,0.0,2.5978,2.5201,2.4287,2.2687,2.2482,2.2306,2.211,0.0,0.0,0.0,0.0,0.0,1.1137,0.0,0.0,0.0,0.0,0.5233,0.4327,0.0,0.1109,0.0201,-0.1317,-0.2252,-0.2596,-0.2971,-0.3668,-0.437,-0.4779,-0.5483,-0.6599,-0.7043,-0.749,-0.7826,-0.7826,-0.7937,-0.8269,-0.8497,-0.8605,-0.8702,5.1227,5.1307,5.1342,5.1228,5.1216,5.1215,5.1206,5.1109,5.1023,5.1033,5.1023,5.1011,5.1011,5.1031,5.1063,5.1195,5.1211,5.1265,5.139,5.1398,5.1398,5.1398,5.14,5.1406,5.1386,5.1382,5.1316,5.1186,5.1178,5.1131,0.0,0.0,0.0,0.0,0.0,0.0,0.0,5.0383,5.0363,5.0363,5.0404,5.0363,5.0342,5.0342,5.0149,4.9904,5.0389,5.0331,5.0106,5.0585,5.0229,4.9667,4.9926,4.9466,4.8855,4.9038,4.844,4.7723,4.7596,4.6783,4.5269,4.239,4.1162,3.9501,3.513,3.4066,3.3527,3.1574,3.0275,2.9545,2.9619,2.8175,2.7366,0.0,0.0,0.0,0.0,2.4681,2.3474,2.3096,2.2658,2.2022,2.1167,2.1311,0.0,0.0,1.7472,0.0,0.0,0.0,0.0,0.7922,0.0,0.6924,0.6825,0.3318,0.1411,0.1107,-0.1025,-0.2381,-0.2908,-0.3546,-0.4036,-0.4479,-0.5662,-0.6599,-0.7496,-0.7496,-0.7937,-0.8374,-0.8374,-0.8598,-0.8826,-0.883,-0.904,-0.9361,5.1096,5.1117,5.1148,0.0,0.0,0.0,0.0,5.0966,5.0908,5.0835,5.0879,5.0951,5.0951,5.0951,5.0965,5.103,5.1061,5.1094,5.115,5.1159,5.1195,5.1284,5.1283,5.1327,5.1391,5.1405,5.1344,5.1268,5.1213,0.0,0.0,0.0,0.0,0.0,0.0,5.0526,5.0586,5.0663,5.0699,5.0699,5.0699,5.0699,5.0699,5.0699,5.0624,5.0529,5.0735,5.0715,5.0622,5.0819,5.0605,5.0265,5.043,5.0134,4.977,4.9746,4.9184,4.8494,4.831,4.7458,4.586,4.2831,4.1692,4.0251,3.6286,3.4532,3.3804,3.3688,3.1761,2.9741,2.8525,2.6963,2.5894,0.0,0.0,0.0,0.0,2.2744,2.1587,2.0584,2.0322,1.9861,1.8832,1.9497,0.0,0.0,0.0,0.0,0.0,0.0,0.0,0.7621,0.0,0.4624,0.3819,0.1711,0.0203,-0.0819,-0.1859,-0.2624,-0.3002,-0.3476,-0.4174,-0.5097,-0.647,-0.7271,-0.7607,-0.7826,-0.8156,-0.8484,-0.8484,-0.9144,-1.0025,-1.0131,-1.0777,-1.1319,5.0986,0.0,5.0992,0.0,5.0975,5.095,5.0898,5.0874,5.081,5.0702,5.0775,5.0841,5.0841,5.0841,5.0858,5.0906,5.0932,5.0979,5.0996,5.1008,5.1042,5.1141,5.1187,0.0,5.1333,5.1389,5.1384,5.1328,5.1269,0.0,0.0,0.0,0.0,0.0,5.0736,5.0754,5.0789,5.0874,5.0906,5.0906,5.0906,5.0874,5.0841,5.0841,5.0841,5.0841,5.0841,5.0874,5.0906,5.0906,5.0841,5.0756,5.0756,5.0548,5.0303,5.0336,4.9681,4.8922,4.8878,4.7907,4.62,4.3132,4.1986,4.0509,3.6364,3.4462,3.3598,3.3604,3.1296,2.8786,2.7097,2.5482,2.4394,2.4527,0.0,0.0,0.0,2.1793,2.0898,1.9704,1.9521,1.8948,1.7345,1.7995,0.0,0.0,0.0,0.0,0.0,0.0,0.0,0.0,0.0,0.0,0.0,0.0906,-0.0509,-0.1658,-0.219,-0.2763,-0.3175,-0.3736,-0.4869,-0.6371,-0.7595,-0.826,-0.8592,-0.8592,-0.903,-0.9578,-0.9251,-1.0014,-1.1319,-1.1538,-1.2219,-1.3039,5.0942,5.0959,5.0991,5.0913,5.0902,5.0902,5.0902,5.0775,5.0683,5.0702,5.0683,5.0702,5.0702,5.0702,5.0758,5.0906,5.0902,5.0923,5.0996,5.1008,5.1008,0.0,0.0,5.1203,5.1203,5.1333,5.1408,5.1405,0.0,0.0,5.1193,0.0,5.0908,5.0889,5.0835,5.0867,5.099,5.0937,5.0906,5.0906,5.0906,5.0825,5.0701,5.0701,5.0701,5.0701,5.0701,5.0791,5.0906,5.0906,5.0906,5.089,5.089,5.0528,5.0169,5.0587,4.9667,4.8595,4.8987,4.8029,4.62,4.3132,4.1986,4.0117,3.4457,3.3119,3.2276,2.909,2.6854,2.5268,2.4829,2.3451,2.2544,2.2998,0.0,0.0,0.0,2.2255,2.1909,2.1445,2.1356,2.0198,1.7072,1.7101,0.0,0.0,0.0,0.0,0.0,0.0,0.0,0.763,0.6014,0.0,0.5107,0.1708,-0.0204,-0.0518,-0.1901,-0.2797,-0.3175,-0.4666,-0.6482,-0.8484,-0.9016,-1.0002,-1.0996,-1.0453,-1.0996,-1.22,-1.1105,-1.1533,-1.2719,-1.2827,-1.3287,-1.3925,5.0793,5.0773,5.0791,5.0776,5.0758,5.0758,5.0758,5.074,5.0702,5.0702,5.0702,5.0702,5.0702,5.0702,5.0721,0.0,5.0758,5.0775,0.0,5.0789,5.0855,5.0923,5.0978,5.1058,5.1203,5.1245,5.1308,5.1408,0.0,0.0,0.0,5.1133,5.1078,5.1037,5.1011,5.1024,5.1069,5.1043,5.1043,5.103,5.099,5.0947,5.0902,5.0902,5.0871,5.0841,5.0887,5.0902,5.0906,5.0906,5.0906,5.0906,5.0906,5.0784,5.0641,5.0682,4.9915,4.9065,4.9096,4.8292,4.6847,4.4272,4.2874,4.1087,3.6893,3.4584,3.2115,2.8259,2.7006,2.6066,2.4522,2.2938,2.1968,2.2097,2.19,0.0,2.1436,0.0,1.9886,1.8772,1.8025,1.6598,1.422,1.441,0.0,0.0,0.0,0.0,0.0,0.0,0.0,0.0,0.4114,0.0,0.1708,-0.0204,-0.1454,-0.1902,-0.2367,-0.3391,-0.4995,-0.591,-0.7143,-0.8803,-0.9578,-1.0347,-1.1105,-1.1109,-1.1655,-1.2413,-1.2186,-1.294,-1.4046,-1.4744,-1.5625,-1.6399,5.0721,5.0702,5.0702,5.0702,5.0702,5.0702,5.0702,5.0702,5.0702,5.0702,5.0702,5.0702,5.0702,5.0702,0.0,5.0702,5.0702,5.0702,5.0702,5.0702,5.074,5.0827,5.0874,5.0965,5.1123,5.1167,0.0,5.1394,5.1364,5.132,5.1274,5.1277,5.1238,5.1171,5.1152,5.1152,5.1139,5.1117,5.1105,5.1093,5.1056,5.1043,5.1043,5.1043,5.1017,5.0976,5.1017,5.1017,5.0976,5.0976,5.0947,5.0952,5.0952,5.0921,5.089,5.0808,5.0058,4.9286,4.9194,4.8457,4.7124,4.4784,4.3412,4.1596,3.757,3.471,3.2137,2.9359,2.7787,2.6468,2.5178,2.3144,2.1741,2.1741,2.1741,2.1454,2.0718,0.0,1.9063,1.7933,0.0,0.0,0.0,1.2684,1.2022,0.0,0.0,0.0,0.0,0.0,0.0,0.4818,0.2413,0.0,-0.0,-0.1131,-0.1991,-0.2451,-0.3271,-0.454,-0.6144,-0.7141,-0.8358,-0.9794,-1.0566,-1.1442,-1.2309,-1.22,-1.2852,-1.3722,-1.3687,-1.4375,-1.5719,-1.6423,-1.7262,-1.7949,5.074,5.0702,5.0702,0.0,5.0702,0.0,5.0702,5.0683,5.0663,5.0663,5.0663,5.0663,5.0663,5.0683,5.0702,5.0702,0.0,0.0,0.0,5.0702,5.0702,5.0702,5.0827,5.0928,5.0984,5.1113,5.1245,5.139,5.1396,5.1404,5.1405,5.1404,5.1372,5.1303,5.1238,5.1211,5.1201,5.115,5.1097,5.1117,5.1105,5.1105,5.1105,5.1105,5.1105,5.1105,5.1105,5.1105,5.1105,5.1105,5.1056,5.1004,5.1017,5.0961,5.0921,5.0906,5.0169,4.9353,4.9296,4.8526,4.7194,4.4941,4.3673,4.168,3.6788,3.4057,3.2342,3.1988,2.9065,2.6513,2.6431,2.3882,2.1811,2.1741,2.1741,2.1275,2.0167,1.9621,1.9239,0.0,0.0,0.0,0.0,1.1579,0.9678,0.0,0.0,0.0,0.0,0.0,0.4616,0.3021,0.1007,-0.0202,-0.0202,-0.1339,-0.1995,-0.246,-0.4405,-0.5919,-0.6922,-0.8355,-0.9794,-1.1236,-1.1878,-1.2856,-1.4169,-1.3619,-1.4385,-1.594,-1.5401,-1.6053,-1.7329,-1.7949,-1.846,-1.8805,0.0,0.0,5.0702,5.0702,5.0702,5.0702,5.0702,5.0483,5.0317,5.0317,5.0317,5.0317,5.0317,5.0544,5.0702,5.0702,5.0702,5.0702,5.0702,5.0702,5.0702,5.0702,5.074,5.0791,5.0928,5.0951,5.1058,5.1252,5.1347,5.1394,5.1404,5.1406,5.1386,5.1372,5.1369,5.1312,5.1271,5.1265,5.1257,5.1248,5.1211,5.119,5.119,5.119,5.1139,5.1105,5.115,5.1139,5.1105,5.1105,5.1093,5.1093,5.1141,5.1109,5.103,5.0937,5.0413,4.9815,4.9409,4.881,4.7991,4.6621,4.4009,4.0899,3.743,3.5019,3.3409,3.3002,3.0428,2.7829,2.6594,2.4798,2.3066,2.19,2.1741,2.1562,2.1114,1.953,1.8218,0.0,1.5279,1.2995,1.1823,1.0369,0.9418,0.0,0.0,0.0,0.0,0.3217,0.1812,0.1108,-0.0402,-0.162,-0.2572,-0.3042,-0.3652,-0.4312,-0.5014,-0.6697,-0.9023,-0.9464,-1.0457,-1.211,-1.2762,-1.3413,-1.4164,-1.4493,-1.536,-1.664,-1.6689,-1.7174,-1.7962,-1.848,-1.8978,-1.9292,5.0721,5.0702,5.0663,5.0504,5.0483,5.0421,5.031,5.0111,5.0043,5.0183,5.0206,5.0272,5.0421,5.0544,5.0682,5.0702,5.0702,5.0624,5.0483,5.0483,5.0483,5.0483,5.0483,5.0606,5.0887,5.0887,5.0965,5.1113,5.1245,5.1313,5.1312,5.1369,5.1403,5.1405,5.1405,5.1381,5.1343,5.1343,5.1323,5.1297,5.1257,5.1253,5.1248,5.1248,5.123,5.1211,5.123,5.123,5.1181,5.1181,5.1161,5.115,5.1201,5.1141,5.1081,5.0976,5.0564,5.009,4.9746,4.9107,4.8016,4.6016,4.3182,4.0238,3.7884,3.5518,3.3675,3.3362,3.0847,2.8409,2.7589,2.5532,2.373,2.2902,2.2148,2.1553,2.1006,1.933,0.0,1.7188,1.4632,1.2436,1.117,0.9797,0.8726,0.8165,0.6348,0.0,0.1403,-0.0603,-0.131,-0.0504,-0.1711,-0.264,-0.3418,-0.4353,-0.512,-0.5586,-0.6697,-0.814,-0.9798,-1.0457,-1.1341,-1.2436,-1.2989,-1.3635,-1.4283,-1.5047,-1.594,-1.6873,-1.7552,-1.7974,-1.8374,-1.9011,-1.9462,-1.9711,5.0664,5.0624,5.0504,5.0202,5.0135,5.0043,4.9838,4.9776,4.983,5.0062,5.0068,5.0159,5.044,5.0502,5.0523,5.0604,5.0643,5.0544,5.0206,5.0206,5.0183,5.0135,5.0183,5.0385,5.0786,5.0871,5.0942,5.0972,5.1113,5.1187,5.1203,5.1322,5.1382,5.1403,5.1403,5.1406,5.1402,5.1402,5.1372,5.1308,5.1303,5.1297,5.1296,5.13,5.13,5.13,5.13,5.13,5.13,5.13,5.1256,5.122,5.1219,5.1181,5.1117,5.1056,5.0697,5.0298,5.0131,4.923,4.7611,4.4591,4.2199,4.016,3.8586,3.6229,3.4317,3.3999,3.1527,2.9309,2.9077,2.6653,2.4629,2.4385,2.3066,2.1793,2.0953,0.0,1.8025,1.6915,1.4638,1.2538,1.1072,0.9694,0.8226,0.6662,0.4435,0.1107,-0.3629,-0.4744,-0.4241,-0.212,-0.3132,-0.378,-0.3966,-0.5592,-0.6491,-0.6697,-0.8472,-0.9581,-1.0127,-1.1341,-1.2114,-1.255,-1.3202,-1.3867,-1.4559,-1.5637,-1.6442,-1.7127,-1.8155,-1.8597,-1.8783,-1.9489,-1.9815,-2.0046,5.0358,5.0272,5.0183,4.9891,4.9865,4.9857,4.9803,4.9598,4.9488,4.9499,4.9431,4.9382,4.9442,4.9838,5.0111,5.0111,5.0355,5.044,5.0206,5.0206,5.0111,4.9865,5.0087,5.023,5.032,5.0698,5.0902,5.0913,5.0991,5.1084,5.1203,5.1218,5.1297,5.1402,5.1402,5.1394,5.1406,5.1406,5.1386,5.1374,5.1312,5.1299,5.1308,5.1303,5.13,5.13,5.13,5.13,5.13,5.13,5.1292,5.1281,5.1271,5.1291,5.1256,5.1191,5.107,5.0826,5.0256,4.8815,4.6837,4.4145,4.289,4.1963,4.0648,3.8694,3.7128,3.6951,3.4638,3.2173,3.0664,2.9031,2.7509,2.6278,2.4714,2.3557,2.3461,0.0,1.8303,1.811,1.5102,1.2635,1.156,1.0096,0.8531,0.7166,0.463,0.1307,-0.3128,-0.5972,-0.6374,-0.4029,-0.541,-0.6375,-0.681,-0.7376,-0.7901,-0.8149,-0.8699,-0.9801,-1.1345,-1.1568,-1.2223,-1.3207,-1.3851,-1.4717,-1.5672,-1.6381,-1.7331,-1.822,-1.8418,-1.8836,-1.9299,-1.9686,-1.9931,-2.0277,5.0272,5.0206,5.0087,4.9655,4.9569,4.951,4.9358,4.9174,4.9127,4.9283,4.9201,4.9196,4.9363,4.9551,4.9746,4.9993,4.9943,4.9987,5.0144,5.0006,4.9784,4.9502,4.9811,5.0135,5.0442,5.0682,5.0793,5.0793,5.0898,5.0972,5.1035,5.1161,5.1218,5.1297,5.1362,5.1402,5.1394,5.1394,5.1402,5.1406,5.1363,5.133,5.1299,5.1297,5.131,5.13,5.13,5.13,5.13,5.13,5.13,5.1308,5.1291,5.1303,5.1292,5.1191,5.0868,5.0336,4.9291,4.7859,4.6135,4.394,4.2928,4.2158,4.1059,3.9462,3.8105,3.7794,3.5374,3.3058,3.226,3.0211,2.8488,2.7749,2.6041,0.0,0.0,2.1318,1.9099,1.8488,1.588,1.3516,1.176,1.0681,0.9422,0.7775,0.483,0.1306,-0.3021,-0.5959,-0.7205,-0.6324,-0.6643,-0.7629,-0.9223,-0.9708,-1.0441,-1.1529,-1.121,-1.1655,-1.2753,-1.2856,-1.3078,-1.3428,-1.5479,-1.6572,-1.7028,-1.855,-1.9625,-2.046,-2.009,-2.058,-2.1494,-2.1167,-2.1616,-2.2613,5.0159,5.0111,4.9917,4.9396,4.9289,4.9193,4.8909,4.8822,4.8874,4.9038,4.9005,4.9019,4.924,4.9252,4.9375,4.9692,4.9522,4.9512,4.9814,4.9655,4.9431,4.9182,4.9472,4.9936,5.0504,5.0544,5.0584,5.0682,5.0793,5.0839,5.0902,5.1058,5.1132,5.1159,5.1291,5.1357,5.1357,5.139,5.1408,5.1402,5.1404,5.1365,5.132,5.1308,5.1297,5.1303,5.1308,5.13,5.13,5.13,5.13,5.13,5.13,5.1292,5.1248,5.1139,5.0542,4.9586,4.8051,4.6863,4.5653,4.3754,4.2744,4.199,4.1139,4.0063,3.9054,3.8569,3.6304,3.4376,3.3993,3.1645,2.963,2.9307,0.0,0.0,0.0,2.2358,2.0082,1.8924,1.6828,1.4478,1.195,1.1268,1.0006,0.7672,0.4931,0.1405,-0.3118,-0.5869,-0.7588,-0.8046,-0.7629,-0.8591,-1.0885,-1.1359,-1.2408,-1.4132,-1.3496,-1.3614,-1.4148,-1.4347,-1.439,-1.4478,-1.7035,-1.8171,-1.8421,-2.0442,-2.1589,-2.2023,-2.185,-2.2394,-2.3383,-2.2846,-2.3399,-2.4505,4.9865,4.983,4.9646,4.9042,4.8943,4.8909,4.8822,4.8787,4.8768,4.866,4.8587,4.8569,4.855,4.8748,4.8866,4.89,4.9145,4.924,4.9071,4.9038,4.9071,4.9104,4.9137,4.9424,5.0043,5.0043,5.0225,5.0603,5.0623,5.072,5.0902,5.0917,5.0965,5.102,5.115,5.1211,5.1218,5.1357,5.1394,5.1402,5.14,5.1405,5.1387,5.1324,5.1299,5.1288,5.1303,5.13,5.13,5.13,5.13,5.13,5.13,5.1248,5.1181,5.1117,5.0279,4.888,4.6792,4.6168,4.5577,4.345,4.2552,4.2074,4.1569,4.1375,4.1115,4.0542,3.9085,3.7512,3.6057,3.412,3.2311,3.1009,0.0,0.0,2.7475,2.3992,2.1167,2.0155,1.8095,1.5501,1.2237,1.1658,0.9985,0.6339,0.4724,0.1706,-0.3527,-0.6256,-0.7991,-0.8669,-0.8901,-0.973,-1.1084,-1.1647,-1.2733,-1.4132,-1.4358,-1.4787,-1.531,-1.5512,-1.6297,-1.7436,-1.7882,-1.8858,-2.0179,-2.087,-2.1518,-2.2153,-2.2934,-2.3271,-2.3495,-2.4275,-2.4616,-2.4829,4.9483,4.9382,4.9246,4.8909,4.8768,4.8714,4.8678,4.8624,4.8606,4.855,4.8438,4.8363,4.8363,4.8439,4.855,4.8781,4.8711,4.8832,4.9164,4.88,4.8748,4.9085,4.9034,4.919,4.9692,4.9692,4.9872,5.0225,5.0225,5.0402,5.072,5.0805,5.0883,5.0951,5.1113,5.1203,5.1211,5.1333,5.1394,5.1394,5.1405,5.1398,5.1406,5.1379,5.134,5.1294,5.1303,5.13,5.13,5.13,5.13,5.13,5.13,5.1248,5.105,5.0279,4.9695,4.8762,4.6303,4.5607,4.5148,4.3338,4.2768,4.2498,4.2015,4.1931,4.176,4.1202,3.9615,3.7809,3.6328,3.4478,3.2623,3.1259,0.0,2.839,2.7808,2.5198,2.2553,2.0425,1.8792,1.6483,1.3204,1.2145,1.0378,0.7419,0.4102,0.1309,-0.0817,-0.537,-0.8084,-0.8386,-0.966,-1.1033,-1.2403,-1.2827,-1.433,-1.681,-1.6387,-1.6493,-1.7022,-1.7325,-1.7596,-1.8009,-1.9815,-2.103,-2.2009,-2.3005,-2.4072,-2.5084,-2.4735,-2.5168,-2.6173,-2.5936,-2.6391,-2.7276,4.9196,4.9118,4.9005,4.8804,4.8642,4.8587,4.8569,4.8532,4.8457,4.8457,4.8363,4.8306,4.8306,4.8306,4.8402,4.8623,4.8421,4.8495,4.8949,4.855,4.8476,4.8834,4.8763,4.8897,4.9283,4.9283,4.9445,4.9819,4.9819,5.0019,5.0418,5.0528,5.0662,5.0805,5.1023,5.1113,5.1141,5.1284,5.1362,5.1394,5.1394,5.1405,5.1402,5.1404,5.1372,5.1332,5.131,5.13,5.13,5.13,5.13,5.13,5.13,5.1123,5.0743,4.9893,4.938,4.8589,4.6489,4.5633,4.491,4.3299,4.2882,4.2768,4.2297,4.2297,4.2175,4.1534,4.0178,3.8513,3.6448,3.4788,3.3059,3.1009,2.9793,2.8834,2.8004,2.6086,2.3766,2.0935,1.9587,1.7479,1.3974,1.2727,1.1058,0.8294,0.5016,0.2139,-0.0314,-0.5581,-0.8635,-0.8886,-1.0716,-1.2398,-1.3911,-1.4228,-1.5837,-1.8534,-1.7996,-1.7891,-1.8415,-1.8919,-1.9028,-1.9132,-2.1418,-2.2743,-2.3398,-2.4667,-2.578,-2.6663,-2.6191,-2.6844,-2.796,-2.7482,-2.8038,-2.9046,4.9104,4.9085,4.9005,4.866,4.8587,4.8569,4.8494,4.8513,4.8457,4.8306,4.8306,4.8306,4.8306,4.8306,4.8306,4.8306,4.8306,4.8306,4.8306,4.8306,4.8306,4.8306,4.8306,4.8476,4.8781,4.8816,4.8982,4.9405,4.9405,4.9608,4.9993,5.0068,5.0291,5.0603,5.0808,5.0937,5.1008,5.1141,5.1284,5.1394,5.1394,5.1394,5.1402,5.1406,5.1398,5.1394,5.1323,5.13,5.13,5.13,5.13,5.13,5.13,5.0843,5.0297,5.0201,4.9408,4.8305,4.7509,4.6305,4.491,4.3299,4.29,4.275,4.2338,4.2494,4.2512,4.1481,4.1041,3.9865,3.6578,3.5472,3.3984,3.0568,2.9484,2.8858,2.8247,2.6835,2.4745,2.1794,2.0757,1.8493,1.4244,1.3601,1.2027,0.8674,0.7932,0.4583,-0.2599,-0.7263,-0.9842,-1.0225,-1.1855,-1.3691,-1.5417,-1.5749,-1.6935,-1.8869,-1.8869,-1.9078,-1.9286,-2.0234,-2.0773,-2.1225,-2.2768,-2.3574,-2.4024,-2.5467,-2.6127,-2.6236,-2.7422,-2.8077,-2.8398,-2.892,-2.9343,-2.9659,4.8678,4.8587,4.855,4.8513,4.8458,4.8382,4.8363,4.8363,4.8363,4.8306,4.8306,4.8306,4.8306,4.8306,4.8306,4.8306,4.8306,4.8306,4.8306,4.8306,4.8306,4.8306,4.8306,4.8344,4.8439,4.8458,4.8623,4.8982,4.8982,4.919,4.958,4.9819,5.0062,5.0272,5.0662,5.0867,5.0937,5.1113,5.1218,5.1258,5.1362,5.1394,5.1398,5.1404,5.1405,5.1396,5.1318,5.1297,5.13,5.13,5.13,5.1209,5.0752,5.0458,5.0124,4.9278,4.8758,4.8235,4.7053,4.6448,4.5761,4.4132,4.3087,4.2458,4.2634,4.2494,4.1913,4.0528,3.9876,3.8467,3.5102,3.3638,3.2343,3.0291,2.9106,2.8407,2.8259,2.6284,2.4023,2.1794,2.0121,1.7365,1.2945,1.1835,1.0133,0.7226,0.5248,0.1179,-0.576,-0.8801,-1.0429,-1.0562,-1.2837,-1.4561,-1.5636,-1.6062,-1.7134,-1.8869,-1.9071,-1.9501,-2.0234,-2.0438,-2.1331,-2.2776,-2.3209,-2.4234,-2.5467,-2.5907,-2.6554,-2.7422,-2.796,-2.8291,-2.8621,-2.9248,-2.9554,-2.9659,4.8419,4.8363,4.8324,4.8419,4.8363,4.8306,4.8306,4.8306,4.8306,4.8306,4.8306,4.8306,4.8306,4.8306,4.8306,4.8306,4.8306,4.8306,4.8306,4.8306,4.8306,4.8306,4.8306,4.8306,4.8306,4.8306,4.8402,4.8586,4.8586,4.8797,4.9158,4.9522,4.9819,5.0068,5.0508,5.0789,5.0917,5.105,5.115,5.1211,5.1357,5.1394,5.1398,5.14,5.1406,5.1384,5.1316,5.1302,5.1291,5.1308,5.13,5.118,5.0538,5.0183,4.9794,4.8827,4.8347,4.7991,4.7189,4.6739,4.6269,4.5291,4.3791,4.2531,4.2292,4.1931,4.1153,3.9478,3.8833,3.7496,3.4156,3.2932,3.1897,2.9986,2.9015,2.8131,2.6871,2.5408,2.3391,2.0543,1.8525,1.5873,1.2283,1.1025,0.9017,0.5333,0.2031,-0.1846,-0.657,-0.9632,-1.1459,-1.2082,-1.4657,-1.648,-1.7318,-1.8039,-1.8589,-1.8876,-1.968,-2.0261,-2.0491,-2.1861,-2.2872,-2.3779,-2.4576,-2.5548,-2.6654,-2.7178,-2.7726,-2.8174,-2.9313,-2.9428,-2.9142,-2.9963,-3.0068,-2.9973,4.8306,4.8306,4.8306,4.8306,4.8306,4.8306,4.8306,4.8306,4.8306,4.8306,4.8306,4.8306,4.8306,4.8306,4.8306,4.8306,4.8306,4.8306,4.8306,4.8306,4.8306,4.8306,4.8306,4.8306,4.8306,4.8306,4.8306,4.8306,4.8306,4.8476,4.8746,4.9158,4.9551,4.9949,5.0355,5.0683,5.0871,5.0953,5.1083,5.1195,5.1327,5.139,5.1398,5.1398,5.1404,5.1386,5.133,5.1308,5.1294,5.1296,5.1292,5.118,5.0534,4.9927,4.9345,4.8693,4.8124,4.7717,4.7717,4.7174,4.6595,4.644,4.4874,4.3083,4.1868,4.118,4.028,3.8395,3.7826,3.6679,3.3485,3.2793,3.1938,2.9512,2.887,2.7718,2.4861,2.4114,2.2522,1.8848,1.6353,1.4078,1.1815,1.042,0.7539,0.2696,-0.1622,-0.4689,-0.6074,-0.9956,-1.2842,-1.4239,-1.7002,-1.8805,-1.9635,-2.1065,-2.0885,-1.9279,-2.0822,-2.1219,-2.0741,-2.3887,-2.5108,-2.4753,-2.6658,-2.759,-2.7805,-2.9167,-2.9292,-2.891,-3.1154,-3.1154,-3.0057,-3.1073,-3.1176,-3.0681,4.8306,4.8306,4.8306,4.8306,4.8306,4.8306,4.8306,4.8306,4.8306,4.8306,4.8306,4.8306,4.8306,4.8306,4.8306,4.8306,4.8306,4.8306,4.8306,4.8306,4.8306,4.8306,4.8306,4.8306,4.8306,4.8306,4.8306,4.8306,4.8306,4.8344,4.8439,4.8781,4.9126,4.9551,4.9968,5.0336,5.0683,5.0855,5.0972,5.1053,5.1195,5.1316,5.1394,5.1402,5.1396,5.1405,5.1387,5.1338,5.1288,5.1245,5.123,5.1031,4.9961,4.9524,4.9221,4.8199,4.7811,4.7717,4.7717,4.7572,4.7157,4.606,4.5374,4.4715,4.3828,4.1916,3.9698,3.7725,3.5951,3.4024,3.1874,3.0644,2.9795,2.9147,2.7204,2.5486,2.4805,2.2172,1.9955,1.9016,1.5381,1.201,0.9678,0.4888,0.0543,-0.2877,-0.5196,-0.7081,-0.8886,-1.1733,-1.4019,-1.5399,-1.7522,-1.922,-2.0269,-2.1684,-2.219,-2.1988,-2.2792,-2.353,-2.4209,-2.5345,-2.6586,-2.8027,-2.8453,-2.9232,-3.0379,-3.0895,-3.1122,-3.1359,-3.2443,-3.2632,-3.2431,-3.3021,-3.322,-3.3132,4.8306,4.8306,4.8306,4.8306,4.8306,4.8306,4.8306,4.8306,4.8306,4.8306,4.8306,4.8306,4.8306,4.8306,4.8306,4.8306,4.8306,4.8306,4.8306,4.8306,4.8306,4.8306,4.8306,4.8306,4.8306,4.8306,4.8306,4.8306,4.8306,4.8306,4.8306,4.8658,4.8915,4.919,4.9746,5.0135,5.0399,5.0735,5.0928,5.0972,5.1123,5.1245,5.1302,5.1386,5.1405,5.1396,5.1403,5.1363,5.1294,5.1211,5.12,5.1039,5.0082,4.9607,4.9211,4.8329,4.7897,4.7717,4.7717,4.7657,4.7421,4.6711,4.6364,4.5818,4.4202,4.1869,3.9536,3.7826,3.5741,3.3702,3.1667,3.077,3.0121,2.9476,2.729,2.5228,2.3957,2.1088,1.8348,1.6143,1.3448,0.9579,0.3872,-0.0109,-0.4087,-0.854,-0.8556,-1.0062,-1.4003,-1.4904,-1.6398,-1.8904,-2.0476,-2.1904,-2.3286,-2.4801,-2.5889,-2.6724,-2.5548,-2.5479,-2.6437,-2.8124,-2.9394,-3.0223,-3.1149,-3.2141,-3.3116,-3.3074,-3.3086,-3.3372,-3.4314,-3.4228,-3.3616,-3.4412,-3.4509,-3.4205,4.8306,4.8306,4.8306,4.8306,4.8306,4.8306,4.8306,4.821,4.821,4.8306,4.821,4.821,4.8306,4.8306,4.8267,4.8172,4.8267,4.8306,4.8306,4.8306,4.8306,4.8306,4.8306,4.8306,4.8306,4.8306,4.8306,4.8306,4.8306,4.8306,4.8306,4.8586,4.8763,4.8897,4.9608,4.9993,5.0116,5.0643,5.089,5.0917,5.1083,5.1187,5.1211,5.1357,5.1394,5.1398,5.1398,5.1324,5.1224,5.1137,5.1084,5.0959,5.0317,4.9787,4.9325,4.8729,4.8196,4.7783,4.7783,4.7639,4.7468,4.732,4.7187,4.6422,4.4164,4.1753,3.963,3.8353,3.6149,3.3859,3.2034,3.1574,3.1153,2.9917,2.7557,2.5189,2.2982,1.999,1.6693,1.2951,1.0822,0.6315,-0.2007,-0.4024,-0.7114,-1.2911,-1.1733,-1.3281,-1.8781,-1.8316,-1.9273,-2.249,-2.37,-2.4965,-2.6561,-2.8412,-3.0063,-3.1448,-2.9031,-2.8181,-2.8747,-3.1351,-3.2522,-3.2419,-3.406,-3.5208,-3.5799,-3.5424,-3.5233,-3.5267,-3.62,-3.5726,-3.4606,-3.5605,-3.5605,-3.5005,4.8306,4.8306,4.8306,4.8306,4.8306,4.8306,4.8306,4.7955,4.7856,4.8267,4.7955,4.7856,4.8267,4.8306,4.8132,4.7715,4.8093,4.8306,4.8306,4.8306,4.8306,4.8306,4.8306,4.8306,4.8306,4.8306,4.8306,4.8306,4.8306,4.8306,4.8306,4.8344,4.8532,4.8832,4.9326,4.9719,5.0043,5.0506,5.0793,5.0902,5.0991,5.1103,5.1211,5.1357,5.1394,5.1394,5.1398,5.1249,5.0996,5.0753,5.0638,5.0491,4.986,4.9644,4.9476,4.8911,4.8513,4.819,4.8093,4.777,4.7302,4.666,4.6454,4.6161,4.5251,4.2335,3.966,3.897,3.5682,3.2738,3.1898,3.1223,3.0621,2.9821,2.626,2.3407,2.2826,1.7673,1.3641,1.2904,0.6989,0.132,-0.3002,-0.5669,-0.8955,-1.3148,-1.4338,-1.6218,-1.9184,-2.0577,-2.1845,-2.3088,-2.4547,-2.5988,-2.7609,-3.0285,-3.2182,-3.3533,-3.4004,-3.382,-3.3195,-3.3981,-3.5088,-3.6263,-3.6476,-3.7127,-3.7938,-3.756,-3.7415,-3.7402,-3.7387,-3.7214,-3.7095,-3.7638,-3.7243,-3.6628,4.7856,4.7893,4.7951,4.8208,4.8247,4.8208,4.8151,4.8053,4.8053,4.8208,4.8093,4.8075,4.8267,4.8075,4.7937,4.7995,4.7937,4.8035,4.8267,4.8306,4.8306,4.8306,4.8306,4.8306,4.8306,4.8306,4.8172,4.7897,4.8172,4.8172,4.7897,4.8172,4.8231,4.8157,4.8878,4.9386,4.9746,5.0183,5.0526,5.0793,5.0894,5.0972,5.1047,5.123,5.1291,5.1297,5.1367,5.1326,5.1191,5.0865,5.074,5.064,5.0206,4.986,4.9514,4.9089,4.8603,4.8075,4.7506,4.7071,4.666,4.6017,4.5817,4.5648,4.5355,4.2473,3.9753,3.9565,3.6777,3.3873,3.2349,3.1443,3.0458,2.8533,2.553,2.2264,1.91,1.4641,1.0509,0.7008,0.1978,-0.2879,-0.713,-1.0089,-1.2974,-1.586,-1.7029,-1.9308,-2.3323,-2.3476,-2.4598,-2.7471,-2.7764,-2.9431,-3.2562,-3.3759,-3.5259,-3.7197,-3.7933,-3.7246,-3.5342,-3.6013,-3.6862,-3.7704,-3.8622,-3.9522,-4.0232,-3.9637,-3.9637,-3.9986,-3.8868,-3.8291,-3.8148,-3.8213,-3.8306,-3.8424]},{"header":{"parameterUnit":"m.s-1","parameterCategory":1,"la1":30.6,"la2":28.766,"lo1":-90.7593,"lo2":-88.6598,"dy":0.0162,"dx":0.0183,"nx":116,"ny":114,"refTime":"2024-03-12T06:00:00:Z","depth":0,"parameterNumber":3,"parameterNumberName":"V-component_of_WINDS"},"data":[0.0,0.0,0.0,0.0,0.0,0.0,0.0,0.0,0.0,0.0,0.0,0.0,0.0,0.0,0.0,0.0,0.0,0.0,0.0,0.0,0.0,0.0,0.0,0.0,0.0,0.0,0.0,0.0,0.0,0.0,0.0,0.0,0.0,0.0,0.0,0.0,0.0,0.0,0.0,0.0,0.0,0.0,0.0,0.0,0.0,0.0,0.0,0.0,0.0,0.0,0.0,0.0,0.0,0.0,0.0,0.0,0.0,0.0,0.0,0.0,0.0,0.0,0.0,0.0,0.0,0.0,0.0,0.0,0.0,0.0,0.0,0.0,0.0,0.0,0.0,0.0,0.0,0.0,0.0,0.0,0.0,0.0,0.0,0.0,0.0,0.0,0.0,0.0,0.0,0.0,0.0,0.0,0.0,0.0,0.0,0.0,0.0,0.0,0.0,0.0,0.0,0.0,0.0,0.0,0.0,0.0,0.0,0.0,0.0,0.0,0.0,0.0,0.0,0.0,0.0,0.0,0.0,0.0,0.0,0.0,0.0,0.0,0.0,0.0,0.0,0.0,0.0,0.0,0.0,0.0,0.0,0.0,0.0,0.0,0.0,0.0,0.0,0.0,0.0,0.0,0.0,0.0,0.0,0.0,0.0,0.0,0.0,0.0,0.0,0.0,0.0,0.0,0.0,0.0,0.0,0.0,0.0,0.0,0.0,0.0,0.0,0.0,0.0,0.0,0.0,0.0,0.0,0.0,0.0,0.0,0.0,0.0,0.0,0.0,0.0,0.0,0.0,0.0,0.0,0.0,0.0,0.0,0.0,0.0,0.0,0.0,0.0,0.0,0.0,0.0,0.0,0.0,0.0,0.0,0.0,0.0,0.0,0.0,0.0,0.0,0.0,0.0,0.0,0.0,0.0,0.0,0.0,0.0,0.0,0.0,0.0,0.0,0.0,0.0,0.0,0.0,0.0,0.0,0.0,0.0,0.0,0.0,0.0,0.0,0.0,0.0,0.0,0.0,0.0,0.0,0.0,0.0,0.0,0.0,0.0,0.0,0.0,0.0,0.0,0.0,0.0,0.0,0.0,0.0,0.0,0.0,0.0,0.0,0.0,0.0,0.0,0.0,0.0,0.0,0.0,0.0,0.0,0.0,0.0,0.0,0.0,0.0,0.0,0.0,0.0,0.0,0.0,0.0,0.0,0.0,0.0,0.0,0.0,0.0,0.0,0.0,0.0,0.0,0.0,0.0,0.0,0.0,0.0,0.0,0.0,0.0,0.0,0.0,0.0,0.0,0.0,0.0,0.0,0.0,0.0,0.0,0.0,0.0,0.0,0.0,0.0,0.0,0.0,0.0,0.0,0.0,0.0,0.0,0.0,0.0,0.0,0.0,0.0,0.0,0.0,0.0,0.0,0.0,0.0,0.0,0.0,0.0,0.0,0.0,0.0,0.0,0.0,0.0,0.0,0.0,0.0,0.0,0.0,0.0,0.0,0.0,0.0,0.0,0.0,0.0,0.0,0.0,0.0,0.0,0.0,0.0,0.0,0.0,0.0,0.0,0.0,0.0,0.0,0.0,0.0,0.0,0.0,0.0,0.0,0.0,0.0,0.0,0.0,0.0,0.0,0.0,0.0,0.0,0.0,0.0,0.0,0.0,0.0,0.0,0.0,0.0,0.0,0.0,0.0,0.0,0.0,0.0,0.0,0.0,0.0,0.0,0.0,0.0,0.0,0.0,0.0,0.0,0.0,0.0,0.0,0.0,0.0,0.0,0.0,0.0,0.0,0.0,0.0,0.0,0.0,0.0,0.0,0.0,0.0,0.0,0.0,0.0,0.0,0.0,0.0,0.0,0.0,0.0,0.0,0.0,0.0,0.0,0.0,0.0,0.0,0.0,0.0,0.0,0.0,0.0,0.0,0.0,0.0,0.0,0.0,0.0,0.0,0.0,0.0,0.0,0.0,0.0,0.0,0.0,0.0,0.0,0.0,0.0,0.0,0.0,0.0,0.0,0.0,0.0,0.0,0.0,0.0,0.0,0.0,0.0,0.0,0.0,0.0,0.0,0.0,0.0,0.0,0.0,0.0,0.0,0.0,0.0,0.0,0.0,0.0,0.0,0.0,0.0,0.0,0.0,0.0,0.0,0.0,0.0,0.0,0.0,0.0,0.0,0.0,0.0,0.0,0.0,0.0,0.0,0.0,0.0,0.0,0.0,0.0,0.0,0.0,0.0,0.0,0.0,0.0,0.0,0.0,0.0,0.0,0.0,0.0,0.0,0.0,0.0,0.0,0.0,0.0,0.0,0.0,0.0,0.0,0.0,0.0,0.0,0.0,0.0,0.0,0.0,0.0,0.0,0.0,0.0,0.0,0.0,0.0,0.0,0.0,0.0,0.0,0.0,0.0,0.0,0.0,0.0,0.0,0.0,0.0,0.0,0.0,0.0,0.0,0.0,0.0,0.0,0.0,0.0,0.0,0.0,0.0,0.0,0.0,0.0,0.0,0.0,0.0,0.0,0.0,0.0,0.0,0.0,0.0,0.0,0.0,0.0,0.0,0.0,0.0,0.0,0.0,0.0,0.0,0.0,0.0,0.0,0.0,0.0,0.0,0.0,0.0,0.0,0.0,0.0,0.0,0.0,0.0,0.0,0.0,0.0,0.0,0.0,0.0,0.0,0.0,0.0,0.0,0.0,0.0,0.0,0.0,0.0,0.0,0.0,0.0,0.0,0.0,0.0,0.0,0.0,0.0,0.0,0.0,0.0,0.0,0.0,0.0,0.0,0.0,0.0,0.0,0.0,0.0,0.0,0.0,0.0,0.0,0.0,0.0,0.0,0.0,0.0,0.0,0.0,0.0,0.0,0.0,0.0,0.0,0.0,0.0,0.0,0.0,0.0,0.0,0.0,0.0,0.0,0.0,0.0,0.0,0.0,0.0,0.0,0.0,0.0,0.0,0.0,0.0,0.0,0.0,0.0,0.0,0.0,0.0,0.0,0.0,0.0,0.0,0.0,0.0,0.0,0.0,0.0,0.0,0.0,0.0,0.0,0.0,0.0,0.0,0.0,0.0,0.0,0.0,0.0,0.0,0.0,0.0,0.0,0.0,0.0,0.0,0.0,0.0,0.0,0.0,0.0,0.0,0.0,0.0,0.0,0.0,0.0,0.0,0.0,0.0,0.0,0.0,0.0,0.0,0.0,0.0,0.0,0.0,0.0,0.0,0.0,0.0,0.0,0.0,0.0,0.0,0.0,0.0,0.0,0.0,0.0,0.0,0.0,0.0,0.0,0.0,0.0,0.0,0.0,0.0,0.0,0.0,0.0,0.0,0.0,0.0,0.0,0.0,0.0,0.0,0.0,0.0,0.0,0.0,0.0,0.0,0.0,0.0,0.0,0.0,0.0,0.0,0.0,0.0,0.0,0.0,0.0,0.0,0.0,0.0,0.0,0.0,0.0,0.0,0.0,0.0,0.0,0.0,0.0,0.0,0.0,0.0,0.0,0.0,0.0,0.0,0.0,0.0,0.0,0.0,0.0,0.0,0.0,0.0,0.0,0.0,0.0,0.0,0.0,0.0,0.0,0.0,0.0,0.0,0.0,0.0,0.0,0.0,0.0,0.0,0.0,0.0,0.0,0.0,0.0,0.0,0.0,0.0,0.0,0.0,0.0,0.0,0.0,0.0,0.0,0.0,0.0,0.0,0.0,0.0,0.0,0.0,0.0,0.0,0.0,0.0,0.0,0.0,0.0,0.0,0.0,0.0,0.0,0.0,0.0,0.0,0.0,0.0,0.0,0.0,0.0,0.0,0.0,0.0,0.0,0.0,0.0,0.0,0.0,0.0,0.0,0.0,0.0,0.0,0.0,0.0,0.0,0.0,0.0,0.0,0.0,0.0,0.0,0.0,0.0,0.0,0.0,0.0,0.0,0.0,0.0,0.0,0.0,0.0,0.0,0.0,0.0,0.0,0.0,0.0,0.0,0.0,0.0,0.0,0.0,0.0,0.0,0.0,0.0,0.0,0.0,0.0,0.0,0.0,0.0,0.0,0.0,0.0,0.0,0.0,0.0,0.0,0.0,0.0,0.0,0.0,0.0,0.0,0.0,0.0,0.0,0.0,0.0,0.0,0.0,0.0,0.0,0.0,0.0,0.0,0.0,0.0,0.0,0.0,0.0,0.0,0.0,0.0,0.0,0.0,0.0,0.0,0.0,0.0,0.0,0.0,0.0,0.0,0.0,0.0,0.0,0.0,0.0,0.0,0.0,0.0,0.0,0.0,0.0,0.0,0.0,0.0,0.0,0.0,0.0,0.0,0.0,0.0,0.0,0.0,0.0,0.0,0.0,0.0,0.0,0.0,0.0,0.0,0.0,0.0,0.0,0.0,0.0,0.0,0.0,0.0,0.0,0.0,0.0,0.0,0.0,0.0,0.0,0.0,0.0,0.0,0.0,0.0,0.0,0.0,0.0,0.0,0.0,0.0,0.0,0.0,0.0,0.0,0.0,0.0,0.0,0.0,0.0,0.0,0.0,0.0,0.0,0.0,0.0,0.0,0.0,0.0,0.0,0.0,0.0,0.0,0.0,0.0,0.0,0.0,0.0,0.0,0.0,0.0,0.0,0.0,0.0,0.0,0.0,0.0,0.0,0.0,0.0,0.0,0.0,0.0,0.0,0.0,0.0,0.0,0.0,0.0,0.0,0.0,0.0,0.0,0.0,0.0,0.0,0.0,0.0,0.0,0.0,0.0,0.0,0.0,0.0,0.0,0.0,0.0,0.0,0.0,0.0,0.0,0.0,0.0,0.0,0.0,0.0,0.0,0.0,0.0,0.0,0.0,0.0,0.0,0.0,0.0,0.0,0.0,0.0,0.0,0.0,0.0,0.0,0.0,0.0,0.0,0.0,0.0,0.0,0.0,0.0,0.0,0.0,0.0,0.0,0.0,0.0,0.0,0.0,0.0,0.0,0.0,0.0,0.0,0.0,0.0,0.0,0.0,0.0,0.0,0.0,0.0,0.0,0.0,0.0,0.0,0.0,0.0,0.0,0.0,0.0,0.0,0.0,0.0,0.0,0.0,0.0,0.0,0.0,0.0,0.0,0.0,0.0,0.0,0.0,0.0,0.0,0.0,0.0,0.0,0.0,0.0,0.0,0.0,0.0,0.0,0.0,0.0,0.0,0.0,0.0,0.0,0.0,0.0,0.0,0.0,0.0,0.0,0.0,0.0,0.0,0.0,0.0,0.0,0.0,0.0,0.0,0.0,0.0,0.0,0.0,0.0,0.0,0.0,0.0,0.0,0.0,0.0,0.0,0.0,0.0,0.0,0.0,0.0,0.0,0.0,0.0,0.0,0.0,0.0,0.0,0.0,0.0,0.0,0.0,0.0,0.0,0.0,0.0,0.0,0.0,0.0,0.0,0.0,0.0,0.0,0.0,0.0,0.0,0.0,0.0,0.0,0.0,0.0,0.0,0.0,0.0,0.0,0.0,0.0,0.0,0.0,0.0,0.0,0.0,0.0,0.0,0.0,0.0,0.0,0.0,0.0,0.0,0.0,0.0,0.0,0.0,0.0,0.0,0.0,0.0,0.0,0.0,0.0,0.0,0.0,0.0,0.0,0.0,0.0,0.0,0.0,0.0,0.0,0.0,0.0,0.0,0.0,0.0,0.0,0.0,0.0,0.0,0.0,0.0,0.0,0.0,0.0,0.0,0.0,0.0,0.0,0.0,0.0,0.0,0.0,0.0,0.0,0.0,0.0,0.0,0.0,0.0,0.0,0.0,0.0,0.0,0.0,0.0,0.0,0.0,0.0,0.0,0.0,0.0,0.0,0.0,0.0,0.0,0.0,0.0,0.0,0.0,0.0,0.0,0.0,0.0,0.0,0.0,0.0,0.0,0.0,0.0,0.0,0.0,0.0,0.0,0.0,0.0,0.0,0.0,0.0,0.0,0.0,0.0,0.0,0.0,0.0,0.0,0.0,0.0,0.0,0.0,0.0,0.0,0.0,0.0,0.0,0.0,0.0,0.0,0.0,0.0,0.0,0.0,0.0,0.0,0.0,0.0,0.0,0.0,0.0,0.0,0.0,0.0,0.0,0.0,0.0,0.0,0.0,0.0,0.0,0.0,-1.4823,0.0,0.0,0.0,0.0,0.0,0.0,0.0,0.0,0.0,0.0,0.0,0.0,0.0,0.0,0.0,0.0,0.0,0.0,0.0,0.0,0.0,0.0,0.0,0.0,0.0,0.0,0.0,0.0,0.0,0.0,0.0,0.0,0.0,0.0,0.0,0.8038,0.8038,0.8038,0.8038,0.8038,0.8038,0.8038,0.8038,0.8038,0.8038,0.0,0.0,0.0,0.0,0.0,0.0,0.0,0.0,0.0,0.0,0.0,0.0,0.0,0.0,0.0,0.0,0.0,0.0,0.0,0.0,0.0,0.0,0.0,0.0,0.0,0.0,0.0,0.0,0.0,0.0,0.0,0.0,0.0,0.0,0.0,0.0,0.0,0.0,0.0,0.0,0.0,0.0,0.0,0.0,0.0,0.0,0.0,0.0,0.0,0.0,0.0,0.0,0.0,0.0,0.0,0.0,0.0,0.0,0.0,0.0,0.0,0.0,0.0,0.0,0.0,0.0,0.0,0.0,0.0,0.0,0.0,-1.7065,0.0,0.0,0.0,0.0,0.0,0.0,0.0,0.0,0.0,0.0,0.0,0.0,0.0,0.0,0.0,0.0,0.0,0.0,0.0,0.0,0.0,0.0,0.0,0.7736,0.7839,0.7939,0.8038,0.8038,0.8038,0.8038,0.8038,0.8038,0.8038,0.8038,0.8038,0.8038,0.8038,0.8038,0.8038,0.8038,0.8038,0.8038,0.8038,0.8038,0.8038,0.0,0.0,0.0,0.0,0.0,0.0,0.0,0.0,0.0,0.0,0.0,0.0,0.0,0.0,0.0,0.0,0.0,0.0,0.0,0.0,0.0,0.0,0.0,0.0,0.0,0.0,0.0,0.0,0.0,0.0,0.0,0.0,0.0,0.0,0.0,0.0,0.0,0.0,0.0,0.0,0.0,0.0,0.0,0.0,0.0,0.0,0.0,0.0,0.0,0.0,0.0,0.0,0.0,0.0,0.0,0.0,0.0,0.0,0.0,0.0,0.0,0.0,0.0,-1.7988,-1.8339,-1.8514,-1.9043,-2.0312,-2.2058,-2.0303,-2.0347,-2.1719,-2.0685,0.0,0.0,0.0,0.0,0.0,0.0,0.0,0.0,0.0,0.0,0.0,0.0,0.0,0.0,0.0,0.0,0.0,0.0,0.0,0.0,0.0,0.6637,0.6939,0.7939,0.8038,0.8038,0.8038,0.8038,0.8038,0.8038,0.8038,0.8038,0.8038,0.8038,0.8038,0.8038,0.8038,0.8038,0.8038,0.8038,0.8038,0.8038,0.8038,0.8038,0.8038,0.0,0.0,0.0,0.0,0.0,0.0,0.0,0.0,0.0,0.0,0.0,0.0,0.0,0.0,0.0,0.0,0.0,0.0,0.0,0.0,0.0,0.0,0.0,0.0,0.0,0.0,0.0,0.0,0.0,0.0,0.0,0.0,0.0,0.0,0.0,0.0,0.0,0.0,0.0,0.0,0.0,-0.8392,-0.8082,0.0,0.0,0.0,0.0,0.0,0.0,0.0,0.0,0.0,0.0,0.0,0.0,0.0,-1.5145,-1.5523,-1.7287,-1.8317,-1.8509,-2.039,-2.1813,-2.2698,-2.3866,-2.5009,-2.6025,-2.5909,0.0,-2.368,-2.4405,0.0,0.0,0.0,0.0,0.0,0.0,0.0,0.0,0.0,0.0,0.0,0.0,0.0,0.0,0.0,0.0,0.0,0.0,0.0,0.0,0.0,0.6437,0.6836,0.7939,0.8038,0.8038,0.8038,0.8038,0.8038,0.8038,0.8038,0.8038,0.8038,0.8038,0.8038,0.8038,0.7437,0.7135,0.7135,0.6531,0.6229,0.6229,0.6229,0.6531,0.7135,0.7135,0.0,0.0,0.0,0.0,0.0,0.0,0.0,0.0,0.0,0.0,0.0,0.0,0.0,0.0,0.0,0.0,0.0,0.0,0.0,0.0,0.0,0.0,0.0,0.0,0.0,0.0,0.0,0.0,0.0,0.0,0.0,0.0,0.0,0.0,0.0,0.0,0.0,0.0,0.0,-0.7575,-0.8272,-0.8158,-0.7942,-0.773,0.0,0.0,0.0,0.0,0.0,0.0,0.0,0.0,0.0,-1.5461,-1.675,-1.7957,-1.9074,-1.9918,-2.1105,-2.2382,-2.3467,-2.4738,-2.6044,-2.683,-2.7448,-2.7977,-2.8527,-2.8551,-2.802,-2.6745,-2.5953,-2.5419,0.0,0.0,0.0,0.0,-2.744,-2.8542,0.0,0.0,0.0,0.0,0.0,0.0,0.0,0.0,0.0,0.0,0.0,0.0,0.5532,0.5832,0.6434,0.7537,0.7839,0.8038,0.8038,0.7739,0.7637,0.7637,0.7335,0.7135,0.7135,0.7135,0.7135,0.7135,0.6334,0.6032,0.5932,0.5127,0.4824,0.4824,0.4824,0.5227,0.6032,0.6032,0.5329,0.4423,0.0,0.0,0.0,0.0,0.0,0.0,0.0,0.0,0.0,0.0,0.0,0.0,0.0,0.0,0.0,0.0,0.0,0.0,0.0,0.0,0.0,0.0,0.0,0.0,0.0,0.0,0.0,0.0,0.0,0.0,0.0,0.0,0.0,0.0,0.0,0.0,0.0,-0.7945,-0.8733,-0.8226,-0.9209,-0.9797,0.0,0.0,0.0,0.0,0.0,0.0,-1.538,-1.6108,-1.6987,-1.8218,-1.9387,-2.0806,-2.2429,-2.2875,-2.4175,-2.6096,-2.6531,-2.7484,-2.8866,-2.9473,-2.9822,-3.0049,-3.0733,-3.1466,-3.1909,-2.9318,-2.8279,-2.8279,-2.8104,-2.8486,-2.9181,-2.9102,-2.9786,-3.0701,0.0,0.0,0.0,0.0,0.0,0.0,0.0,0.0,0.0,0.0,0.0,0.3324,0.3324,0.4225,0.5327,0.6437,0.7437,0.8038,0.8038,0.7036,0.6437,0.6437,0.5527,0.4924,0.4924,0.4924,0.4924,0.4924,0.4924,0.4924,0.4924,0.4824,0.4824,0.4824,0.4824,0.4824,0.4924,0.4924,0.4225,0.3324,0.3324,0.0,0.0,0.0,0.0,0.0,0.0,0.0,0.0,0.0,0.0,0.0,0.0,0.0,0.0,0.0,0.0,0.0,0.0,0.0,0.0,0.0,0.0,0.0,0.0,0.0,0.0,0.0,0.0,0.0,0.0,0.0,0.0,0.0,0.0,0.0,0.0,0.0,0.0,-1.0015,-1.1653,0.0,0.0,0.0,0.0,-1.4272,-1.5139,-1.6462,-1.8333,-1.8509,-1.9244,-2.0661,-2.2553,-2.3818,-2.434,-2.6167,-2.7502,-2.8259,-2.9329,-3.0275,-3.1016,-3.2449,-3.3118,-3.3196,-3.3621,-3.3837,-3.3824,-3.2841,-3.2398,-3.2398,-3.211,-3.2202,-3.2398,-3.2189,-3.2788,-3.3742,0.0,0.0,0.0,0.0,0.0,0.0,0.0,0.0,0.2019,0.1617,0.1919,0.2422,0.3123,0.4124,0.5227,0.6337,0.7338,0.7739,0.7036,0.6637,0.6134,0.5427,0.5024,0.4824,0.4824,0.4824,0.4824,0.4824,0.4124,0.3725,0.3725,0.3024,0.2723,0.2723,0.2723,0.2723,0.2822,0.3524,0.3123,0.212,0.212,0.1615,0.0,0.0,0.0,0.0,0.0,0.0,0.0,0.0,0.0,0.0,0.0,0.0,0.0,0.0,0.0,0.0,0.0,0.0,0.0,0.0,0.0,0.0,0.0,0.0,0.0,0.0,0.0,0.0,0.0,0.0,0.0,0.0,0.0,0.0,0.0,0.0,0.0,-1.1945,-1.3102,0.0,-1.4214,-1.5164,-1.6195,-1.7094,-1.8057,-1.9355,-2.0946,-2.169,-2.2697,-2.4124,-2.5826,-2.6878,-2.7053,-2.8109,-2.9324,-3.0446,-3.0894,-3.1776,-3.3085,-3.3907,-3.4312,-3.4487,-3.5411,-3.5878,-3.5878,-3.6143,-3.5197,-3.349,-3.3399,-3.3797,-3.4341,-3.4585,-3.4997,-3.5536,0.0,0.0,0.0,0.0,0.0,0.0,0.0,0.0,0.1617,0.1617,0.1617,0.1919,0.2622,0.3624,0.4526,0.5231,0.6331,0.6631,0.5932,0.5532,0.5029,0.4325,0.3924,0.3723,0.3723,0.3723,0.3723,0.3723,0.3022,0.2622,0.2622,0.1919,0.1617,0.1617,0.1617,0.1617,0.1617,0.2118,0.1816,0.1212,0.1212,0.0707,-0.0,0.0,0.0,0.0,0.0,0.0,0.0,0.0,0.0,0.0,0.0,0.0,0.0,0.0,0.0,0.0,0.0,0.0,0.0,0.0,0.0,0.0,0.0,0.0,0.0,0.0,0.0,0.0,0.0,0.0,0.0,0.0,0.0,0.0,0.0,-1.2221,-1.3188,-1.3939,-1.5095,-1.6041,-1.6657,-1.7702,-1.8864,-2.0317,-2.1004,-2.2178,-2.4008,-2.4674,-2.5602,-2.7015,-2.8457,-2.9328,-2.9664,-3.0446,-3.1415,-3.2668,-3.281,-3.354,-3.4908,-3.5426,-3.5736,-3.5924,-3.6936,-3.7323,-3.7414,-3.7962,-3.7068,-3.546,-3.546,-3.585,-3.6546,-3.6881,-3.7113,-3.73,0.0,0.0,0.0,0.0,0.0,0.0,0.0,0.1617,0.1617,0.1617,0.1617,0.1617,0.1617,0.2521,0.3224,0.3224,0.4225,0.4824,0.4724,0.3825,0.3224,0.3123,0.212,0.1617,0.1617,0.1617,0.1617,0.1617,0.1617,0.1617,0.1617,0.1617,0.1617,0.1516,0.1516,0.1516,0.1516,0.0707,0.0303,0.0303,0.0303,-0.0101,-0.0806,0.0,0.0,0.0,0.0,0.0,0.0,0.0,0.0,0.0,0.0,0.0,0.0,0.0,0.0,0.0,0.0,0.0,0.0,0.0,0.0,0.0,0.0,0.0,0.0,0.0,0.0,0.0,0.0,0.0,0.0,0.0,0.0,0.0,-1.329,-1.4734,-1.5778,-1.5826,-1.7554,-1.878,-1.8816,-1.9679,-2.1302,-2.3652,-2.386,-2.4951,-2.7327,-2.7448,-2.7999,-2.9155,-3.0154,-3.1196,-3.2302,-3.325,-3.4134,-3.4799,-3.5156,-3.5749,-3.647,-3.724,-3.761,-3.7687,-3.8052,-3.8277,-3.8202,-3.8277,-3.8277,-3.8202,-3.8202,-3.8575,-3.9104,-3.9177,-3.9177,-3.9177,0.0,0.0,0.0,0.0,0.0,0.0,0.0,0.1617,0.1617,0.1617,0.1617,0.1617,0.1617,0.2521,0.3224,0.3224,0.4225,0.4423,0.3725,0.3324,0.2822,0.212,0.1717,0.1617,0.1617,0.1617,0.1617,0.1617,0.1617,0.1617,0.1617,0.1617,0.1313,0.0707,0.0707,0.0404,-0.0202,-0.0403,-0.0807,-0.1312,-0.0706,-0.0908,-0.1714,0.0,0.0,0.0,0.0,0.0,0.0,0.0,0.0,0.0,0.0,0.0,0.0,0.0,0.0,0.0,0.0,0.0,0.0,0.0,0.0,0.0,0.0,0.0,0.0,0.0,0.0,0.0,0.0,0.0,0.0,0.0,-1.567,-1.6142,-1.521,-1.5507,-1.6351,-1.774,-1.8715,-1.98,-2.1169,-2.1904,-2.3046,-2.5167,-2.5358,-2.6351,-2.8808,-2.9433,-3.0363,-3.1634,-3.2924,-3.3675,-3.3998,-3.5127,-3.5723,-3.5978,-3.6336,-3.6858,-3.74,-3.8023,-3.8472,-3.8899,-3.9262,-3.9205,-3.887,-3.9277,-3.9205,-3.887,-3.887,-3.8943,-3.9177,-4.0021,-4.0301,-4.0293,0.0,0.0,0.0,0.0,0.0,0.0,0.0,0.1617,0.1617,0.1617,0.1617,0.1617,0.1617,0.212,0.2521,0.2521,0.3123,0.3224,0.2521,0.2521,0.222,0.1617,0.1617,0.1617,0.1617,0.1617,0.1617,0.1617,0.163,0.1431,0.1021,0.1132,0.0617,-0.0102,-0.0206,-0.0411,-0.0816,-0.1224,-0.1633,-0.204,-0.1821,-0.2118,-0.2522,-0.2522,-0.2826,-0.323,-0.3732,-0.3833,-0.3932,-0.4431,0.0,0.0,0.0,0.0,0.0,0.0,0.0,0.0,0.0,0.0,0.0,0.0,0.0,0.0,0.0,0.0,0.0,0.0,0.0,0.0,0.0,0.0,0.0,0.0,-1.8048,-1.8895,-1.824,-1.8033,-1.8512,-2.0096,-2.0619,-2.1675,-2.3621,-2.4035,-2.5067,-2.7255,-2.7455,-2.8366,-3.0683,-3.1231,-3.2068,-3.3445,-3.4301,-3.4964,-3.5399,-3.6058,-3.647,-3.6693,-3.7289,-3.7796,-3.8144,-3.8811,-3.9262,-3.9535,-3.9819,-3.9692,-3.9436,-3.9763,-3.9692,0.0,0.0,0.0,0.0,0.0,-4.0935,-4.0986,0.0,0.0,0.0,0.0,0.0,0.0,0.0,0.1617,0.1617,0.1617,0.1617,0.1617,0.1617,0.1617,0.1617,0.1617,0.1617,0.1617,0.1617,0.1617,0.1617,0.1617,0.1617,0.1617,0.1617,0.1617,0.1619,0.1622,0.1545,0.1143,0.0312,0.0211,-0.0211,-0.104,-0.1057,-0.1161,-0.1247,-0.1976,-0.2288,-0.2492,-0.3168,-0.3445,-0.3331,-0.3331,-0.343,-0.3731,-0.4634,-0.4933,-0.5133,-0.6124,0.0,0.0,0.0,0.0,0.0,0.0,0.0,0.0,0.0,0.0,0.0,0.0,0.0,0.0,0.0,0.0,0.0,0.0,0.0,0.0,0.0,0.0,0.0,0.0,-2.0243,-2.164,-2.164,-2.1482,-2.1653,-2.2263,-2.2806,-2.3794,-2.5815,-2.6048,-2.704,-2.937,-2.9669,-3.0584,-3.2599,0.0,0.0,0.0,0.0,-3.5304,-3.6405,-3.647,-3.6693,-3.707,-3.8113,-3.862,-3.8679,-3.9606,-4.003,-4.01,-4.01,-4.0045,-4.0045,-4.0045,-4.01,-4.0115,-4.0045,-4.0339,-4.0935,-4.0987,-4.1164,-4.1346,0.0,0.0,0.0,0.0,0.0,0.0,0.0,0.1617,0.1617,0.1617,0.1617,0.1617,0.1617,0.1617,0.1617,0.1617,0.1617,0.1617,0.1617,0.1617,0.1617,0.1617,0.1617,0.1617,0.1617,0.1617,0.1628,0.1654,0.0932,0.0522,0.0318,-0.0425,-0.1169,-0.1908,-0.1914,-0.234,-0.2969,-0.3076,-0.3707,-0.465,-0.474,-0.4654,-0.4533,-0.4533,-0.5031,-0.5824,-0.6027,-0.6126,-0.6124,-0.6323,-0.6423,-0.6423,-0.6423,-0.6617,0.0,0.0,0.0,0.0,0.0,0.0,0.0,0.0,0.0,0.0,0.0,0.0,0.0,0.0,0.0,0.0,0.0,0.0,0.0,-2.0604,-2.1872,-2.2699,-2.2699,-2.3589,-2.3909,-2.3,-2.322,-2.4316,-2.629,-2.6713,-2.7793,-2.9919,-3.0547,-3.1404,-3.2612,-3.3725,-3.4468,-3.4716,-3.5209,-3.5804,-3.6405,-3.6693,-3.707,-3.7457,0.0,0.0,-3.9677,-4.0339,-4.0836,-4.1241,-4.1241,-4.1039,-4.0646,-4.1107,-4.1241,-4.1241,-4.0768,-4.0987,-4.1522,-4.2077,-4.1866,-4.1448,0.0,0.0,0.0,0.0,0.0,0.0,0.0,0.1617,0.1617,0.1617,0.1617,0.1617,0.1617,0.1617,0.1617,0.1617,0.1617,0.1617,0.1617,0.1212,0.101,0.101,0.0606,0.0404,0.0404,0.0407,0.0411,0.0415,-0.0106,-0.0535,-0.0971,-0.1415,-0.2066,-0.2807,-0.294,-0.348,-0.4314,-0.4314,-0.506,-0.6122,-0.6071,-0.6299,-0.6608,-0.6097,-0.62,-0.6813,-0.7322,-0.7524,-0.7626,-0.8139,-0.8645,-0.9142,-0.9142,-0.9843,-1.0724,0.0,0.0,0.0,0.0,0.0,0.0,0.0,0.0,0.0,0.0,0.0,0.0,0.0,0.0,-1.8211,-1.8962,0.0,-2.1102,-2.1795,-2.3298,-2.4375,-2.4375,-2.5583,-2.6053,-2.4903,-2.5153,-2.6158,-2.8228,-2.8538,-2.951,-3.1347,-3.1789,-3.2488,-3.3628,-3.4301,-3.4881,-3.5209,-3.5723,-3.6298,-3.6693,-3.707,-3.7672,-3.8366,-3.9147,-3.9778,-4.0355,-4.0904,-4.1323,-4.1588,-4.1588,-4.1456,-4.1189,-4.1522,-4.1769,-4.2077,-4.1819,-4.1884,-4.2142,-4.2459,-4.2468,-4.2369,0.0,0.0,0.0,0.0,0.0,0.0,0.0,0.1617,0.1617,0.1617,0.1617,0.1617,0.1617,0.1617,0.1617,0.1617,0.1617,0.1617,0.1617,0.0808,0.0404,0.0404,-0.0405,-0.0811,-0.0811,-0.0929,-0.094,-0.0943,-0.1078,-0.1533,-0.2309,-0.245,-0.3002,-0.3844,-0.3898,-0.4555,-0.5696,-0.5696,-0.6347,-0.7422,-0.7434,-0.803,-0.8874,-0.803,-0.7784,-0.8046,-0.8884,-0.9403,-0.9715,-1.056,-1.1493,-1.2206,-1.2206,-1.3201,-1.4245,-1.374,-1.4138,0.0,0.0,0.0,0.0,0.0,0.0,0.0,0.0,-1.9671,-1.9396,-2.0237,-2.0629,-2.0754,-2.0824,-2.2098,-2.3174,-2.3258,-2.5027,-2.6375,-2.6375,-2.7318,-2.7839,-2.7381,-2.7431,-2.8215,-2.9977,-3.0351,-3.1069,-3.2624,-3.297,-3.3556,-3.4634,-3.4799,-3.5223,-3.5804,-3.6232,-3.6628,-3.7148,-3.7519,-3.8202,-3.9104,-3.9778,-4.0339,-4.0799,-4.1323,-4.1588,-4.1588,-4.1588,-4.1588,-4.1588,-4.172,-4.2077,-4.2585,-4.2756,-4.288,-4.2941,-4.2941,-4.3123,-4.3352,0.0,0.0,0.0,0.0,0.0,0.0,0.0,0.0,0.1617,0.1617,0.1617,0.1617,0.1617,0.1617,0.1617,0.1617,0.1617,0.1617,0.1617,0.0808,0.0404,0.0404,-0.041,-0.093,-0.093,-0.0947,-0.0963,-0.087,-0.1746,-0.2203,-0.2234,-0.3023,-0.4029,-0.5135,-0.5144,-0.5806,-0.6898,-0.6898,-0.7564,-0.8673,-0.8659,-0.9421,-1.0413,-1.0304,-1.0745,-1.138,-1.1488,-1.2201,-1.3017,-1.3227,-1.333,-1.3437,-1.3437,-1.3696,-1.3916,-1.3893,-1.4113,-1.4304,-1.4274,-1.5576,-1.698,-1.726,-1.8556,-2.0027,0.0,-2.0737,-2.0823,-2.1251,-2.2084,-2.2765,-2.3121,-2.4824,-2.6218,-2.6607,-2.7649,-2.8332,-2.8332,-2.8468,-2.8881,-2.9716,-2.9017,-2.8958,-3.0068,-3.0789,-3.1512,-3.2624,-3.3797,-3.4551,-3.4716,-3.5291,-3.5804,-3.6312,-3.6391,-3.6772,-3.7548,-3.8113,-3.8634,-3.9104,-4.0161,-4.0715,-4.0799,-4.1323,-4.1588,-4.1588,-4.1588,-4.1588,-4.1654,-4.2206,-4.2522,-4.2632,-4.3169,-4.3764,-4.4276,-4.4276,-4.39,-4.3406,0.0,0.0,0.0,0.0,0.0,0.0,0.0,0.0,0.0,0.1617,0.1617,0.1617,0.1617,0.1212,0.0909,0.0909,0.0909,0.0707,0.0202,-0.0101,-0.0507,-0.1025,-0.1859,-0.2293,-0.2317,-0.2464,-0.2495,-0.2404,-0.287,-0.3449,-0.4029,-0.4477,-0.5258,-0.6366,-0.6366,-0.7033,-0.814,-0.814,-0.8806,-0.9919,-0.9919,-1.0249,-1.0692,-1.0692,-1.1778,-1.3107,-1.2472,-1.2896,0.0,-1.3841,-1.4372,-1.4897,-1.4897,-1.5658,-1.6432,-1.6101,-1.6315,-1.6759,-1.7127,-1.8445,-1.9833,-2.0483,-2.1618,-2.2713,-2.288,-2.2927,-2.314,-2.3938,-2.4447,-2.4965,-2.5676,-2.6456,-2.7083,-2.7275,-2.812,-2.8767,-2.8767,-2.9461,-3.0267,-3.1045,-3.1056,-3.1158,-3.1625,-3.1889,-3.2587,-3.3797,-3.4384,-3.4881,-3.5291,-3.5804,-3.6232,-3.6405,-3.685,-3.7457,-3.8113,-3.8634,-3.9307,-4.0091,-4.0578,-4.0935,-4.1256,-4.1522,-4.1588,-4.1588,-4.1588,-4.1835,-4.2206,-4.2459,-4.2818,-4.3169,-4.3823,-4.4259,-4.4502,-4.4502,-4.4521,-4.459,0.0,0.0,0.0,0.0,0.0,0.0,0.0,0.0,0.0,0.0,0.1617,0.1617,0.1617,0.0909,0.0404,0.0404,0.0202,-0.0202,-0.0806,-0.1013,-0.1431,-0.2073,-0.2932,-0.339,-0.3435,-0.3492,-0.3522,-0.3522,-0.3565,-0.4257,-0.5371,-0.5371,-0.6146,-0.7584,-0.7584,-0.8251,-0.9364,-0.9364,-0.9915,-1.0692,-1.0692,-1.0692,-1.0692,-1.1017,-1.2413,-1.4024,-1.3166,-1.3814,-1.5102,-1.5102,-1.5755,-1.6505,-1.6605,-1.741,-1.8316,-1.7872,-1.8265,-1.8822,-1.9423,-2.0682,-2.2037,-2.2802,-2.3746,-2.4443,-2.457,-2.4775,-2.5257,-2.6094,-2.648,-2.6923,-2.7643,-2.801,-2.8177,-2.8177,-2.9003,-2.9624,-2.9883,-3.0745,-3.1688,-3.2344,-3.2707,-3.3056,-3.3215,-3.3215,-3.3628,-3.4634,-3.4881,-3.5209,-3.5884,-3.6232,-3.647,-3.6707,-3.7457,-3.8127,-3.8634,-3.9307,-3.995,-4.0799,-4.0919,-4.1189,-4.1588,-4.1588,-4.1588,-4.1588,-4.1588,-4.1964,-4.2585,-4.2585,-4.2941,-4.3571,-4.4259,-4.4502,-4.4558,-4.4872,-4.5266,-4.5701,0.0,0.0,0.0,0.0,0.0,0.0,0.0,0.0,0.0,0.0,0.0,0.0,0.0,0.0909,0.0404,0.0404,-0.0303,-0.0806,-0.0806,-0.1641,-0.2073,-0.2074,-0.3001,-0.3492,-0.3493,-0.3553,-0.3585,-0.3585,-0.3587,-0.4257,-0.5371,-0.5371,-0.6591,-0.8813,-0.8813,-0.9475,-1.0692,-1.0692,-1.0692,-1.0692,-1.0692,-1.0692,-1.0798,-1.1878,-1.3058,-1.4132,-1.4024,-1.553,-1.7582,-1.7799,-1.7911,-1.8016,-1.8213,-1.833,-1.8404,-1.8389,-1.9032,-1.9828,-1.991,-2.1353,-2.299,-2.299,-2.3746,-2.4531,-2.4951,-2.5865,-2.662,-2.7055,-2.7985,-2.8637,-2.8637,-2.9465,-3.0124,-3.0124,-3.0956,-3.1877,-3.2488,-3.2587,-3.2859,-3.3615,-3.3615,-3.3966,-3.4551,-3.4634,-3.4634,-3.4716,-3.5304,-3.5884,-3.6312,-3.6405,-3.6786,-3.7548,-3.8188,-3.8634,-3.9104,-4.0161,-4.0799,-4.0799,-4.1323,-4.1588,-4.1588,-4.1588,-4.1588,-4.1588,-4.1588,-4.1964,-4.2585,-4.2585,-4.2941,-4.3571,-4.4259,-4.4502,-4.4597,-4.5768,-4.6137,-4.6235,0.0,0.0,0.0,0.0,0.0,0.0,0.0,0.0,0.0,0.0,0.0,0.0,0.0,0.0,0.0,0.0,-0.1412,-0.1815,-0.2321,-0.2258,-0.2398,-0.2957,-0.3346,-0.3515,-0.3556,-0.3576,-0.3587,-0.3587,-0.4369,-0.5369,-0.6589,-0.7368,-0.8589,-1.0139,-1.0139,-1.0359,-1.0692,-1.0692,-1.0692,-1.0802,-1.1555,-1.1337,-1.0907,-1.2847,-1.3814,-1.4245,0.0,-1.6505,-1.7911,-1.8016,-1.8122,-1.8325,-1.8422,-1.8575,-1.8868,-1.9542,-1.9983,-2.0565,-2.1924,-2.2991,-2.3888,-2.4592,-2.4996,-2.5513,-2.629,-2.6783,-2.7379,-2.8925,-2.9418,-2.9886,-3.0543,-3.1003,-3.1193,-3.1193,-3.1825,-3.245,-3.2636,-3.3043,-3.3628,-3.4301,-3.4384,-3.4634,-3.5304,-3.4964,-3.4881,-3.5304,-3.5884,-3.6232,-3.6405,-3.7289,-3.7734,-3.761,-3.8752,-3.9478,-3.9636,-4.0439,-4.0799,-4.0799,-4.0987,-4.1256,-4.1588,-4.1256,-4.1256,-4.1588,-4.1189,-4.1623,-4.2585,-4.2585,-4.2694,-4.2986,-4.4071,-4.4259,-4.4095,-4.595,-4.6678,-4.6753,0.0,0.0,0.0,0.0,0.0,0.0,0.0,0.0,0.0,0.0,0.0,0.0,0.0,0.0,0.0,0.0,0.0,-0.265,-0.3161,-0.2816,-0.2869,-0.344,-0.3497,-0.3548,-0.3587,-0.4033,-0.4257,-0.4257,-0.5481,-0.6589,-0.7808,-0.8585,-0.9585,-1.0692,-1.0692,-1.0692,-1.0692,-1.1122,-1.1341,-1.1446,-1.2635,-1.2743,-1.2309,-1.4239,-1.499,0.0,-1.6605,-1.7582,-1.8338,-1.8338,-1.8443,-1.8646,-1.8639,-1.916,-1.9738,-2.0413,-2.1137,-2.2025,-2.3401,-2.4198,-2.4903,-2.5984,-2.6284,-2.6466,-2.7474,-2.8028,-2.868,-2.9886,-3.0453,-3.0913,-3.1572,-3.1661,-3.1661,-3.1661,-3.2101,-3.2537,-3.297,-3.3471,-3.405,-3.4964,-3.5046,-3.5304,-3.5884,-3.5562,-3.5467,-3.5884,-3.6232,-3.6549,-3.6772,-3.7886,-3.8412,-3.8127,-3.9478,-4.02,-4.02,-4.0578,-4.0799,-4.0799,-4.0799,-4.0987,-4.1323,-4.0935,-4.1003,-4.1323,-4.0919,-4.1491,-4.2585,-4.2333,-4.2396,-4.271,-4.3722,-4.3881,-4.3773,-4.6063,-4.6908,-4.7026,0.0,0.0,0.0,0.0,0.0,0.0,0.0,0.0,0.0,0.0,0.0,0.0,0.0,0.0,0.0,0.0,0.0,0.0,-0.3322,-0.3428,-0.3493,-0.3496,-0.3555,-0.3587,-0.3587,-0.4704,-0.5371,-0.5371,-0.6589,-0.7695,-0.892,-0.8923,-0.9585,-1.0692,-1.0802,-1.0798,-1.0907,-1.1982,-1.2521,-1.263,-1.4143,-1.468,-1.4787,-1.6274,-1.6704,-1.681,-1.7996,-1.8646,-1.8869,-1.8869,-1.8974,-1.9078,-1.9279,-2.0078,-2.0979,-2.1089,-2.2584,-2.4187,-2.4285,-2.5001,-2.61,-2.701,-2.7284,-2.7558,-2.8588,-2.951,-3.017,-3.026,-3.1003,-3.1661,-3.1661,-3.1749,-3.1749,-3.1749,-3.1837,-3.2264,-3.3543,-3.3797,-3.4301,-3.5548,-3.571,-3.5884,-3.6325,-3.6405,-3.647,-3.647,-3.647,-3.685,-3.7625,-3.8248,-3.8708,-3.9104,-4.0191,-4.0777,-4.0777,-4.0808,-4.0892,-4.0892,-4.0861,-4.0845,-4.0845,-4.0746,-4.073,-4.0799,-4.0799,-4.1425,-4.2459,-4.1835,-4.1964,-4.2569,-4.3213,-4.3512,-4.3773,-4.6063,-4.6908,-4.7053,0.0,0.0,0.0,0.0,0.0,0.0,0.0,0.0,0.0,0.0,0.0,0.0,0.0,0.0,0.0,0.0,0.0,0.0,-0.3319,-0.3392,-0.3452,-0.3495,-0.3555,-0.3587,-0.3587,-0.3923,-0.448,-0.5371,-0.6589,-0.7695,-0.8923,-0.9809,-1.0359,-1.0692,-1.1555,-1.1987,-1.2091,-1.3496,-1.4035,-1.4143,-1.5636,-1.5636,-1.5097,-1.7134,-1.745,-1.6916,-1.8318,-1.8869,-1.8869,-1.8869,-1.9576,-2.038,-2.0483,-2.1183,-2.2291,-2.3094,-2.415,-2.5412,-2.6214,-2.7179,-2.8038,-2.8215,-2.8308,-2.8588,-2.9612,-2.9977,-3.0441,-3.1193,-3.1472,-3.1661,-3.1661,-3.2101,-3.245,-3.245,-3.3288,-3.4037,-3.4384,-3.4881,-3.5304,-3.5629,-3.5978,-3.6232,-3.6405,-3.6693,-3.7134,-3.7886,-3.7947,-3.8023,-3.8263,-3.9118,-3.9421,-3.9104,-4.0277,-4.0679,-4.0214,-4.1149,-4.1843,-4.2302,-4.1367,-4.1177,-4.1496,-4.0163,-4.0021,-4.0799,-4.0339,-4.0547,-4.1307,-4.1522,-4.1456,-4.1425,-4.2892,-4.3512,-4.3773,-4.6063,-4.6908,-4.7142,0.0,0.0,0.0,0.0,0.0,0.0,0.0,0.0,0.0,0.0,0.0,0.0,0.0,0.0,0.0,0.0,0.0,0.0,0.0,-0.3379,-0.3437,-0.3493,-0.3529,-0.356,-0.3587,-0.4145,-0.4704,-0.5371,-0.7033,-0.8251,-0.8923,-1.0139,-1.1017,-1.1664,-1.2309,-1.2955,-1.3593,-1.4995,-1.553,0.0,0.0,-1.7246,-1.6817,-1.8311,-1.8422,-1.7989,-1.875,-1.9376,-1.9783,-1.9783,-2.0285,-2.0885,-2.0885,-2.1988,-2.3285,-2.389,-2.5139,-2.6386,-2.7084,-2.7934,-2.8773,-2.9235,-2.9326,-2.9612,-3.0633,-3.0824,-3.1003,-3.1572,-3.1661,-3.1661,-3.1661,-3.2276,-3.2711,-3.2711,-3.3556,-3.4384,-3.4634,-3.5046,-3.5467,-3.5978,-3.6232,-3.6549,-3.685,-3.7366,-3.7886,-3.8323,-3.8188,-3.8263,-3.8708,-3.9277,-3.9556,-3.9491,-4.0377,-4.0781,-4.0471,-4.113,-4.1685,-4.2012,-4.1338,-4.1157,-4.1404,-4.039,-4.0247,-4.08,0.0,-4.0409,-4.1122,-4.1189,-4.1189,-4.1323,-4.2892,-4.3656,-4.4125,-4.6161,-4.7026,-4.7428,0.0,0.0,0.0,0.0,0.0,0.0,0.0,0.0,0.0,0.0,0.1111,0.0,0.0,0.0,0.0,0.0,0.0,0.0,0.0,0.0,-0.3425,-0.3484,-0.3492,-0.3521,-0.3574,-0.4808,-0.5483,-0.5592,-0.7811,-0.903,-0.9251,-1.0249,-1.145,-1.2635,-1.296,-1.3814,-1.5097,-1.638,-1.7022,-1.7134,-1.8429,-1.8974,-1.8974,0.0,-1.9279,-1.9279,-1.9279,-1.9879,-2.0688,-2.0885,-2.1089,-2.1285,-2.1285,-2.2693,-2.4295,-2.4295,-2.5644,-2.7189,-2.7369,-2.8121,-2.9143,-3.017,-3.0362,-3.0633,-3.1472,-3.1661,-3.1661,-3.1661,-3.1661,-3.1661,-3.1661,-3.2276,-3.2711,-3.2797,-3.3386,-3.405,-3.4716,-3.4881,-3.5304,-3.6312,-3.647,-3.685,-3.7534,-3.8113,-3.8397,-3.8352,-3.7915,-3.8066,-3.9031,-3.9104,-3.9343,-3.9979,-4.0636,-4.101,-4.1148,-4.1225,-4.1302,-4.1288,-4.1213,-4.1092,-4.1154,-4.0935,-4.0855,-4.0882,-4.0187,-4.0532,-4.1449,-4.0966,-4.1055,-4.1638,-4.2953,-4.3814,-4.4427,-4.6257,-4.716,-4.7679,0.0,0.0,0.0,0.0,0.0,0.0,0.0,0.0,0.0,0.0,0.0909,0.0404,0.0,0.0,0.0,0.0,0.0,0.0,0.0,0.0,0.0,-0.3424,-0.3471,-0.3501,-0.3512,-0.4779,-0.5813,-0.6808,-0.8254,-0.9475,-1.0688,-1.0907,-1.1345,-1.1891,-1.3825,-1.4793,-1.5114,-1.747,-1.8541,-1.8541,-1.9071,-1.9279,-1.9279,-1.9279,0.0,0.0,-1.9279,-1.9376,-1.968,-2.0585,-2.2089,-2.3592,-2.3592,-2.4402,-2.543,-2.543,-2.6264,-2.7369,-2.8204,-2.9143,-3.017,-3.1193,-3.1472,-3.1472,-3.1661,-3.1661,-3.1661,-3.1661,-3.1661,-3.1661,-3.1661,-3.2276,-3.2884,-3.3471,-3.405,-3.4799,-3.5467,-3.5884,-3.6152,-3.6405,-3.7007,-3.7471,-3.7625,-3.7976,-3.8427,-3.8885,-3.8427,-3.8352,-3.9031,-3.9104,-3.9417,-4.0042,-4.0704,-4.1317,-4.1907,-4.2429,-4.2654,-4.2654,-4.2104,-4.1852,-4.1822,-4.069,-4.0551,-4.0979,-4.0293,0.0,-4.101,-4.0878,-4.0851,-4.1122,-4.2831,-4.3555,-4.393,-4.6112,-4.6954,-4.7255,0.0,0.0,0.0,0.0,0.0,0.0,0.0,0.1617,0.1617,0.1617,0.1313,0.0909,0.0404,-0.0706,-0.1513,0.0,0.0,0.0,0.0,0.0,0.0,0.0,0.0,0.0,-0.3496,-0.4772,-0.5704,-0.6255,0.0,-0.9471,-1.0245,-1.1017,-1.1891,-1.2753,-1.383,-1.512,-1.6405,-1.7687,-1.8548,-1.9071,-1.9279,-1.9279,-1.9279,0.0,0.0,0.0,-1.9071,-1.9583,-2.0285,-2.1387,-2.2793,-2.4088,-2.4088,-2.4815,-2.5742,-2.5742,-2.637,-2.7284,-2.7746,-2.905,-3.0351,-3.0824,-3.1294,-3.1661,-3.1661,-3.1661,-3.1661,-3.1661,-3.1661,-3.1661,-3.1661,-3.2276,-3.2797,-3.3142,-3.405,-3.4868,-3.5426,-3.6045,-3.6549,-3.6929,-3.7394,-3.7687,-3.7915,-3.8352,-3.8649,-3.8649,-3.8649,-3.8797,-3.9104,-3.9431,-3.9934,-4.0583,-4.1265,-4.1773,-4.2092,-4.2392,-4.2541,-4.2541,-4.2232,-4.2085,-4.2056,-4.138,-4.1229,-4.1418,-4.0766,-4.0651,-4.0921,-4.0888,-4.1009,-4.1459,-4.2953,-4.3872,-4.461,-4.6275,-4.7026,-4.747,0.0,0.0,0.0,0.0,0.0,0.0,0.0,0.1617,0.1617,0.1617,0.1617,0.1314,0.0707,-0.0101,-0.0908,0.0,0.0,0.0,0.0,0.0,0.0,0.0,0.0,0.0,-0.3694,0.0,0.0,-0.6035,-0.8582,0.0,0.0,0.0,0.0,0.0,-1.3938,-1.5328,-1.7259,-1.7793,-1.8429,0.0,0.0,-1.9279,0.0,0.0,0.0,0.0,0.0,-2.0078,-2.0987,-2.2089,-2.2885,-2.3484,-2.3692,-2.4609,-2.5742,-2.5742,-2.6284,-2.6914,-2.7094,-2.8402,-2.9601,-2.9795,-3.0633,-3.1282,-3.1104,-3.1193,-3.1282,-3.1104,-3.1193,-3.1383,-3.1383,-3.2001,-3.245,-3.2351,-3.3445,-3.4358,-3.4719,-3.5669,-3.6522,-3.7211,-3.7534,-3.7839,-3.8202,-3.8649,-3.8723,-3.8202,-3.8781,-3.9092,-3.9092,-3.9711,-4.0408,-4.1076,-4.1744,-4.2092,-4.2092,-4.1912,-4.1912,-4.2092,-4.1897,-4.1912,-4.2078,-4.2012,-4.1922,-4.1877,-4.1307,-4.1024,0.0,-4.0925,-4.1202,-4.182,-4.2998,-4.4028,-4.4971,-4.6371,-4.7115,-4.7614,0.0,0.0,0.0,0.0,0.0,0.0,0.0,0.1617,0.1617,0.1617,0.1617,0.1617,0.1516,0.0808,-0.0,0.0,0.0,0.0,0.0,0.0,0.0,0.0,0.0,0.0,0.0,0.0,0.0,-0.8247,-1.0347,0.0,0.0,0.0,0.0,0.0,0.0,-1.5861,-1.618,-1.8318,0.0,0.0,0.0,0.0,0.0,0.0,0.0,0.0,0.0,-2.1285,-2.068,-2.1785,-2.1684,-2.1387,-2.2391,-2.4007,-2.5742,-2.5742,-2.5732,-2.6004,-2.6914,-2.7369,-2.7652,-2.8588,-2.9601,-3.0079,-2.9143,-2.9704,-3.0079,-2.9143,-2.9704,-3.0351,-3.0351,-3.1092,-3.1737,-3.1412,-3.2227,-3.2859,-3.2845,-3.4706,-3.6149,-3.6387,-3.7414,-3.8127,-3.8202,-3.8277,-3.8277,-3.8202,-3.8844,-3.9193,-3.9193,-3.9741,-4.0408,-4.1076,-4.1744,-4.2092,-4.2092,-4.1156,-4.1156,-4.2092,-4.1156,-4.1254,-4.2092,-4.2117,-4.2087,-4.2044,-4.1375,-4.1322,0.0,-4.1122,-4.1163,-4.1769,-4.3031,-4.3555,-4.393,-4.6112,-4.6954,-4.7142,0.0,0.0,0.0,0.0,0.0,0.0,0.1617,0.1617,0.1617,0.1617,0.1617,0.1516,0.1111,0.1111,0.0606,-0.0706,0.0,0.0,0.0,0.0,0.0,0.0,0.0,0.0,0.0,0.0,-0.6697,-0.7692,-0.9467,0.0,0.0,0.0,0.0,0.0,0.0,-1.5322,-1.6711,-1.7463,0.0,0.0,0.0,0.0,0.0,0.0,0.0,0.0,0.0,0.0,-2.0783,-2.1183,-2.1183,-2.1089,-2.219,-2.3493,-2.4707,-2.4707,-2.5216,-2.583,-2.6187,-2.6733,-2.7463,-2.8495,-2.8958,-2.9326,-2.9521,-2.9418,-2.9231,-2.9063,-2.941,-2.9967,-3.0844,-3.1379,-3.176,-3.1908,-3.2665,-3.3146,-3.3006,-3.4306,-3.5561,-3.6373,-3.7014,-3.7644,-3.8127,-3.8202,-3.7962,-3.7491,-3.8075,-3.8603,-3.9002,-4.0112,-4.1004,-4.1671,-4.1961,-4.1814,-4.1156,-4.0788,-4.0788,-4.1156,-4.0774,-4.1156,-4.2092,-4.2092,-4.2092,-4.2092,-4.1816,-4.1317,0.0,-4.1265,-4.1361,-4.1346,-4.2876,-4.3764,-4.4339,-4.6178,-4.6908,-4.7053,0.0,0.0,0.0,0.0,0.0,0.1415,0.1617,0.1415,0.1314,0.1314,0.1516,0.1415,0.0808,0.1313,0.1111,-0.0202,-0.1816,0.0,0.0,0.0,0.0,0.0,0.0,0.0,0.0,0.0,-0.6144,-0.747,-0.8913,-1.0131,0.0,0.0,-1.254,-1.3619,0.0,0.0,0.0,0.0,0.0,0.0,0.0,0.0,0.0,0.0,0.0,0.0,0.0,0.0,0.0,0.0,0.0,-2.0779,-2.1601,-2.2511,-2.3485,-2.3954,-2.4815,-2.5742,-2.5742,-2.6187,-2.6924,-2.7673,-2.8038,-2.8434,-2.8959,-2.8722,-2.8475,-2.8581,-2.887,-2.9354,-3.0466,-3.0919,-3.1201,-3.1343,-3.1887,-3.216,-3.1805,-3.2821,-3.3991,-3.5238,-3.5828,-3.6489,-3.7309,-3.74,-3.724,-3.6795,-3.7365,-3.8072,-3.8699,-3.9912,-4.0881,-4.1619,-4.1633,-4.117,-4.0173,-3.9899,-4.0073,-4.0603,-4.0332,-4.0887,-4.2092,-4.1814,-4.1633,-4.1633,-4.1633,-4.0968,0.0,-4.1309,-4.1449,-4.108,-4.2798,-4.3764,-4.4412,-4.6067,-4.6771,-4.7071,0.0,0.0,0.0,0.0,0.0,0.0,0.1516,0.1111,0.0808,0.0808,0.1313,0.1415,0.0808,0.1313,0.1415,0.0808,-0.0706,0.0,0.0,0.0,0.0,0.0,0.0,0.0,0.0,0.0,-0.6697,-0.8468,-0.9354,-1.046,-1.1568,-1.1568,-1.2214,-1.3398,0.0,0.0,0.0,0.0,0.0,0.0,0.0,0.0,0.0,0.0,0.0,0.0,0.0,0.0,0.0,0.0,0.0,0.0,0.0,-2.0962,-2.2086,-2.3616,-2.4815,-2.5742,-2.5742,-2.5732,-2.5742,-2.5732,-2.6466,-2.7037,-2.6567,-2.7249,-2.7754,-2.7117,-2.7794,-2.8476,-2.8487,-2.937,-2.9655,-2.8676,-2.8966,-2.9126,-2.8347,-2.9723,-3.1168,-3.2401,-3.352,-3.4571,-3.5534,-3.5615,-3.5873,-3.6497,-3.7094,0.0,-3.8274,-3.8871,-3.9637,-4.0603,-4.0603,-4.0159,-3.9197,-3.8328,-3.8765,-4.0603,-3.9637,-4.0201,-4.2092,-4.1057,-4.0603,-4.0603,-4.0603,-4.0221,0.0,-4.1219,-4.1438,-4.0987,-4.2769,-4.3495,-4.3731,-4.5511,-4.6507,-4.6954,0.0,0.0,0.0,0.0,0.0,0.0,0.0,0.101,0.1314,0.1314,0.1516,0.1415,0.0808,0.0909,0.101,0.0808,-0.0,0.0,0.0,0.0,0.0,0.0,0.0,0.0,0.0,-0.4074,-0.5365,-0.7581,-0.7802,-0.902,-1.1021,-1.1131,-1.2318,-1.4148,-1.4578,-1.5761,0.0,0.0,0.0,0.0,0.0,0.0,-1.7898,0.0,0.0,0.0,0.0,0.0,0.0,0.0,0.0,0.0,0.0,0.0,0.0,-2.2388,-2.3876,-2.534,-2.534,-2.5967,-2.6702,-2.7481,-2.7381,-2.7222,-2.7762,-2.7603,-2.733,-2.7476,-2.7762,-2.8244,-2.924,-2.9703,-2.9997,-3.0092,-3.0208,-3.0079,-2.9308,-2.9802,-3.056,-3.1428,-3.2536,-3.3804,-3.544,-3.4502,-3.4263,-3.5495,-3.6161,-3.6743,-3.7352,-3.8532,-3.9373,-3.9637,-3.9637,-3.921,-3.8251,-3.7991,-3.8069,-3.8675,-3.8419,-3.8868,-4.01,-3.9826,-3.9637,-3.9637,-4.0332,-3.9985,0.0,-4.0621,-4.0842,-4.0324,-4.1723,-4.2737,-4.3672,-4.5022,-4.6112,-4.6954,0.0,0.0,0.0,0.0,0.0,0.0,0.0,0.0909,0.1111,0.0505,0.0606,0.0606,0.0202,0.0202,0.0202,0.0202,0.0404,0.0,0.0,0.0,0.0,0.0,0.0,0.0,-0.3444,-0.3978,-0.5256,-0.7138,-0.7584,-0.8803,-1.0692,-1.0911,-1.2205,-1.4358,-1.4358,-1.5648,0.0,0.0,0.0,0.0,0.0,0.0,-1.7595,0.0,0.0,0.0,0.0,0.0,0.0,0.0,0.0,0.0,0.0,0.0,0.0,0.0,-2.2852,-2.4401,-2.4535,-2.5099,-2.5834,-2.6423,-2.6125,-2.5872,-2.6624,-2.6691,-2.674,-2.716,-2.7574,-2.819,-2.9167,-2.9313,-2.9431,-2.9766,-2.9772,-2.9394,-2.8921,-2.8946,-2.9299,-3.0068,-3.1104,-3.2216,-3.3487,-3.3007,-3.3208,-3.4426,-3.4984,-3.5736,-3.6715,-3.7299,-3.7547,-3.7547,-3.8302,-3.8238,-3.7268,-3.7268,-3.7453,-3.7808,-3.7808,-3.8043,-3.8608,-3.8662,-3.8469,-3.8145,-3.9289,-3.8916,0.0,-3.9784,-4.0144,-3.9546,-4.0899,-4.2283,-4.3614,-4.4316,-4.5594,-4.6954,0.0,0.0,0.0,0.0,0.0,0.0,0.0,0.0707,0.0101,-0.1414,-0.1212,-0.0808,-0.0806,-0.0806,-0.0806,-0.0806,0.0,0.0,0.0,0.0,0.0,0.0,0.0,0.0,-0.3604,-0.4882,-0.6035,-0.7252,-0.8364,-0.9475,-1.0692,-1.0692,-1.1878,-1.4132,-1.4132,-1.5423,0.0,0.0,0.0,0.0,-1.7582,-1.7582,0.0,0.0,0.0,0.0,0.0,0.0,0.0,0.0,0.0,0.0,0.0,0.0,0.0,0.0,0.0,0.0,0.0,-2.3496,-2.3602,-2.3602,-2.3602,-2.3687,-2.4028,-2.4986,0.0,-2.6336,-2.7295,-2.8184,-2.8067,-2.8067,-2.8184,-2.8184,-2.7853,-2.7643,-2.7459,-2.7292,-2.7513,-2.8592,-2.9452,-3.0079,-3.017,-3.1427,-3.2496,-3.3152,-3.3599,-3.452,-3.6131,-3.5271,-3.469,-3.469,-3.6483,-3.707,-3.6156,-3.6263,-3.6709,-3.7625,-3.7625,-3.756,-3.7443,-3.7521,-3.6954,0.0,-3.7497,0.0,0.0,-3.8824,-3.9358,-3.8839,-4.027,-4.1933,-4.3495,-4.3573,-4.4989,-4.6863,0.0,0.0,0.0,0.0,0.0,0.0,0.0,0.0,0.0,0.0,-0.1513,-0.121,-0.0806,-0.0806,-0.0806,0.0,0.0,0.0,0.0,0.0,0.0,0.0,0.0,0.0,-0.4907,-0.609,-0.7254,-0.8475,-0.8809,-0.9475,-1.0692,-1.0692,-1.1878,-1.4132,-1.4132,-1.5423,0.0,0.0,0.0,0.0,-1.7582,-1.7582,0.0,0.0,0.0,0.0,-1.9129,-1.9521,0.0,0.0,0.0,0.0,0.0,0.0,0.0,0.0,-2.1432,-2.1616,-2.1684,0.0,-2.4461,-2.4461,-2.4461,-2.4487,0.0,-2.4818,-2.4954,-2.5151,-2.6063,-2.6626,-2.5726,-2.6291,-2.6961,-2.6961,-2.6976,-2.7189,-2.761,-2.7435,-2.7651,-2.8549,-2.8269,-2.8538,-3.0079,-3.0167,-3.0665,-3.2018,-3.2541,-3.3161,-3.3859,-3.3697,-3.3598,-3.3598,-3.4068,-3.4166,-3.3981,-3.4787,-3.5271,-3.5534,-3.5534,-3.5522,-3.5485,-3.5104,-3.4731,-3.4588,-3.6044,0.0,-3.6491,-3.7812,-3.8833,-3.9647,-3.9999,-4.1496,-4.3495,-4.3538,-4.4753,-4.6411,0.0,0.0,0.0,0.0,0.0,0.0,0.0,0.0,0.0,0.0,0.0,-0.1815,-0.1916,-0.1916,0.0,0.0,0.0,0.0,0.0,0.0,0.0,0.0,0.0,-0.5268,-0.5294,-0.7,-0.8251,-0.892,-0.9475,-1.0029,-1.0692,-1.1232,-1.2413,-1.4137,-1.5209,-1.6393,0.0,0.0,0.0,-1.7582,-1.7582,0.0,0.0,0.0,0.0,0.0,-1.9199,-1.9456,0.0,-2.0155,-2.0378,-2.0608,0.0,0.0,0.0,0.0,-2.1211,-2.1211,-2.1211,-2.2085,-2.3079,-2.3079,-2.3079,-2.3079,-2.3079,-2.3519,-2.3958,-2.3958,-2.4846,-2.5507,-2.4837,-2.5693,-2.6298,-2.5936,-2.6733,-2.7214,-2.697,-2.63,-2.6157,-2.72,-2.6849,-2.7125,0.0,-2.9255,-2.9829,-3.0656,-3.1341,-3.2067,-3.2833,-3.2576,-3.2387,-3.2151,-3.2151,-3.2463,-3.3201,-3.3796,-3.3974,-3.3726,-3.3726,-3.3402,-3.2661,-3.2887,-3.2948,-3.3019,-3.436,0.0,-3.6026,-3.7049,-3.8193,-3.9346,-3.9478,-4.1013,-4.3092,-4.312,-4.4277,-4.5933,0.0,0.0,0.0,0.0,0.0,0.0,0.0,0.0,0.0,0.0,0.0,0.0,0.0,0.0,0.0,0.0,0.0,0.0,0.0,0.0,0.0,0.0,-0.4786,-0.5506,-0.5699,-0.7922,-0.914,-0.914,-1.0249,-1.0692,-1.0692,-1.1664,-1.2847,-1.4239,-1.6505,-1.7582,-1.7582,-1.7582,-1.7582,-1.7582,-1.7582,0.0,0.0,0.0,0.0,0.0,0.0,0.0,0.0,-1.9707,-2.004,-2.0385,-2.0608,0.0,0.0,0.0,0.0,0.0,-2.1211,-2.1211,-2.1211,-2.1211,-2.1211,-2.1211,-2.1211,-2.1979,-2.2757,-2.2757,-2.3631,-2.4378,-2.4429,-2.5297,-2.5952,-2.5413,-2.6646,-2.7372,-2.6367,-2.5239,-2.4884,-2.5596,-2.579,-2.6284,-2.6965,-2.8413,-2.9254,-2.9254,-3.0057,-3.0943,-3.183,-3.1439,-3.0969,-3.0556,-3.0545,-3.1141,-3.2463,-3.2662,-3.2544,-3.2122,-3.2122,-3.1495,-3.0219,-3.1021,-3.1464,-3.1631,0.0,0.0,-3.5363,-3.6328,-3.7558,-3.8796,-3.9118,-4.0585,-4.2632,-4.2782,-4.3887,-4.5459,0.0,0.0,0.0,0.0,0.0,0.0,0.0,0.0,0.0,0.0,0.0,0.0,0.0,0.0,0.0,0.0,0.0,0.0,0.0,0.0,0.0,-0.3406,-0.5525,-0.6794,-0.6803,-0.9247,-1.0472,-1.0472,-1.0582,-1.0692,-1.0692,-1.0907,-1.2091,-1.4239,-1.6505,-1.7582,-1.7582,-1.7582,-1.7582,-1.7582,-1.7582,0.0,0.0,0.0,0.0,0.0,0.0,0.0,0.0,-1.9707,-2.004,-2.0385,-2.0608,0.0,0.0,0.0,0.0,0.0,-2.1211,-2.1211,-2.1211,-2.1211,-2.1211,-2.1211,-2.1211,-2.1318,-2.1432,-2.1432,-2.2425,-2.3215,-2.3019,-2.4259,-2.5441,-2.5792,-2.6859,-2.7527,-2.7631,-2.7145,-2.6572,-2.579,-2.6476,-2.6764,-2.5984,-2.7258,-2.8108,-2.8108,-2.8609,-2.9,-2.92,-2.9074,-2.8984,-2.8911,-2.8901,-2.9042,-2.9305,-3.0166,-3.0601,-3.0524,-3.0524,-3.0383,-3.0208,-2.9921,-3.0197,-3.0985,0.0,-3.3338,-3.5589,-3.5736,-3.73,-3.9733,-3.9763,-4.0894,-4.2632,-4.3213,-4.3963,-4.502,0.0,0.0,0.0,0.0,0.0,0.0,0.0,0.0,0.0,0.0,0.0,0.0,0.0,0.0,0.0,0.0,0.0,0.0,0.0,0.0,-0.3591,-0.4357,-0.6052,-0.7009,-0.7133,-0.9467,-1.0692,-1.0692,-1.0692,-1.0692,-1.0692,-1.1987,-1.3063,-1.4137,-1.5861,-1.6287,-1.5749,-1.6399,-1.6717,-1.6717,0.0,0.0,0.0,0.0,0.0,0.0,0.0,0.0,0.0,0.0,-1.9931,-2.027,-2.05,0.0,0.0,0.0,0.0,0.0,-2.1211,-2.1211,-2.1167,-2.0991,-2.0947,-2.0947,-2.0947,-2.1242,-2.1382,-2.1016,-2.1818,-2.2641,-2.2694,-2.3812,-2.5135,-2.6496,-2.6299,-2.6151,-2.6613,-2.6093,-2.5577,-2.5693,0.0,-2.5877,-2.6476,-2.6657,-2.6972,-2.7562,-2.7986,-2.8245,-2.8245,-2.8473,-2.8504,-2.8245,-2.8245,-2.8121,-2.7883,-2.8433,-2.8742,-2.8987,-2.8987,-2.8859,-2.8615,-2.8508,-2.8958,-2.9939,0.0,-3.2438,-3.4459,-3.5386,-3.6944,-3.884,-3.9591,-4.0585,-4.1803,-4.3164,-4.4589,-4.595,0.0,0.0,0.0,0.0,0.0,0.0,0.0,0.0,0.0,0.0,0.0,0.0,0.0,0.0,0.0,0.0,0.0,0.0,0.0,-0.323,-0.3794,-0.5092,-0.6368,-0.7116,-0.7467,-0.9581,-1.0692,-1.0692,-1.0692,-1.0692,-1.0692,-1.2738,-1.3706,-1.3701,-1.4995,-1.4995,-1.4132,-1.5108,-1.5642,-1.5968,0.0,0.0,0.0,0.0,0.0,0.0,0.0,0.0,0.0,0.0,0.0,0.0,0.0,0.0,0.0,-2.0737,-2.0737,-2.0852,-2.1096,-2.1211,-2.1152,-2.0896,-2.0837,-2.0794,-2.064,-2.1118,-2.1355,-2.0678,-2.1467,-2.2299,-2.2546,-2.3694,-2.5117,-2.6814,-2.6016,-2.5452,-2.6033,-2.5382,-2.508,-2.5596,-2.4992,-2.508,-2.6774,-2.6187,-2.6177,-2.7262,-2.7572,-2.7769,-2.7769,-2.81,-2.8131,-2.7779,-2.7769,-2.7603,-2.7262,-2.7357,-2.7523,-2.7769,-2.7769,-2.7689,-2.7357,-2.7809,-2.8538,-2.9624,-3.0944,-3.2426,-3.4139,-3.5628,-3.7049,-3.8324,-3.9448,-4.0585,-4.1706,-4.3386,-4.5252,-4.6918,0.0,0.0,0.0,0.0,0.0,0.0,0.0,0.0,0.0,0.0,0.0,0.0,0.0,0.0,0.0,0.0,0.0,0.0,0.0,-0.323,-0.3794,-0.5092,-0.6368,-0.7547,-0.8692,-1.0029,-1.0692,-1.0692,-1.0692,-1.0692,-1.0692,-1.1987,-1.2521,-1.2521,-1.3706,-1.4137,-1.4137,-1.4239,-1.4888,-1.5861,-1.5968,0.0,0.0,0.0,0.0,0.0,0.0,0.0,0.0,0.0,0.0,0.0,0.0,0.0,-1.9441,-1.9441,-1.9441,-1.9679,-2.0859,-2.1211,-2.1203,-2.1181,-2.1174,-2.1013,-2.0413,-2.0486,-2.0715,-2.0325,-2.1325,-2.2175,-2.2273,-2.4043,-2.5791,-2.6339,-2.6875,-2.7102,-2.7167,-2.7156,-2.6764,-2.579,-2.5596,-2.5693,-2.579,-2.579,-2.6177,-2.7262,-2.7293,-2.7303,-2.7303,-2.7345,-2.7345,-2.7303,-2.7303,-2.7293,-2.7262,-2.7452,-2.7462,-2.7314,-2.7494,-2.7578,-2.7631,-2.8784,-2.9784,-3.089,-3.2537,-3.4406,-3.6136,-3.6816,-3.7965,-3.9364,-3.9763,-4.1365,-4.358,-4.4135,-4.5612,-4.7385,0.0,0.0,0.0,0.0,0.0,0.0,0.0,0.0,0.0,0.0,0.0,0.0,0.0,0.0,0.0,0.0,0.0,0.0,0.0,-0.323,-0.4099,-0.6253,-0.6793,-0.7974,-1.0021,-1.0472,-1.0692,-1.0692,-1.0692,-1.0692,-1.0692,-1.1878,-1.1982,-1.1341,-1.2521,-1.263,-1.1987,-1.2738,-1.3275,-1.3814,-1.446,-1.5535,0.0,0.0,0.0,0.0,0.0,0.0,0.0,0.0,-1.9931,-2.0155,-1.91,-1.8978,-1.9325,-1.9325,-1.9325,-1.9557,-2.0852,-2.1057,-2.0859,-2.0655,-2.0603,-2.0537,-2.05,-2.075,-2.0984,-2.0552,-2.1412,-2.22,-2.247,-2.4263,-2.5752,-2.5918,-2.6693,-2.7262,-2.7262,-2.7262,-2.7156,-2.6764,-2.6081,-2.5984,-2.6668,-2.6081,-2.6177,-2.7262,-2.7262,-2.7262,-2.7262,-2.7262,-2.7262,-2.7262,-2.7452,-2.7452,-2.7452,-2.7726,-2.7809,-2.7715,-2.7809,-2.7809,-2.7904,-2.9073,-2.9897,-3.0351,-3.288,-3.4254,-3.4788,-3.6816,-3.7767,-3.819,-3.9773,-4.1512,-4.3207,-4.4061,-4.5216,-4.6406,0.0,0.0,0.0,0.0,0.0,0.0,0.0,0.0,0.0,0.0,0.0,0.0,0.0,0.0,0.0,0.0,0.0,0.0,-0.323,-0.3531,-0.471,-0.6887,-0.7317,-0.8505,-1.0684,-1.0692,-1.0692,-1.0692,-1.0692,-1.0692,-1.0692,-1.1446,-1.1446,-1.0692,-1.1555,-1.145,-1.0802,-1.1555,-1.2096,-1.2521,-1.3275,-1.4245,0.0,0.0,0.0,0.0,0.0,0.0,0.0,0.0,-1.8984,-1.9448,-1.8046,-1.804,-1.8739,-1.8739,-1.8674,-1.8955,-2.0587,-2.0815,-2.0516,-2.0398,-2.0266,-2.0301,-2.0617,-2.0883,-2.0885,-2.0504,-2.1058,-2.189,-2.2484,-2.3981,-2.5187,-2.5187,-2.637,-2.7262,-2.7262,-2.7262,-2.7262,-2.7262,-2.638,-2.6081,-2.7167,-2.6284,-2.6177,-2.7262,-2.7262,-2.7262,-2.7262,-2.7357,-2.7357,-2.7357,-2.7631,-2.7726,-2.7726,-2.8008,-2.8102,-2.8102,-2.8186,-2.8186,-2.8186,-2.9715,-3.0339,-3.0508,-3.3727,-3.4912,-3.4844,-3.7281,-3.8294,-3.8502,-4.0439,-4.1981,-4.3164,-4.4192,-4.5091,-4.5985,0.0,0.0,0.0,0.0,0.0,0.0,0.0,0.0,0.0,0.0,0.0,0.0,0.0,0.0,0.0,0.0,0.0,0.0,-0.323,-0.4234,-0.5424,-0.6992,-0.8049,-0.925,-1.0684,-1.0692,-1.0692,-1.0692,-1.0692,-1.0692,-1.0692,-1.0692,-1.0692,-1.0692,-1.0692,-1.0692,-1.0692,-1.0692,-1.1341,-1.2413,-1.2413,-1.3058,-1.4159,0.0,0.0,0.0,0.0,0.0,0.0,0.0,-1.6862,-1.7923,-1.5451,-1.5919,-1.7443,-1.7443,-1.7261,-1.7514,-2.0033,-2.0486,-2.023,-2.055,-2.0412,-2.0385,-2.0922,-2.0597,-2.0182,-2.0155,-2.03,-2.0917,-2.2224,-2.3402,-2.4088,-2.4088,-2.5868,-2.7262,-2.7262,-2.7262,-2.7262,-2.7262,-2.638,-2.6091,-2.7167,-2.638,-2.6177,-2.7251,-2.7262,-2.7262,-2.7262,-2.7441,-2.7631,-2.7631,-2.7904,-2.7998,-2.7998,-2.829,-2.8395,-2.8395,-2.8664,-2.8664,-2.8488,-3.0609,-3.1577,-3.1828,-3.5386,-3.688,-3.7035,-3.8472,-3.9763,-4.0826,-4.1901,-4.2925,-4.3898,-4.4618,-4.5511,-4.6436,0.0,0.0,0.0,0.0,0.0,0.0,0.0,0.0,0.0,0.0,0.0,0.0,0.0,0.0,0.0,0.0,0.0,0.0,-0.4334,-0.5329,-0.6535,-0.8036,-0.8469,-0.925,-1.0684,-1.0692,-1.0692,-1.0692,-1.0692,-1.0692,-1.0692,-1.0692,-1.0692,-1.0692,-1.0692,-1.0692,-1.0692,-1.0692,-1.0907,-1.1232,-1.1232,-1.1878,-1.296,0.0,0.0,0.0,0.0,0.0,0.0,0.0,0.0,0.0,-1.5445,-1.6031,-1.7443,-1.7443,-1.7834,-1.8651,-2.0265,-2.0325,-2.0008,-2.0215,-2.0068,-2.0038,-2.0566,-2.0566,-2.0431,-2.0632,-2.0712,-2.1121,-2.2325,-2.2719,-2.3511,-2.4992,-2.5089,-2.5577,-2.7061,-2.6668,-2.6476,-2.7262,-2.7061,-2.6965,-2.7262,-2.6965,-2.6965,-2.7262,-2.7262,-2.7357,-2.7536,-2.7536,-2.7726,-2.7904,-2.8102,-2.829,-2.829,-2.8571,-2.8664,-2.8664,-2.8757,-2.9106,-2.9726,-3.1045,-3.1928,-3.271,-3.5654,-3.6816,-3.683,-3.903,-4.013,-4.0721,-4.2283,-4.3103,-4.3522,-4.4875,-4.5563,-4.5985,0.0,0.0,0.0,0.0,0.0,0.0,0.0,0.0,0.0,0.0,-0.323,-0.323,0.0,0.0,0.0,0.0,0.0,0.0,0.0,-0.6472,-0.7604,-0.8563,-0.9057,-0.9751,-1.0684,-1.0692,-1.0692,-1.0692,-1.0692,-1.0692,-1.0692,-1.0692,-1.0692,-1.0692,-1.0692,-1.0692,-1.0692,-1.0692,-1.0692,-1.0692,-1.0692,-1.1122,-1.1769,0.0,0.0,0.0,0.0,0.0,0.0,0.0,0.0,0.0,-1.4351,-1.5162,-1.6553,-1.7008,-1.7396,-1.8086,-1.9893,-2.0067,-1.9775,-2.0084,-2.0439,-2.0885,-2.17,-2.1615,-2.142,-2.2013,-2.1818,-2.1725,-2.2426,-2.282,-2.3411,-2.4304,-2.4992,-2.5674,-2.6572,-2.6476,-2.6572,-2.7251,-2.7262,-2.7262,-2.7262,-2.7262,-2.7262,-2.7262,-2.7262,-2.7347,-2.7441,-2.7547,-2.7631,-2.7809,-2.856,-2.8921,-2.8921,-2.9543,-2.9909,-2.9909,-2.9909,-3.0429,-3.1311,-3.1488,-3.2103,-3.3152,-3.5748,-3.7343,-3.825,-4.0015,-4.094,-4.1525,-4.3059,-4.3614,-4.3789,-4.5108,-4.558,-4.5802,0.0,0.0,-0.3331,-0.323,0.0,0.0,0.0,0.0,0.0,0.0,-0.343,-0.343,0.0,0.0,0.0,0.0,0.0,0.0,0.0,-0.7759,-0.8522,-0.8776,-0.9811,-1.053,-1.0688,-1.0692,-1.0692,-1.0692,-1.0692,-1.0692,-1.0692,-1.0692,-1.0692,-1.0692,-1.0692,-1.0692,-1.0692,-1.0692,-1.0692,-1.0692,-1.0692,-1.0692,-1.0692,-1.0692,0.0,0.0,0.0,0.0,0.0,0.0,0.0,0.0,-1.2827,-1.3621,-1.5079,-1.6192,-1.6465,-1.6817,-1.9106,-1.9724,-1.9776,-2.0181,-2.1285,-2.2593,-2.3989,-2.3511,-2.302,-2.389,-2.3311,-2.2728,-2.2719,-2.3511,-2.38,-2.302,-2.5187,-2.6764,-2.5994,-2.6572,-2.7156,-2.7262,-2.7262,-2.7262,-2.7262,-2.7262,-2.7262,-2.7262,-2.7262,-2.7357,-2.7357,-2.7547,-2.7631,-2.7631,-2.9002,-2.9818,-2.9806,-3.0968,-3.1577,-3.1577,-3.1577,-3.2103,-3.298,-3.2103,-3.2352,-3.3479,-3.6053,-3.8384,-4.0547,-4.1327,-4.2045,-4.2756,-4.3914,-4.435,-4.4519,-4.5372,-4.5684,-4.5903,0.0,0.0,-0.4234,-0.3331,0.0,0.0,0.0,0.0,0.0,0.0,0.0,0.0,0.0,-0.5429,0.0,0.0,0.0,0.0,0.0,-0.887,-0.9658,-0.9835,-1.0357,-1.0655,-1.0692,-1.0692,-1.0692,-1.0692,-1.0692,-1.0692,-1.0692,-1.0692,-1.0692,-1.0692,-1.0692,-1.0692,-1.0692,-1.0692,-1.0692,-1.0692,-1.0692,-1.0692,-1.0692,-1.0692,-1.0692,0.0,0.0,0.0,0.0,0.0,0.0,0.0,-1.2602,-1.3621,-1.4966,-1.5192,-1.6342,-1.7774,-1.8548,-1.9189,-1.9983,-2.1387,-2.2685,-2.3989,-2.5089,-2.5197,-2.4796,-2.4196,-2.389,-2.3998,-2.4903,-2.4492,-2.459,-2.6071,-2.5479,-2.5275,-2.6764,-2.6476,-2.638,-2.7167,-2.7262,-2.7262,-2.7262,-2.7262,-2.7262,-2.7262,-2.7262,-2.7357,-2.7547,-2.7547,-2.7726,-2.7904,-2.9013,-2.9646,-2.9806,-3.08,-3.1424,0.0,-3.1577,-3.2103,-3.2993,-3.2809,-3.3946,-3.6146,-3.7953,-3.9388,-4.0615,-4.1868,-4.2645,-4.3147,-4.4322,-4.4981,-4.5372,-4.5905,-4.6332,-4.6735,0.0,0.0,0.0,0.0,0.0,0.0,0.0,0.0,0.0,0.0,0.0,0.0,0.0,-0.6526,0.0,0.0,0.0,0.0,0.0,0.0,-1.0136,-1.0404,-1.059,-1.0692,-1.0692,-1.0692,-1.0692,-1.0692,-1.0692,-1.0692,-1.0692,-1.0692,-1.0692,-1.0692,-1.0692,-1.0692,-1.0692,-1.0692,-1.0692,-1.0692,-1.0692,-1.0692,-1.0692,-1.0692,-1.0692,-1.0692,-1.0692,0.0,0.0,0.0,0.0,0.0,0.0,0.0,-1.386,-1.442,-1.531,-1.6497,-1.7696,-1.8534,-1.9746,-2.2374,-2.3989,-2.5187,-2.6177,-2.6476,-2.6274,-2.5771,-2.5187,-2.4992,-2.5596,-2.5197,-2.5089,-2.5674,-2.5674,-2.5868,-2.6476,-2.6476,-2.6668,-2.7262,-2.7262,-2.7262,-2.7262,-2.7262,-2.7262,-2.7262,-2.7262,-2.7357,-2.7452,-2.7452,-2.7536,-2.762,-2.9176,-3.0068,-3.0316,-3.1853,-3.2747,-3.298,-3.3382,-3.403,-3.4857,-3.4472,-3.5641,-3.8043,-3.8839,-4.0078,-4.1591,-4.252,-4.3196,-4.3864,-4.4838,-4.5354,-4.5684,-4.6315,-4.6724,-4.7035,0.0,0.0,0.0,0.0,0.0,0.0,0.0,0.0,0.0,0.0,0.0,0.0,0.0,0.0,0.0,0.0,0.0,0.0,0.0,0.0,0.0,-1.0676,-1.0692,-1.0692,-1.0692,-1.0692,-1.0692,-1.0692,-1.0692,-1.0692,-1.0692,-1.0692,-1.0692,-1.0692,-1.0692,-1.0692,-1.0692,-1.0692,-1.0692,-1.0692,-1.0692,-1.0692,-1.0692,-1.0692,-1.0692,-1.0692,-1.0692,-1.0692,-1.0802,-1.1131,0.0,0.0,0.0,0.0,-1.255,-1.363,-1.4062,-1.4702,-1.6829,-1.8185,-1.9819,-2.3276,-2.4894,-2.5984,-2.7061,-2.7262,-2.7262,-2.7262,-2.6572,-2.5984,-2.5984,-2.5984,-2.5684,-2.4786,-2.6167,-2.6965,-2.6081,-2.6764,-2.7262,-2.7262,-2.7262,-2.7262,-2.7262,-2.7262,-2.7262,-2.7262,-2.7262,-2.7262,-2.7262,-2.7262,-2.7357,-2.7536,-2.951,-3.0664,-3.1098,-3.3079,-3.4314,-3.4634,-3.5507,-3.636,-3.7127,-3.6568,-3.7363,-3.92,-3.9485,-4.0816,-4.274,-4.318,-4.3864,-4.4631,-4.5319,-4.5632,-4.5786,-4.6584,-4.7008,-4.7263,0.0,0.0,0.0,0.0,0.0,0.0,0.0,0.0,0.0,0.0,-0.8623,-0.8825,0.0,0.0,0.0,0.0,0.0,0.0,-0.9884,0.0,0.0,-1.0684,-1.0692,-1.0692,-1.0692,-1.0692,-1.0692,-1.0692,-1.0692,-1.0692,-1.0692,-1.0692,-1.0692,-1.0692,-1.0692,-1.0692,-1.0692,-1.0692,-1.0692,-1.0692,-1.0692,-1.0692,-1.0692,-1.0692,-1.0692,-1.0692,-1.0692,-1.0802,-1.1126,-1.1459,-1.1678,0.0,0.0,0.0,-1.2436,-1.2545,-1.3413,-1.4487,-1.6062,-1.8977,-2.1979,-2.3683,-2.4894,-2.5984,-2.7061,-2.7262,-2.7262,-2.7262,-2.7156,-2.7061,-2.7061,-2.7061,-2.7061,-2.687,-2.7156,-2.7262,-2.7061,-2.7262,-2.7262,-2.7262,-2.7262,-2.7262,-2.7262,-2.7262,-2.7262,-2.7262,-2.7262,-2.7262,-2.7262,-2.7262,-2.762,-2.8445,-2.9784,-3.1033,-3.2115,-3.3445,-3.4551,-3.5507,-3.6346,-3.7218,-3.8023,-3.8517,-3.8911,-3.9272,-4.0576,-4.1917,-4.3147,-4.3898,-4.4652,-4.5424,-4.5529,-4.5803,-4.6154,-4.6695,-4.7186,-4.7725,0.0,0.0,0.0,0.0,0.0,0.0,0.0,0.0,0.0,0.0,0.0,-0.9426,0.0,0.0,0.0,-0.9762,-0.9843,-0.9973,-1.018,-1.0436,-1.0611,-1.0688,-1.0692,-1.0692,-1.0692,-1.0692,-1.0692,-1.0692,-1.0692,-1.0692,-1.0692,-1.0692,-1.0692,-1.0692,-1.0692,-1.0692,-1.0692,-1.0692,-1.0692,-1.0692,-1.0692,-1.0692,-1.0692,-1.0692,-1.0802,-1.0907,-1.0907,-1.1131,-1.135,-1.1568,-1.1787,-1.2001,-1.2114,0.0,0.0,0.0,-1.2762,-1.3727,-1.5956,-1.9184,-2.2089,-2.3011,-2.4501,-2.579,-2.6284,-2.687,-2.7262,-2.7262,-2.7262,-2.7262,-2.7262,-2.7262,-2.7262,-2.7262,-2.7262,-2.7441,-2.7987,-2.762,-2.7715,-2.8806,-2.7987,-2.7715,-2.8806,-2.8445,-2.8362,-2.8899,-2.8899,-2.8899,-2.8899,-2.9073,-2.9235,-2.9692,-3.0866,-3.2079,-3.3174,-3.4236,-3.5575,-3.7092,-3.7477,-3.8294,-3.9478,-3.9788,-4.0109,-4.0576,-4.1885,-4.2982,-4.3864,-4.4691,-4.5266,-4.5632,-4.6151,-4.6459,-4.6724,-4.7629,-4.8143,-4.849,0.0,0.0,0.0,0.0,0.0,0.0,0.0,0.0,0.0,0.0,0.0,0.0,0.0,0.0,0.0,0.0,-0.9998,-1.016,-1.0481,-1.0623,-1.0692,-1.0692,-1.0692,-1.0692,-1.0692,-1.0692,-1.0692,-1.0692,-1.0692,-1.0692,-1.0692,-1.0692,-1.0692,-1.0692,-1.0692,-1.0692,-1.0692,-1.0692,-1.0692,-1.0692,-1.0692,-1.0692,-1.0802,-1.0802,-1.1021,-1.1236,-1.1236,-1.1459,-1.1678,-1.1678,-1.1896,-1.211,-1.211,-1.2436,0.0,0.0,0.0,-1.4256,-1.6387,-1.9102,-2.1591,-2.2509,-2.4106,-2.5392,-2.5984,-2.6764,-2.7262,-2.7262,-2.7262,-2.7357,-2.7631,-2.7631,-2.7715,-2.7998,-2.8081,-2.8258,-2.8991,-2.8445,-2.8538,-2.9988,-2.8899,-2.862,-3.0079,-2.9532,-2.9349,-3.017,-3.0418,-3.0586,-3.0574,-3.0974,-3.1304,-3.1568,-3.2562,-3.35,-3.4558,-3.5588,-3.6752,-3.8202,-3.8634,-3.9421,-4.0547,-4.0977,-4.1494,-4.1997,-4.2827,-4.3714,-4.4669,-4.5319,-4.5632,-4.5837,-4.6613,-4.6936,-4.708,-4.8365,-4.8866,-4.904,0.0,0.0,0.0,0.0,0.0,0.0,0.0,0.0,0.0,0.0,0.0,0.0,-1.0136,-1.0136,-1.014,-1.0148,-1.0306,-1.0485,-1.0668,-1.0688,-1.0692,-1.0692,-1.0692,0.0,-1.0692,-1.0692,-1.0692,-1.0692,-1.0692,-1.0692,-1.0692,-1.0692,-1.0692,-1.0692,-1.0692,-1.0692,-1.0692,-1.0692,-1.0692,-1.0692,-1.0692,-1.0802,-1.1131,-1.1131,-1.1236,-1.1568,-1.1568,-1.1787,-1.2005,-1.2005,-1.2114,-1.2332,-1.2332,-1.3192,-1.4062,0.0,0.0,0.0,-1.7779,-1.9027,-2.0783,-2.3085,-2.389,-2.4688,-2.6764,-2.7262,-2.7262,-2.7262,-2.7262,-2.7536,-2.8445,-2.8631,-2.8899,-2.9897,-3.0079,-3.0079,-3.0079,-3.0079,-3.0079,-3.017,-3.0079,-3.0079,-3.017,-3.017,-3.017,-3.017,-3.0998,-3.1568,-3.1683,-3.2473,-3.3392,-3.4534,-3.4779,-3.5399,-3.6476,-3.7539,-3.8127,-3.8202,-3.9692,-4.0409,-4.0547,-4.2267,-4.307,-4.3131,-4.3191,-4.4085,-4.5529,-4.558,-4.5803,-4.6204,-4.6781,-4.6972,-4.7176,-4.8418,-4.8945,-4.9114,0.0,0.0,0.0,0.0,0.0,0.0,0.0,0.0,0.0,0.0,0.0,0.0,0.0,-1.016,-1.0209,-1.0327,-1.0497,-1.0627,-1.0688,-1.0692,-1.0692,-1.0692,-1.0692,-1.0692,-1.0692,-1.0692,-1.0692,-1.0692,-1.0692,-1.0692,-1.0692,-1.0692,-1.0692,-1.0692,-1.0692,-1.0692,-1.0692,-1.0907,-1.0911,-1.1021,-1.124,-1.135,-1.1459,-1.1459,-1.1564,-1.2005,-1.2649,-1.2649,-1.2327,-1.3197,-1.298,-1.2441,-1.2441,-1.3197,-1.4379,-1.512,-1.6405,-1.7687,-1.7884,-1.893,-2.0285,-2.219,-2.3285,-2.4285,-2.5877,-2.6774,-2.7262,-2.7262,-2.7262,-2.7809,-2.9349,-2.9176,-2.8991,-3.0079,-3.017,-3.0441,-3.0991,-3.0621,-3.0866,-3.2722,-3.1804,-3.1692,-3.3487,-3.3136,-3.3038,-3.3811,-3.4145,-3.438,-3.4574,-3.5076,-3.5493,-3.5933,-3.6584,-3.7641,-3.8939,-3.9884,-4.0347,-4.0347,-4.1198,-4.1837,-4.2267,-4.3251,-4.4028,-4.4732,-4.4949,-4.525,-4.5632,-4.5854,-4.6235,-4.6678,-4.7255,-4.7729,-4.8274,-4.9292,-4.9758,-4.9988,0.0,0.0,0.0,0.0,0.0,0.0,0.0,0.0,-1.0339,-1.0339,0.0,0.0,0.0,0.0,-1.0387,-1.0509,-1.0627,-1.0692,-1.0692,-1.0692,-1.0692,-1.0692,-1.0692,-1.0692,-1.0692,-1.0635,-1.0635,-1.0692,-1.0744,-1.0744,-1.0692,-1.0911,-1.0911,-1.0802,-1.0911,-1.0911,-1.0802,-1.1126,-1.124,-1.1236,-1.1459,-1.1678,-1.1678,-1.1678,-1.1896,-1.2219,-1.2975,-1.2866,-1.255,-1.3305,-1.3088,-1.2441,-1.2441,-1.3516,-1.5125,-1.6605,-1.7569,-1.8213,-1.8415,-1.9346,-2.068,-2.219,-2.3484,-2.4688,-2.5984,-2.6774,-2.7262,-2.7262,-2.7536,-2.8269,-2.9897,-2.9897,-2.9988,-3.0979,-3.1169,-3.1347,-3.1989,-3.1536,-3.1952,-3.4134,-3.3224,-3.3331,-3.5373,-3.5007,-3.4994,-3.5855,-3.6174,0.0,-3.7105,-3.7315,-3.7572,-3.7922,-3.8488,-3.9414,-4.0696,-4.1396,-4.1739,-4.1739,-4.2456,-4.2993,-4.3488,-4.4255,-4.502,-4.5786,-4.6249,-4.6328,-4.6084,-4.6429,-4.6855,-4.7362,-4.7892,-4.8455,-4.9102,-4.9942,-5.0344,-5.0509,0.0,0.0,0.0,0.0,0.0,0.0,0.0,0.0,-1.0692,-1.0692,0.0,0.0,0.0,0.0,0.0,-1.0692,-1.0692,-1.0692,-1.0692,-1.0692,-1.0692,-1.0692,-1.0692,-1.0692,-1.0692,-1.0526,-1.0526,-1.0692,-1.0849,-1.0854,-1.0692,-1.135,-1.1459,-1.1126,-1.1459,-1.1459,-1.1126,-1.1455,-1.1568,-1.1568,-1.1568,-1.1787,-1.2005,-1.2005,-1.2223,-1.2441,-1.2441,-1.2436,-1.2441,-1.2441,-1.2441,-1.2436,-1.2436,-1.4046,-1.6287,-1.8632,-1.9272,-1.9279,0.0,0.0,0.0,-2.2985,-2.4492,-2.5887,-2.7061,-2.7262,-2.7262,-2.7262,-2.8092,-2.8991,-2.9988,-3.0991,-3.1901,-3.2896,-3.3081,-3.3081,-3.3154,-3.3154,-3.3496,-3.4397,-3.4481,-3.4786,-3.5628,-3.5695,-3.5775,-3.6015,-3.6802,-3.7771,-3.8896,-3.9103,-3.958,-4.0547,-4.0531,-4.094,-4.1591,-4.2029,-4.2267,-4.2314,-4.3413,-4.397,-4.4028,-4.5407,-4.602,-4.607,-4.7035,-4.7281,-4.7062,-4.7266,-4.767,-4.829,-4.8744,-4.9126,-4.9538,-5.0306,-5.0606,-5.0664,0.0,0.0,0.0,0.0,0.0,-0.9632,-1.051,-1.0664,-1.0692,0.0,0.0,0.0,-1.0692,-1.0692,-1.0692,-1.0692,-1.0692,-1.0692,-1.0692,-1.0692,-1.0692,-1.0692,-1.0692,-1.0692,-1.0692,-1.0643,-1.0752,-1.1021,-1.108,-1.1189,-1.135,-1.1568,-1.1568,-1.1455,-1.1787,-1.1787,-1.1782,-1.1896,-1.1896,-1.1896,-1.211,-1.2219,-1.2332,-1.2332,-1.2332,-1.2545,-1.3413,-1.3088,-1.2545,-1.3413,-1.3738,-1.384,-1.4691,-1.5435,-1.618,-1.7681,-1.8639,-1.9376,-1.9583,0.0,0.0,0.0,0.0,0.0,-2.686,-2.7262,-2.7262,-2.7262,-2.8092,-2.8991,-2.9988,-3.0991,-3.1901,-3.2896,-3.3081,-3.3326,-3.3979,-3.4063,-3.4551,-3.6056,-3.6215,-3.661,-3.763,-3.7706,-3.7857,0.0,-3.8942,-3.9591,-3.9999,-4.0569,-4.1194,-4.1997,-4.23,-4.2798,-4.3545,-4.3963,-4.4158,-4.4158,-4.4821,-4.5197,-4.5459,-4.6323,-4.6809,-4.7035,-4.7702,-4.818,-4.8435,-4.8107,-4.8237,-4.8744,-4.9138,-4.961,-5.0144,-5.047,-5.0758,-5.0977,0.0,0.0,-0.7695,-0.9361,-0.9695,-0.9919,-1.0582,-1.0692,-1.0692,0.0,0.0,0.0,-1.0692,-1.0692,-1.0692,-1.0692,-1.0692,-1.0692,-1.0692,-1.0692,-1.0692,-1.0692,-1.0692,-1.0692,-1.0692,-1.0728,-1.0837,-1.1126,-1.1272,-1.1489,-1.1568,-1.1787,-1.1896,-1.1787,-1.2545,-1.2871,-1.2871,-1.2871,-1.2871,-1.298,-1.3088,-1.3197,-1.3197,-1.3197,-1.2871,-1.2436,-1.3197,-1.33,-1.3305,-1.3954,-1.4487,-1.512,-1.6293,-1.6717,-1.7035,-1.8003,-1.8945,-1.9783,-2.0181,-2.0483,-2.1285,-2.3773,0.0,0.0,-2.686,-2.7262,-2.7441,0.0,-2.8631,-2.9624,-3.0621,-3.1536,-3.2525,-3.3484,-3.3654,-3.3823,-3.4314,-3.4703,-3.5413,-3.678,-3.7,-3.7525,-3.8826,-3.906,-3.9349,-3.996,-4.0363,-4.0774,-4.1162,-4.1853,-4.2504,-4.3136,-4.303,-4.3363,-4.4101,-4.4211,-4.4285,-4.4389,-4.5142,-4.5725,-4.6088,-4.6936,-4.756,-4.7931,-4.8457,-4.8936,-4.9313,-4.9238,-4.9353,-4.9614,-4.9759,-5.0125,-5.0623,-5.0757,-5.0941,-5.1119,0.0,0.0,-0.8026,-1.0249,-1.0692,-1.0692,-1.0692,-1.0692,-1.0692,0.0,-1.0692,-1.0692,-1.0692,-1.0692,-1.0692,-1.0692,-1.0692,-1.0692,-1.0692,-1.0692,-1.0692,-1.0692,-1.0692,-1.0692,-1.0692,-1.0866,-1.097,-1.1236,-1.1509,-1.1729,-1.1678,-1.2223,-1.2219,-1.2114,-1.3521,-1.4169,-1.4169,-1.4169,-1.4272,-1.4379,-1.4056,-1.3954,-1.3954,-1.3954,-1.3305,-1.2441,-1.2545,-1.3305,-1.4277,-1.4487,-1.5227,-1.628,-1.7358,-1.7884,-1.8297,-1.9153,-1.9776,-2.0483,-2.1285,-2.1887,-2.2785,-2.4856,-2.547,0.0,-2.7061,-2.7262,-2.7536,0.0,-2.9452,-3.0441,-3.1258,-3.2351,-3.3326,-3.4147,-3.4397,-3.4551,-3.4634,-3.5332,-3.6029,-3.6922,-3.7295,-3.8026,-3.9505,-3.9874,-4.0347,-4.1147,-4.133,-4.1772,-4.2439,-4.2988,-4.3431,-4.3853,-4.3155,-4.3078,-4.3732,-4.3573,-4.3568,-4.3693,-4.488,-4.5676,-4.621,-4.7197,-4.7996,-4.8598,-4.9107,-4.9551,-4.9942,-5.0408,-5.0587,-5.0587,-5.049,-5.0661,-5.0945,-5.1061,-5.1111,-5.1141,-0.6805,-0.7919,-0.903,-1.0468,-1.0692,-1.0692,-1.0692,-1.0692,-1.0692,-1.0692,-1.0692,-1.0692,-1.0692,-1.0692,-1.0692,-1.0692,-1.0692,-1.0692,-1.0692,-1.0692,-1.0692,-1.0692,-1.0692,-1.0802,-1.1017,-1.1093,-1.1311,-1.1787,-1.186,-1.2077,-1.2223,-1.2327,-1.2332,-1.2327,-1.363,-1.4169,-1.4169,-1.4169,-1.4696,-1.5435,-1.3511,-1.2762,-1.2762,-1.2762,-1.2654,-1.2545,-1.3516,-1.3954,-1.4487,-1.6299,-1.7009,-1.7285,-1.7759,-1.8589,-1.9391,-1.9708,-2.0546,-2.1684,-2.2885,-2.3294,-2.3791,-2.5285,-2.5684,0.0,-2.7061,-2.7262,-2.7347,0.0,-2.8991,-3.026,-3.0441,-3.1889,-3.3167,-3.3326,-3.4524,-3.5642,-3.6294,-3.6531,-3.7,-3.781,-3.8649,-3.9361,-3.9819,-4.047,-4.108,-4.1444,-4.2283,-4.3251,-4.4288,-4.3914,-4.3719,-4.3844,-4.3545,-4.3435,-4.3387,-4.4253,-4.4561,-4.4395,-4.5083,-4.5658,-4.6151,-4.6572,-4.7417,-4.854,-4.8878,-4.9538,-5.0448,-5.0568,-5.0606,-5.0606,-5.0752,-5.0897,-5.1061,-5.1099,-5.1166,-5.1261,-0.6805,-0.7584,-0.8585,-1.0359,-1.0692,-1.0692,-1.0692,-1.0692,-1.0692,-1.0692,-1.0692,-1.0472,-0.9915,-0.9805,-0.9805,-0.9805,-0.9805,-1.0029,-1.0692,-1.0692,-1.0692,-1.0692,-1.0802,-1.0907,-1.1126,-1.1345,-1.1678,-1.2005,-1.2114,-1.2219,-1.2441,-1.2441,-1.2441,-1.2441,-1.363,-1.4169,-1.4169,-1.4169,-1.4487,-1.4905,-1.3732,-1.3305,-1.3305,-1.3305,-1.3305,-1.3413,-1.3954,-1.4917,-1.6193,-1.7996,-1.8603,-1.8783,-1.9627,-2.0341,-2.0939,-2.1541,-2.2257,-2.3085,-2.4177,-2.4177,-2.4285,-2.6081,-2.6091,0.0,0.0,-2.7262,-2.7441,-2.7904,-2.8806,-2.9635,-3.0079,-3.1347,-3.2513,-3.2907,-3.4472,-3.5869,-3.6766,-3.7246,-3.7796,-3.8575,-3.9334,-4.0015,-4.0774,-4.1494,-4.2157,-4.2847,-4.3597,-4.4231,-4.4646,-4.4423,-4.4262,-4.4218,-4.388,-4.3695,-4.3764,-4.3931,-4.4086,-4.4163,-4.482,-4.5486,-4.6073,-4.66,-4.7378,-4.8261,-4.8426,-4.8875,-4.9534,-5.0022,-5.0206,-5.0264,-5.0798,-5.1054,-5.1139,-5.119,-5.123,-5.1303,-0.703,-0.7473,-0.8137,-1.0359,-1.0692,-1.0692,-1.0692,-1.0692,-1.0582,-1.0359,-1.0359,-0.9915,-0.8699,-0.8585,-0.8585,-0.8585,-0.8585,-0.903,-1.0249,-1.0359,-1.0468,-1.0692,-1.0911,-1.1126,-1.1236,-1.1673,-1.2005,-1.2114,-1.2332,-1.2441,-1.2441,-1.2441,-1.2441,-1.2441,-1.363,-1.4169,-1.4169,-1.4169,-1.4385,-1.4487,-1.4277,-1.4169,-1.4164,-1.4487,-1.4487,-1.4589,-1.4804,-1.6299,-1.8213,-1.9361,-1.9879,-2.0292,-2.1387,-2.2089,-2.2593,-2.3493,-2.4088,-2.4581,-2.545,-2.5168,-2.5178,-2.686,-2.6668,-2.6187,0.0,0.0,0.0,-2.8269,-2.8724,-2.9268,-3.0079,0.0,0.0,-3.2707,0.0,0.0,0.0,-3.7496,0.0,-3.8885,-3.9692,-4.0638,-4.1575,-4.2317,-4.3262,-4.4333,-4.4572,-4.4644,-4.4522,-4.4537,-4.4516,-4.4396,-4.3953,-4.381,-4.398,-4.3574,-4.3494,-4.3788,-4.4591,-4.5283,-4.5948,-4.6618,-4.7256,-4.7882,-4.7928,-4.813,-4.8502,-4.943,-4.9835,-4.9929,-5.078,-5.1152,-5.123,-5.1277,-5.1302,-5.1322,-0.8254,-0.8699,-0.914,-1.0472,-1.0692,-1.0692,-1.0692,-1.0692,-1.0359,-0.9254,-0.9144,-0.8696,-0.7473,-0.7252,-0.7252,-0.7252,-0.7252,-0.7808,-0.9034,-0.9144,-0.9585,-1.0692,-1.0911,-1.1236,-1.1568,-1.1787,-1.2114,-1.2327,-1.2436,-1.2441,-1.2441,-1.2441,-1.2441,-1.2441,-1.363,-1.4169,-1.4169,-1.4169,-1.4804,-1.5648,-1.4595,-1.4169,-1.4272,-1.5334,-1.5755,-1.5861,-1.714,-1.8408,-1.9569,-1.9879,-2.0704,-2.1514,-2.1895,-2.2693,-2.3791,-2.5089,-2.5489,-2.579,-2.6764,-2.7051,-2.6965,-2.7251,-2.7262,-2.7156,-2.7262,0.0,-2.7357,-2.7441,0.0,-3.0079,-3.017,0.0,0.0,-3.2378,0.0,0.0,-3.5067,-3.6878,-3.8202,-3.8277,-4.0209,-4.1428,-4.1049,-4.2537,-4.3873,-4.4746,-4.4258,-4.4234,-4.5001,-4.4165,-4.3632,-4.3626,-4.3504,-4.3376,-4.3214,-4.3899,-4.4196,-4.4073,-4.4815,-4.5321,-4.5661,-4.58,-4.6429,-4.7368,-4.74,-4.7839,-4.8646,-4.9535,-4.9926,-5.0066,-5.0859,-5.124,-5.1291,-5.1307,-5.1346,-5.1385,-0.8699,-0.892,-0.9254,-1.0472,-1.0692,-1.0692,-1.0692,-1.0692,-1.0249,-0.903,-0.892,-0.8143,-0.6369,-0.6144,-0.6144,-0.6144,-0.6697,-0.7362,-0.7808,-0.9137,-0.9805,-0.9695,-1.0798,-1.1459,-1.1568,-1.2005,-1.2332,-1.2441,-1.2441,-1.2441,-1.2441,-1.2441,-1.2441,-1.2436,-1.298,-1.3197,-1.3197,-1.3948,-1.4487,-1.5018,-1.5873,-1.6193,-1.6193,-1.5968,-1.6293,-1.7041,-1.7884,-1.8311,-1.8624,-1.996,-2.0451,-2.1049,-2.3276,-2.4384,-2.5089,-2.6274,-2.6668,-2.6764,-2.7167,-2.7726,-2.8081,-2.8081,-2.8081,-2.8269,-2.8806,-2.8538,-2.8269,-2.8899,0.0,0.0,0.0,0.0,0.0,0.0,-3.3983,-3.5533,0.0,0.0,-3.8855,-3.9118,0.0,0.0,-4.2798,-4.3748,-4.441,0.0,-4.4303,-4.4023,-4.3769,-4.3708,-4.3534,-4.3278,-4.3749,-4.4002,-4.408,-4.4613,-4.4916,-4.4985,-4.5285,-4.5536,-4.578,-4.5836,-4.6115,-4.655,-4.6599,-4.6806,-4.726,-4.868,-4.9061,-4.8944,-5.0642,-5.1326,-5.1365,-5.1367,-5.1381,-5.141,-0.9364,-0.9364,-0.9695,-1.0582,-1.0692,-1.0692,-1.0692,-1.0692,-1.0139,-0.8585,-0.8364,-0.7476,-0.5148,-0.4925,-0.4925,-0.4925,-0.5699,-0.6253,-0.6586,-0.8251,-0.914,-0.903,-1.0355,-1.1345,-1.1678,-1.2114,-1.2441,-1.2441,-1.2441,-1.2441,-1.2441,-1.2441,-1.2441,-1.2441,-1.2762,-1.2762,-1.2441,-1.3738,-1.4169,-1.4379,-1.598,-1.6836,-1.7041,-1.6505,-1.6723,-1.7259,-1.7786,-1.7786,-1.7779,-1.993,-2.0531,0.0,-2.4375,-2.5499,-2.5887,-2.6965,-2.7262,-2.7262,-2.7262,-2.7998,-2.8631,-2.8362,-2.8538,-2.8817,-2.9268,-2.9084,-2.891,-2.9624,-3.017,0.0,0.0,0.0,-3.2438,-3.2425,0.0,-3.5894,-3.573,-3.7501,0.0,0.0,0.0,0.0,0.0,-4.4316,-4.4439,0.0,0.0,-4.3652,-4.2986,-4.3368,-4.3503,-4.3283,-4.4061,-4.4594,-4.4843,-4.5165,-4.5417,-4.5594,-4.5669,-4.5802,-4.5956,-4.6033,-4.604,-4.6066,-4.6128,-4.6282,-4.6599,-4.816,-4.8638,-4.859,-5.0611,-5.1405,-5.1406,-5.1408,-5.1379,-5.1377,-1.0359,-1.0692,-1.0692,-1.0692,-1.0692,-1.0692,-1.0692,-1.0692,-0.9801,-0.747,-0.7138,-0.6253,-0.3921,-0.3699,-0.3699,-0.3699,-0.3699,-0.4257,-0.5371,-0.5483,-0.6702,-0.9251,-0.9688,-1.057,-1.2005,-1.2223,-1.2441,-1.2441,-1.2441,-1.2441,-1.2441,-1.2441,-1.2441,-1.2441,-1.363,-1.3521,-1.2441,-1.3738,-1.4169,-1.4169,-1.4272,-1.5018,-1.6074,-1.7153,-1.6829,-1.6074,-1.6817,0.0,0.0,-2.0326,-2.1245,0.0,0.0,0.0,0.0,-2.6965,-2.7262,-2.7262,-2.7262,0.0,-2.8445,-2.7536,-2.7987,-2.8445,-2.7631,-2.8081,-2.8724,-2.8724,-3.0272,-3.1765,-3.2648,-3.3649,-3.4354,-3.4618,-3.5894,0.0,0.0,-3.7347,-3.8427,-3.9017,-4.0706,0.0,0.0,-4.3416,-4.3705,0.0,-4.3081,0.0,-4.3337,-4.3224,-4.3301,-4.3675,-4.4419,-4.4825,-4.4915,-4.5362,-4.5594,-4.5603,-4.5848,-4.6007,-4.6107,-4.6153,-4.6198,-4.6191,-4.6251,-4.6737,-4.7537,-4.8435,-4.9132,-4.9756,-5.0946,-5.1394,-5.1394,-5.1394,-5.1355,-5.1297,-0.9585,-1.0139,-1.0692,-1.0692,-1.0029,-0.9251,-0.8472,-0.8358,-0.7805,-0.6146,-0.5924,-0.5369,-0.3811,-0.3587,-0.3587,-0.3587,-0.4369,-0.4592,-0.4257,-0.5699,-0.6589,-0.6702,-0.8137,-0.9464,-1.057,-1.1232,-1.1782,-1.2441,-1.2441,-1.2441,-1.2441,-1.2441,-1.2441,-1.2441,-1.2871,-1.2762,-1.2441,-1.3738,-1.4169,-1.4277,-1.5013,-1.5642,-1.6274,-1.6829,-1.673,-1.6511,-1.6723,-1.6935,0.0,-1.9517,-2.0428,-2.1221,-2.4267,-2.5392,-2.5897,-2.6784,-2.7167,0.0,0.0,0.0,-2.8817,-2.9176,0.0,0.0,0.0,-3.0351,-3.0789,-3.134,-3.2525,-3.3674,-3.4528,-3.4966,-3.5251,-3.5277,-3.6221,-3.6866,0.0,-3.8222,-3.9406,-3.9636,-4.1182,-4.2534,0.0,0.0,0.0,0.0,-4.2849,0.0,0.0,-4.3086,-4.3502,-4.3953,-4.4669,-4.5161,-4.5362,-4.5638,-4.5822,-4.588,-4.5953,-4.6047,-4.6091,-4.6162,-4.6202,-4.621,-4.6264,-4.6762,-4.7546,-4.8002,-4.8561,-4.925,-5.0747,-5.1237,-5.1081,-5.1273,-5.132,-5.1292,-0.9585,-0.9809,-1.0249,-1.0582,-0.9695,-0.8475,-0.7252,-0.7138,-0.6697,-0.5592,-0.5144,-0.4475,-0.3249,-0.2802,-0.2802,-0.3025,-0.3807,-0.403,-0.3587,-0.5033,-0.581,-0.5592,-0.703,-0.8358,-0.9464,-1.0241,-1.1013,-1.1891,-1.1891,-1.211,-1.2441,-1.2441,-1.2441,-1.2436,-1.2871,-1.2762,-1.2441,-1.3738,-1.3954,-1.363,-1.4369,-1.4894,-1.5322,0.0,-1.6293,-1.6293,0.0,-1.6723,-1.7127,-1.9406,-2.0428,-2.1119,-2.3674,-2.4786,-2.5197,-2.5489,-2.6187,-2.6668,-2.6476,-2.7494,0.0,-2.8795,-2.9429,0.0,-3.0339,0.0,-3.1689,-3.2513,-3.3577,-3.4786,-3.5935,-3.6108,-3.6267,-3.6724,-3.7155,-3.7414,0.0,-3.8796,-3.9874,-4.0154,-4.1512,-4.27,-4.3248,0.0,0.0,0.0,0.0,0.0,0.0,0.0,-4.3762,-4.4317,-4.4886,-4.5323,-4.561,-4.5822,-4.596,-4.5994,-4.6008,-4.6068,-4.6137,-4.6189,-4.621,-4.6258,-4.6581,-4.7195,-4.7996,-4.836,-4.897,-4.9792,-5.084,-5.1094,-5.0938,-5.1211,-5.1249,-5.1162,-1.0249,-0.9585,-0.914,-1.0249,-0.9475,-0.8364,-0.7138,-0.6916,-0.6475,-0.5369,-0.4472,-0.3465,-0.224,-0.1345,-0.1233,-0.2016,-0.2128,-0.2576,-0.3475,-0.3587,-0.4255,-0.5588,-0.6255,-0.7362,-0.8796,-0.9464,-1.0131,-1.1017,-1.1017,-1.1455,-1.2327,-1.2327,-1.2332,-1.2441,-1.363,-1.3521,-1.2441,-1.363,-1.3413,-1.2441,-1.2441,-1.2767,-1.3527,-1.4894,-1.5417,-1.563,-1.618,-1.6399,-1.6922,-2.012,-2.1253,-2.1558,-2.3085,-2.3791,-2.389,-2.3384,-2.4384,-2.5489,-2.4992,-2.6512,-2.7851,-2.6955,0.0,0.0,0.0,0.0,-3.1601,0.0,0.0,-3.5101,-3.6894,-3.7078,-3.7477,-3.887,-3.8575,-3.8277,-3.8441,-3.919,-3.9914,-4.0622,-4.182,-4.2554,-4.2402,-4.2825,0.0,0.0,0.0,-4.2959,0.0,0.0,-4.4087,-4.472,-4.5039,-4.5342,-4.5619,-4.588,-4.5994,-4.5997,-4.606,-4.6137,-4.6206,-4.6191,-4.6258,-4.6401,-4.717,-4.8016,-4.8906,-4.9391,-5.026,-5.1273,-5.1142,-5.1026,-5.0938,-5.1194,-5.1113,-5.0899,-0.7916,-0.7805,-0.7362,-0.6813,-0.648,-0.5926,-0.47,-0.4477,-0.414,-0.3134,-0.2798,-0.2351,-0.1345,-0.1009,-0.1009,-0.1233,-0.1793,-0.2352,-0.2576,-0.325,-0.3811,-0.4145,-0.5146,-0.6258,-0.7252,-0.8254,-0.9251,-1.0131,-1.0131,-1.057,-1.1455,-1.1455,-1.1782,-1.2441,-1.2762,-1.2654,-1.2436,-1.2762,-1.2654,-1.2441,-1.2441,-1.3192,-1.4369,0.0,-1.605,-1.7009,-1.7667,-1.8311,-1.8938,-1.9561,-2.0181,-2.0798,-2.1692,-2.2089,-2.2391,-2.2894,-2.3484,-2.4088,-2.4688,-2.5373,-2.6396,-2.8789,-2.9795,-3.0438,0.0,0.0,0.0,0.0,0.0,0.0,0.0,0.0,-3.8337,-3.8427,-3.8277,-3.8277,-3.8441,-3.9463,-4.0347,-4.069,-4.2106,-4.2822,-4.2144,-4.2799,-4.3048,0.0,0.0,0.0,0.0,0.0,0.0,-4.5033,-4.5362,-4.5607,-4.5815,-4.5949,-4.5994,-4.5997,-4.606,-4.6103,-4.6134,-4.6172,-4.6566,-4.7209,-4.7418,-4.834,-4.9691,-4.9573,-5.0198,-5.122,-5.1144,-5.1017,-5.0918,-5.0978,-5.0951,-5.0908,-0.703,-0.6697,-0.6035,-0.4814,-0.4592,-0.4255,-0.3137,-0.3362,-0.325,-0.2352,-0.1905,-0.1457,-0.1009,-0.0224,0.0112,-0.0336,-0.0784,-0.1232,-0.1569,-0.2465,-0.3025,-0.3025,-0.4255,-0.5369,-0.6146,-0.7038,-0.8146,-0.9251,-0.9251,-0.9691,-1.0574,-1.0907,-1.1345,-1.1891,-1.2219,-1.2441,-1.2441,-1.2441,-1.2654,-1.3088,-1.2654,-1.3403,0.0,-1.5524,-1.6692,-1.8185,-1.893,-1.8819,-1.8492,-1.9465,-1.9561,-1.9324,-2.0269,-2.0783,-2.1089,-2.1285,-2.1887,-2.2685,-2.3085,-2.4426,-2.6325,-2.825,-3.0009,-3.1492,-3.2599,-3.359,-3.4301,0.0,-3.5842,-3.7127,0.0,0.0,-3.8708,-3.8649,-3.8352,-3.8384,-3.8889,-3.9642,-4.0251,-4.0544,-4.1639,-4.2128,-4.1346,-4.253,-4.3085,0.0,0.0,0.0,0.0,0.0,0.0,-4.5304,-4.5507,-4.5703,-4.5905,-4.6007,-4.6036,-4.6026,-4.6103,-4.6134,-4.6169,-4.6576,-4.7034,-4.7548,-4.8263,-4.9118,-4.9963,-5.0169,-5.0607,-5.1139,-5.1102,-5.1005,-5.0906,-5.0898,-5.0902,-5.0906,-0.6475,-0.5813,-0.4814,-0.3811,-0.3475,-0.3137,-0.2128,-0.2801,-0.3025,-0.2016,-0.1233,-0.0673,-0.0561,0.0897,0.1458,0.0673,0.0449,0.0112,-0.0673,-0.1569,-0.2016,-0.2016,-0.3471,-0.4589,-0.5035,-0.5817,-0.6818,-0.8263,-0.8263,-0.8702,-0.9688,-1.0355,-1.0907,-1.1126,-1.1891,-1.2327,-1.2441,-1.2441,-1.298,-1.3846,-1.2871,-1.3186,-1.4572,-1.5518,-1.6897,-1.8387,-1.9109,-1.8366,-1.741,-1.9339,-1.9005,-1.7837,-1.8916,-1.9554,-1.9776,-1.9376,-2.0277,-2.1387,-2.1183,-2.3673,-2.653,-2.7013,-2.9614,-3.2216,-3.2832,-3.3674,-3.4481,-3.5072,-3.6056,-3.7266,0.0,0.0,-3.9002,-3.909,-3.8649,-3.8588,-3.9456,-3.9707,-3.9992,-4.0317,-4.1049,0.0,0.0,0.0,-4.3036,0.0,0.0,0.0,0.0,0.0,0.0,-4.5472,-4.5587,-4.5728,-4.5905,0.0,-4.6098,-4.6098,-4.6161,-4.6191,-4.6228,-4.7092,-4.756,-4.7756,-4.9313,-5.0021,-5.014,-5.086,-5.1128,-5.1069,-5.1062,-5.099,-5.0893,-5.0899,-5.0897,-5.089,-0.4143,-0.4033,-0.381,-0.3587,-0.2913,-0.2129,-0.1233,-0.1905,-0.1904,-0.0224,0.0112,0.0449,0.1234,0.157,0.1683,0.157,0.0897,0.0336,0.0224,-0.0673,-0.1121,-0.1121,-0.2574,-0.3356,-0.3467,-0.481,-0.5929,-0.6707,-0.6707,-0.7371,-0.8706,-0.8923,-0.9695,-1.1126,-1.1236,-1.1782,-1.2441,-1.2441,0.0,-1.2654,-1.2441,-1.211,-1.1878,-1.3249,-1.4522,-1.5589,-1.5234,-1.695,-1.9332,-1.7823,-1.7934,-1.8387,-1.7193,-1.764,-1.8736,-1.9168,-1.948,-2.0086,-2.1785,-2.2767,-2.438,-2.8862,-3.0458,-3.1719,-3.4485,-3.5291,-3.5467,-3.5562,-3.6322,-3.7155,-3.7829,0.0,0.0,-3.9177,-3.8916,-3.8862,-3.9222,-3.9787,-4.0103,-3.9994,-4.1171,-4.1679,-4.0908,-4.185,-4.2273,0.0,0.0,0.0,0.0,0.0,0.0,0.0,-4.5733,0.0,0.0,0.0,-4.6098,-4.6098,-4.6161,-4.619,-4.6223,-4.7108,-4.7885,-4.8612,-4.9526,-5.0325,-5.0987,-5.1023,-5.0995,-5.0929,-5.0932,-5.0919,-5.0904,-5.0887,-5.0829,-5.075,-0.2913,-0.325,-0.3474,-0.2913,-0.2464,-0.1567,0.0448,0.0336,0.0112,0.0336,0.0896,0.1456,0.1903,0.2464,0.2688,0.2688,0.1793,0.1121,0.1121,0.0224,-0.0224,-0.0224,-0.1345,-0.2127,-0.2462,-0.3579,-0.4697,-0.559,-0.604,-0.6818,-0.782,-0.8263,-0.9144,-1.046,-1.0907,-1.1664,-1.2521,0.0,0.0,-1.1869,-1.1332,-1.1109,-1.1428,-1.2059,-1.3014,-1.3965,-1.3741,-1.4809,-1.6417,-1.5447,-1.5146,-1.5281,-1.5281,-1.615,-1.714,-1.7457,-1.7996,-1.8632,-1.9635,-2.1795,-2.4685,-2.8191,-3.0531,-3.2684,-3.5087,-3.571,-3.571,-3.571,-3.6322,-3.7232,-3.8264,-3.9163,0.0,0.0,0.0,-3.9001,-3.9564,-3.9919,-4.0106,-4.0128,-4.0765,-4.1091,-4.0696,-4.1043,-4.1435,-4.1782,-4.2465,0.0,0.0,0.0,0.0,0.0,0.0,0.0,0.0,0.0,0.0,-4.6147,-4.621,-4.6468,-4.6901,-4.7772,-4.8607,-4.9417,-5.0228,-5.0772,-5.1093,-5.099,-5.0941,-5.0899,-5.0899,-5.0883,-5.085,-5.0852,-5.0795,-5.0699,-0.1567,-0.2352,-0.2689,-0.1679,-0.1343,-0.0447,0.19,0.2571,0.2572,0.1567,0.2236,0.2905,0.2905,0.3578,0.3914,0.358,0.2688,0.2018,0.1795,0.1121,0.0673,0.0673,-0.0112,-0.0897,-0.1344,-0.2238,-0.3244,-0.4474,-0.5367,0.0,0.0,-0.8042,-0.8923,-0.9798,0.0,0.0,0.0,0.0,-1.0335,-1.1088,-1.012,-1.0335,-1.1088,-1.1088,-1.1833,-1.2788,-1.2356,-1.2351,-1.2562,-1.2337,-1.214,-1.2276,-1.3239,-1.4652,-1.5743,-1.5636,-1.6717,-1.8003,-1.7989,-2.1148,-2.5015,-2.7283,-3.0283,-3.328,-3.5682,-3.6201,-3.6346,-3.6668,-3.741,-3.8267,-3.9092,-3.9791,0.0,0.0,0.0,0.0,-3.9813,-3.9941,-4.0024,-4.0303,-4.0351,-4.0449,-4.0511,0.0,0.0,0.0,0.0,0.0,-4.4668,0.0,0.0,0.0,0.0,-4.5933,-4.5988,0.0,-4.6198,-4.6171,-4.6427,-4.6879,-4.7546,-4.8581,-4.9356,-4.9946,-5.0791,-5.1093,-5.0981,-5.0921,-5.0877,-5.0846,-5.0846,-5.0829,-5.0776,-5.0778,-5.074,-5.0644,0.0559,-0.0336,-0.0784,0.0447,0.1229,0.19,0.2124,0.3798,0.5025,0.4914,0.5025,0.5137,0.5137,0.5139,0.4804,0.3692,0.3469,0.2911,0.1907,0.1683,0.1683,0.1683,0.0785,0.0224,0.0224,-0.0673,-0.1792,-0.3243,-0.3916,-0.4923,0.0,0.0,0.0,0.0,0.0,0.0,0.0,-0.9908,-0.9904,-0.9904,-0.9798,-0.9904,-1.0014,-1.0014,-1.066,-1.1407,-0.9567,-0.9556,-1.0194,-0.8352,-0.9877,-1.2154,-1.0954,-1.2793,-1.5287,-1.4759,-1.6797,-1.916,-1.9109,-2.0829,-2.3691,-2.7925,-2.9906,-3.213,-3.6858,-3.8001,-3.8399,-3.9872,-4.0915,-4.123,-4.021,-4.1187,-4.1542,0.0,0.0,0.0,0.0,-3.969,-3.985,-4.0003,-4.0252,-4.0559,-4.088,-4.0938,0.0,0.0,-4.2443,0.0,0.0,0.0,0.0,-4.5507,0.0,-4.565,-4.5665,-4.6013,-4.617,-4.6119,-4.6981,-4.7421,-4.7548,-4.9169,-4.9895,-4.9936,-5.0681,-5.0981,-5.0916,-5.0916,-5.0829,-5.072,-5.072,-5.0702,-5.0702,-5.0721,-5.0625,-5.0507,0.279,0.1897,0.1563,0.0,0.0,0.0,0.0,0.5919,0.6702,0.7371,0.6924,0.6369,0.6369,0.6369,0.6258,0.5701,0.5029,0.447,0.4026,0.3914,0.3692,0.2912,0.2575,0.2017,0.1234,0.0336,-0.056,-0.1454,-0.3132,0.0,0.0,0.0,0.0,0.0,0.0,-0.9364,-0.9034,-0.8478,-0.8257,-0.8257,-0.8257,-0.8257,-0.8257,-0.8257,-0.8472,-0.8796,-0.8036,-0.8033,-0.8244,-0.7482,-0.8468,-0.9998,-0.9347,-1.0542,-1.2064,-1.2403,-1.4336,-1.658,-1.7108,-1.9295,-2.2615,-2.7025,-2.8923,-3.1025,-3.5971,-3.7685,-3.8208,-3.8414,-3.9397,-4.0193,-3.999,-4.0544,-4.0842,0.0,0.0,0.0,0.0,-4.0406,-4.0814,-4.1286,-4.1437,-4.1639,-4.205,-4.181,0.0,0.0,0.0,0.0,0.0,0.0,0.0,-4.5539,0.0,-4.592,-4.5955,-4.612,-4.6445,-4.6946,-4.7327,-4.8053,-4.9088,-4.9703,-5.0237,-5.0623,-5.086,-5.0929,-5.0899,-5.0846,-5.0775,-5.0701,-5.0701,-5.0567,-5.0399,-5.0358,-5.0164,-5.0024,0.4797,0.0,0.3789,0.0,0.4908,0.5355,0.6927,0.7376,0.7934,0.8826,0.8156,0.7598,0.7598,0.7598,0.7487,0.7154,0.6366,0.5808,0.5472,0.5361,0.5027,0.4137,0.3804,0.0,0.2353,0.1346,0.0561,-0.0112,-0.2014,0.0,0.0,0.0,0.0,0.0,-0.8149,-0.8039,-0.7817,-0.7376,-0.7154,-0.7154,-0.7154,-0.7376,-0.7598,-0.7598,-0.7598,-0.7598,-0.7598,-0.7376,-0.7154,-0.7154,-0.7598,-0.8152,-0.8152,-0.8913,-1.0006,-1.0241,-1.2502,-1.5074,-1.5411,-1.815,-2.1912,-2.6431,-2.832,-3.0526,-3.5891,-3.7774,-3.8311,-3.815,-3.8994,-3.9803,-3.9984,-4.0387,-4.0598,-4.0221,0.0,0.0,0.0,-4.0772,-4.1237,-4.1778,-4.1864,-4.2062,-4.2663,-4.2393,0.0,0.0,0.0,0.0,0.0,0.0,0.0,0.0,0.0,0.0,0.0,-4.6143,-4.6638,-4.749,-4.7762,-4.8652,-5.0114,-5.0271,-5.0567,-5.097,-5.0822,-5.0718,-5.0663,-5.0663,-5.0567,-5.0446,-5.0527,-5.0342,-5.0024,-4.9974,-4.9933,-4.9967,0.6594,0.6144,0.5697,0.6816,0.7041,0.7041,0.7041,0.8156,0.8937,0.894,0.8937,0.8826,0.8826,0.8826,0.838,0.7154,0.7041,0.6591,0.5472,0.5361,0.5361,0.0,0.0,0.358,0.358,0.2353,0.1346,0.0336,0.0,0.0,-0.3131,0.0,-0.6702,-0.67,-0.7371,-0.7149,-0.6374,-0.6932,-0.7154,-0.7154,-0.7154,-0.7709,-0.8484,-0.8484,-0.8484,-0.8484,-0.8484,-0.7931,-0.7154,-0.7154,-0.7154,-0.7265,-0.7265,-0.8569,-0.9979,-0.8806,-1.2154,-1.5907,-1.486,-1.76,-2.1912,-2.6431,-2.832,-3.0783,-3.7275,-3.8778,-3.9154,-4.0595,-4.1154,-4.1233,-4.0517,-4.124,-4.1521,-4.0239,0.0,0.0,0.0,-4.0566,-4.0776,-4.0977,-4.1024,-4.1411,-4.2521,-4.2594,0.0,0.0,0.0,0.0,0.0,0.0,0.0,-4.5596,-4.568,0.0,-4.5712,-4.6023,-4.664,-4.7517,-4.8381,-4.9256,-5.0114,-5.0782,-5.0956,-5.0701,-5.049,-5.0284,-5.0116,-5.0252,-5.0116,-4.9857,-5.0092,-4.9955,-4.9626,-4.9599,-5.0023,-5.064,0.8045,0.8042,0.7931,0.8269,0.838,0.838,0.838,0.8605,0.894,0.894,0.894,0.894,0.894,0.894,0.8716,0.0,0.838,0.8156,0.0,0.7817,0.7374,0.6591,0.6146,0.5254,0.358,0.3246,0.2464,0.1346,0.0,0.0,0.0,-0.4474,-0.5256,-0.5815,-0.6038,-0.5926,-0.5706,-0.5929,-0.5929,-0.604,-0.6374,-0.6707,-0.7041,-0.7041,-0.7263,-0.7598,-0.7152,-0.7041,-0.7154,-0.7154,-0.7154,-0.7154,-0.7154,-0.759,-0.8247,-0.8481,-1.118,-1.4185,-1.4426,-1.7101,-2.0735,-2.4794,-2.6921,-2.9172,-3.3806,-3.5812,-3.7272,-3.9075,-3.9479,-3.9569,-3.9628,-4.0543,-4.1099,-4.0697,-4.0758,0.0,-4.096,0.0,-4.1692,-4.2162,-4.2465,-4.296,-4.3763,-4.3701,0.0,0.0,0.0,0.0,0.0,0.0,0.0,0.0,-4.587,0.0,-4.6042,-4.6777,-4.7575,-4.84,-4.9279,-5.0061,-5.0712,-5.0888,-5.0828,-5.0568,-5.0446,-5.0294,-5.0092,-5.0111,-4.9987,-4.9784,-4.98,-4.9589,-4.9389,-4.9776,-4.9937,-5.0099,0.8602,0.894,0.894,0.894,0.894,0.894,0.894,0.894,0.894,0.894,0.894,0.894,0.894,0.894,0.0,0.894,0.894,0.894,0.894,0.894,0.8605,0.7823,0.7376,0.6258,0.436,0.3802,0.0,0.1795,0.056,-0.0896,-0.2351,-0.2687,-0.3358,-0.4252,-0.4475,-0.47,-0.5037,-0.526,-0.5371,-0.5483,-0.5817,-0.5929,-0.5929,-0.5929,-0.6151,-0.6485,-0.6151,-0.6151,-0.6485,-0.6485,-0.6707,-0.6821,-0.6821,-0.7043,-0.7265,-0.782,-1.0526,-1.3321,-1.3874,-1.6567,-2.0246,-2.4063,-2.57,-2.7532,-3.1946,-3.4259,-3.5848,-3.7241,-3.7897,-3.8332,-3.8586,-3.9885,-4.0888,-4.0888,-4.0888,-4.0995,-4.1328,0.0,-4.2074,-4.2505,0.0,0.0,0.0,-4.4233,-4.4478,0.0,0.0,0.0,0.0,0.0,0.0,-4.5841,-4.605,0.0,-4.6191,-4.7135,-4.8005,-4.8806,-4.9912,-5.0617,-5.0959,-5.0809,-5.0623,-5.0385,-5.0249,-5.0057,-4.983,-4.9857,-4.9693,-4.948,-4.9774,-4.9721,-4.9477,-5.0173,-5.049,-5.0685,0.8491,0.894,0.894,0.0,0.894,0.0,0.894,0.8937,0.9047,0.9047,0.9047,0.9047,0.9047,0.8937,0.894,0.894,0.0,0.0,0.0,0.894,0.894,0.894,0.7823,0.6705,0.5584,0.4472,0.3246,0.1907,0.1009,0.0449,0.0336,-0.0449,-0.1233,-0.2128,-0.2685,-0.3469,-0.4367,-0.4925,-0.5258,-0.526,-0.5371,-0.5371,-0.5371,-0.5371,-0.5371,-0.5371,-0.5371,-0.5371,-0.5371,-0.5371,-0.5817,-0.6262,-0.6151,-0.6596,-0.7043,-0.7154,-0.9979,-1.2994,-1.3209,-1.6119,-2.0033,-2.377,-2.4584,-2.5919,-3.142,-3.3614,-3.4682,-3.5062,-3.6377,-3.7514,-3.7572,-3.9356,-4.0806,-4.0888,-4.0888,-4.1088,-4.1578,-4.1839,-4.1973,0.0,0.0,0.0,0.0,-4.4373,-4.5046,0.0,0.0,0.0,0.0,0.0,-4.5842,-4.6092,-4.6161,-4.621,-4.6289,-4.7207,-4.8103,-4.8981,-5.0354,-5.0966,-5.0859,-5.0604,-5.0385,-5.0163,-4.9955,-4.9712,-4.9415,-4.9529,-4.9352,-4.9057,-4.9986,-5.0149,-4.9971,-5.0685,-5.1415,-5.2018,0.0,0.0,0.894,0.894,0.894,0.894,0.894,0.9699,1.0237,1.0237,1.0237,1.0237,1.0237,0.9482,0.894,0.894,0.894,0.894,0.894,0.894,0.894,0.894,0.8605,0.7931,0.6705,0.6369,0.5254,0.3135,0.2017,0.1121,0.0449,0.0224,-0.0336,-0.1233,-0.1345,-0.1904,-0.2799,-0.2911,-0.336,-0.4033,-0.448,-0.4704,-0.4704,-0.4704,-0.5037,-0.5371,-0.4925,-0.5037,-0.5371,-0.5371,-0.5483,-0.5483,-0.4812,-0.5146,-0.604,-0.6932,-0.9003,-1.1272,-1.2778,-1.5039,-1.7705,-2.1001,-2.34,-2.5805,-2.9244,-3.0983,-3.1982,-3.2431,-3.4545,-3.6597,-3.7456,-3.8739,-3.9952,-4.0758,-4.0888,-4.0982,-4.1215,-4.1881,-4.2404,0.0,-4.3446,-4.4224,-4.4511,-4.4912,-4.5281,0.0,0.0,0.0,0.0,-4.6001,-4.6117,-4.6178,-4.6092,-4.6397,-4.7117,-4.8009,-4.9142,-5.0559,-5.0906,-5.087,-5.0529,-5.0448,-5.0272,-4.9959,-4.9797,-4.9625,-4.9396,-4.9321,-4.9467,-4.9731,-4.9879,-5.0231,-5.0722,-5.147,-5.1789,-5.1943,0.8716,0.894,0.9047,0.9588,0.9699,0.9915,1.0464,1.1109,1.1324,1.0781,1.0672,1.0457,0.9915,0.9482,0.9051,0.894,0.894,0.9154,0.9699,0.9699,0.9699,0.9699,0.9699,0.8923,0.7152,0.7152,0.6258,0.4472,0.3246,0.2353,0.1904,0.1345,0.0561,-0.0336,-0.0336,-0.0785,-0.1569,-0.1569,-0.2129,-0.3025,-0.336,-0.3696,-0.4033,-0.4033,-0.4257,-0.448,-0.4257,-0.4257,-0.459,-0.459,-0.4814,-0.4925,-0.4367,-0.4812,-0.5594,-0.6485,-0.8235,-1.0077,-1.1485,-1.3965,-1.7003,-2.0247,-2.296,-2.5388,-2.7273,-2.9409,-3.1129,-3.1522,-3.396,-3.6199,-3.6779,-3.8212,-3.9493,-4.0069,-4.058,-4.0965,-4.1226,-4.1931,0.0,-4.2811,-4.373,-4.4465,-4.48,-4.512,-4.5419,-4.5722,-4.5891,0.0,-4.5935,-4.607,-4.6173,-4.6247,-4.612,-4.6488,-4.7396,-4.8536,-4.9757,-5.1004,-5.087,-5.0678,-5.0404,-5.0272,-5.012,-4.9879,-4.9778,-4.9585,-4.9402,-4.9604,-4.9796,-5.0065,-5.0617,-5.1111,-5.1529,-5.2234,-5.2401,-5.237,0.8933,0.9154,0.9588,1.0785,1.1,1.1324,1.2195,1.2526,1.2309,1.1328,1.1214,1.0891,0.9919,0.9702,0.9592,0.9265,0.9158,0.9482,1.0672,1.0672,1.0781,1.1,1.0781,0.9794,0.7703,0.7263,0.6594,0.5695,0.4472,0.3804,0.358,0.2577,0.157,0.0561,0.0561,0.0112,-0.0673,-0.0673,-0.1233,-0.2016,-0.2128,-0.2688,-0.3362,-0.3587,-0.3587,-0.3587,-0.3587,-0.3587,-0.3587,-0.3587,-0.3921,-0.4369,-0.4143,-0.459,-0.526,-0.5817,-0.7238,-0.8982,-0.9972,-1.3076,-1.686,-2.0087,-2.2437,-2.425,-2.5178,-2.7925,-3.0361,-3.0747,-3.3223,-3.5398,-3.5589,-3.7367,-3.8846,-3.9023,-3.9952,-4.0772,-4.1122,0.0,-4.2465,-4.2941,-4.3749,-4.4457,-4.4825,-4.5123,-4.5493,-4.5945,-4.6056,-4.61,-4.6107,-4.6104,-4.6153,-4.624,-4.6242,-4.6722,-4.7726,-4.9077,-5.0148,-5.087,-5.0624,-5.0466,-5.0339,-5.012,-4.9978,-4.9871,-4.9702,-4.9582,-4.9546,-4.9974,-5.0229,-5.0454,-5.1627,-5.2155,-5.2316,-5.2828,-5.2999,-5.2912,1.0131,1.0457,1.0781,1.1978,1.2087,1.22,1.2417,1.329,1.384,1.3727,1.3825,1.3927,1.3712,1.2195,1.1109,1.1109,1.0245,0.9919,1.0672,1.0672,1.1109,1.2087,1.1219,1.0562,1.0123,0.8143,0.7041,0.6816,0.5697,0.4582,0.358,0.3357,0.2688,0.157,0.157,0.1121,0.0224,0.0224,-0.0336,-0.1121,-0.1904,-0.224,-0.2464,-0.325,-0.3587,-0.3587,-0.3587,-0.3587,-0.3587,-0.3587,-0.3699,-0.3586,-0.2799,-0.3137,-0.3921,-0.4254,-0.5142,-0.6579,-0.9428,-1.2966,-1.6471,-1.8966,-2.0458,-2.1496,-2.2185,-2.4651,-2.6852,-2.7094,-2.9846,-3.2597,-3.3758,-3.5374,-3.6839,-3.7703,-3.8793,-3.9596,-3.9631,0.0,-4.2346,-4.2408,-4.355,-4.443,-4.4701,-4.5074,-4.5476,-4.5889,-4.5978,-4.6056,-4.6183,-4.6138,-4.6085,-4.6054,-4.6581,-4.7622,-4.9238,-5.0104,-5.0598,-5.0736,-5.0625,-5.0423,-5.0139,-5.0108,-4.9952,-4.9721,-4.9525,-4.9682,-5.0086,-5.0043,-5.0693,-5.1811,-5.2011,-5.2463,-5.3023,-5.3005,-5.2955,-5.2824,1.0457,1.0672,1.1219,1.3073,1.3398,1.3614,1.4153,1.4917,1.5137,1.4482,1.4691,1.4572,1.3922,1.3161,1.2403,1.1542,1.176,1.1655,1.1232,1.166,1.2413,1.3496,1.2304,1.1,0.9805,0.8595,0.8045,0.8045,0.6927,0.6033,0.5477,0.4139,0.3357,0.2688,0.213,0.157,0.1121,0.1121,0.0673,-0.0224,-0.0672,-0.1344,-0.224,-0.2688,-0.3138,-0.3587,-0.3587,-0.3587,-0.3587,-0.3587,-0.3587,-0.3475,-0.3137,-0.325,-0.3699,-0.4479,-0.6246,-0.8536,-1.0928,-1.3498,-1.6111,-1.8651,-1.945,-1.9996,-2.1374,-2.3477,-2.5341,-2.5975,-2.9031,-3.1784,-3.2401,-3.4449,-3.6137,-3.6658,-3.789,0.0,0.0,-4.0735,-4.1908,-4.2266,-4.3334,-4.421,-4.4669,-4.4919,-4.53,-4.5849,-4.5958,-4.6036,-4.6092,-4.6042,-4.614,-4.6466,-4.727,-4.8169,-4.9162,-4.9944,-5.0195,-4.9936,-5.0049,-4.9987,-4.9759,-4.9712,-4.9674,-4.9682,-4.9471,-4.9528,-4.9806,-5.0281,-5.0794,-5.1284,-5.1996,-5.2245,-5.2214,-5.2389,-5.2185,-5.1697,1.0891,1.1109,1.1869,1.4164,1.46,1.4922,1.5891,1.6217,1.5998,1.5227,1.5334,1.5221,1.4352,1.4239,1.3809,1.262,1.327,1.3383,1.2536,1.3073,1.3825,1.4685,1.3604,1.1873,0.9588,0.9482,0.9375,0.9051,0.8045,0.7485,0.7041,0.5254,0.4249,0.3914,0.28,0.2242,0.2242,0.1907,0.1346,0.0673,0.0449,-0.0448,-0.168,-0.2016,-0.2688,-0.325,-0.3475,-0.3587,-0.3587,-0.3587,-0.3587,-0.3587,-0.3587,-0.3699,-0.4033,-0.5037,-0.8005,-1.122,-1.2875,-1.4327,-1.5831,-1.8236,-1.8808,-1.9247,-2.0962,-2.2436,-2.3815,-2.4809,-2.7731,-3.0147,-3.0607,-3.3057,-3.5155,-3.5552,0.0,0.0,0.0,-4.0129,-4.1402,-4.2009,-4.2996,-4.3905,-4.4599,-4.4776,-4.5135,-4.5847,-4.5947,-4.5994,-4.6027,-4.6132,-4.6593,-4.7447,-4.8169,-4.8721,-4.9101,-4.9695,-4.9765,-4.9283,-4.9502,-4.951,-4.934,-4.9221,-4.9371,-4.9671,-4.9473,-4.9588,-4.9933,-5.0597,-5.0861,-5.0952,-5.179,-5.1813,-5.131,-5.1615,-5.1345,-5.0805,1.2087,1.2309,1.2955,1.5345,1.5785,1.5891,1.6217,1.6324,1.6318,1.6518,1.6849,1.6961,1.6955,1.6193,1.5642,1.5535,1.4674,1.4352,1.512,1.5227,1.512,1.5013,1.4905,1.3706,1.1324,1.1324,1.0676,0.9379,0.9268,0.8488,0.7041,0.693,0.6258,0.525,0.4026,0.3469,0.3357,0.2242,0.1795,0.157,0.0785,0.0336,0.0,-0.1568,-0.224,-0.2464,-0.325,-0.3587,-0.3587,-0.3587,-0.3587,-0.3587,-0.3587,-0.4033,-0.459,-0.526,-0.8979,-1.3326,-1.4753,-1.5224,-1.5693,-1.7115,-1.8172,-1.9063,-2.0051,-2.0404,-2.0836,-2.2013,-2.3951,-2.5902,-2.7668,-3.0319,-3.2736,-3.4288,0.0,0.0,-3.6961,-3.9151,-4.088,-4.1323,-4.2372,-4.3471,-4.4501,-4.4676,-4.5039,-4.5833,-4.591,-4.5964,-4.6096,-4.6731,-4.7754,-4.9163,-4.9221,-4.9482,-4.9997,-4.9949,-4.9683,-4.9283,-4.9259,-4.9132,-4.893,-4.8826,-4.9063,-4.9582,-4.9465,-5.0104,-5.1227,-5.1013,-5.1315,-5.1874,-5.1512,-5.1361,-5.1258,-5.0894,-5.0751,-5.0626,1.3491,1.3927,1.4471,1.5891,1.6318,1.6418,1.6524,1.6743,1.6855,1.6955,1.7272,1.7483,1.7483,1.7153,1.6717,1.5968,1.618,1.5749,1.468,1.5974,1.6193,1.5007,1.5108,1.4454,1.262,1.262,1.1973,1.0676,1.0676,0.9911,0.8488,0.7706,0.7038,0.6369,0.4472,0.358,0.3469,0.2353,0.1795,0.1795,0.1458,0.0897,0.0224,-0.0897,-0.1681,-0.2352,-0.325,-0.3587,-0.3587,-0.3587,-0.3587,-0.3587,-0.3587,-0.4033,-0.514,-0.8639,-1.1359,-1.3752,-1.6397,-1.7165,-1.7218,-1.729,-1.7606,-1.8149,-1.9147,-1.933,-1.9695,-2.0881,-2.3103,-2.5502,-2.7375,-2.9971,-3.2481,-3.4113,0.0,-3.6338,-3.6736,-3.8433,-4.0065,-4.1191,-4.1961,-4.2941,-4.4223,-4.4546,-4.495,-4.5552,-4.5734,-4.6134,-4.6809,-4.806,-4.8966,-4.945,-4.9695,-4.9768,-4.9746,-4.9599,-4.9165,-4.8477,-4.8621,-4.8586,-4.8403,-4.8254,-4.8675,-4.9481,-4.9354,-4.9847,-5.0617,-5.0773,-5.0752,-5.0587,-5.0715,-5.048,-5.0011,-5.009,-4.9896,-4.9462,1.4572,1.49,1.5334,1.6211,1.663,1.673,1.6842,1.7067,1.7279,1.7279,1.7483,1.7582,1.7582,1.7582,1.7259,1.6505,1.7147,1.6935,1.5316,1.6717,1.7047,1.5867,1.5962,1.5417,1.4132,1.4132,1.348,1.2191,1.2191,1.1433,1.0029,0.9137,0.8364,0.7706,0.5588,0.4472,0.4137,0.2912,0.213,0.1795,0.1795,0.1458,0.0673,-0.0449,-0.1233,-0.1905,-0.3138,-0.3587,-0.3587,-0.3587,-0.3587,-0.3587,-0.3587,-0.4585,-0.6455,-1.0264,-1.2656,-1.4624,-1.6921,-1.786,-1.8145,-1.7494,-1.7326,-1.7606,-1.8611,-1.8611,-1.8888,-2.0257,-2.2271,-2.4535,-2.7217,-2.9581,-3.1924,-3.4288,-3.535,-3.6087,-3.6661,-3.7955,-3.9358,-4.0868,-4.1531,-4.2461,-4.3986,-4.4383,-4.4768,-4.5302,-4.58,-4.665,-4.7987,-4.898,-4.9605,-4.976,-4.9877,-4.9728,-4.9326,-4.9215,-4.8742,-4.797,-4.8132,-4.8172,-4.7974,-4.8029,-4.8616,-4.9518,-4.9554,-4.9906,-5.0464,-5.0575,-5.0324,-4.9884,-5.0045,-4.9698,-4.9168,-4.9325,-4.9057,-4.858,1.5013,1.5007,1.5334,1.6518,1.673,1.6842,1.7173,1.7179,1.7279,1.7582,1.7582,1.7582,1.7582,1.7582,1.7582,1.7582,1.7582,1.7582,1.7582,1.7582,1.7582,1.7582,1.7582,1.7047,1.5968,1.5861,1.5209,1.3701,1.3701,1.2945,1.1542,1.1214,1.046,0.9379,0.782,0.648,0.5361,0.4137,0.2912,0.1795,0.1795,0.1795,0.157,-0.0224,-0.0897,-0.1121,-0.2914,-0.3587,-0.3587,-0.3587,-0.3587,-0.3587,-0.3587,-0.5793,-0.853,-0.9191,-1.2548,-1.6163,-1.5896,-1.7083,-1.8145,-1.7494,-1.7333,-1.7598,-1.8519,-1.8257,-1.8265,-2.0232,-2.1025,-2.2669,-2.6943,-2.8725,-3.0734,-3.4551,-3.5608,-3.6117,-3.6646,-3.7621,-3.8842,-4.035,-4.0958,-4.2029,-4.3838,-4.4143,-4.4497,-4.5151,-4.6159,-4.7592,-4.96,-4.9331,-4.948,-5.0259,-4.986,-4.9367,-4.8897,-4.8832,-4.8495,-4.7902,-4.7902,-4.7819,-4.7735,-4.8253,-4.8938,-4.9701,-4.9959,-5.0555,-5.1228,-5.0526,-5.0189,-5.0132,-4.9471,-4.9124,-4.894,-4.861,-4.8356,-4.8163,1.6524,1.673,1.6836,1.706,1.716,1.7371,1.7483,1.7483,1.7483,1.7582,1.7582,1.7582,1.7582,1.7582,1.7582,1.7582,1.7582,1.7582,1.7582,1.7582,1.7582,1.7582,1.7582,1.7477,1.7153,1.7041,1.6505,1.5209,1.5209,1.4454,1.3053,1.2191,1.1328,1.0457,0.8364,0.7149,0.648,0.4472,0.3357,0.3023,0.213,0.1795,0.1683,0.0449,-0.0336,-0.1009,-0.2241,-0.3025,-0.3587,-0.3587,-0.3587,-0.403,-0.6232,-0.7654,-0.9177,-1.2974,-1.514,-1.6491,-1.7592,-1.8296,-1.8489,-1.783,-1.7958,-1.8241,-1.7878,-1.8257,-1.9322,-2.121,-2.2331,-2.4388,-2.8808,-3.0824,-3.2484,-3.4846,-3.5943,-3.6523,-3.6662,-3.7889,-3.9201,-4.035,-4.1253,-4.2445,-4.4055,-4.4952,-4.5707,-4.6275,-4.7917,-4.9107,-4.9588,-4.9913,-5.0138,-5.023,-4.9636,-4.9158,-4.8847,-4.8709,-4.8384,-4.7902,-4.7801,-4.7965,-4.8253,-4.8443,-4.9059,-4.9977,-5.0057,-5.0242,-5.0526,-5.0302,-4.9942,-4.9471,-4.9168,-4.9001,-4.8832,-4.8436,-4.8227,-4.8163,1.7384,1.7483,1.7589,1.7384,1.7483,1.7582,1.7582,1.7582,1.7582,1.7582,1.7582,1.7582,1.7582,1.7582,1.7582,1.7582,1.7582,1.7582,1.7582,1.7582,1.7582,1.7582,1.7582,1.7582,1.7582,1.7582,1.7259,1.6611,1.6611,1.5855,1.4561,1.327,1.2191,1.1214,0.9247,0.7817,0.693,0.514,0.4026,0.3469,0.2242,0.1795,0.1683,0.0785,0.0112,-0.0561,-0.1792,-0.2576,-0.3137,-0.3475,-0.3587,-0.414,-0.7103,-0.8736,-1.0357,-1.4579,-1.6647,-1.7705,-1.8707,-1.8884,-1.8694,-1.8299,-1.8701,-1.9047,-1.8719,-1.933,-2.0631,-2.2793,-2.3914,-2.5891,-3.0219,-3.1802,-3.3031,-3.5109,-3.5991,-3.6662,-3.7499,-3.8388,-3.9513,-4.0979,-4.2101,-4.3316,-4.467,-4.5922,-4.6935,-4.773,-4.8962,-4.9751,-4.9901,-5.0138,-5.0133,-4.9846,-4.9089,-4.8549,-4.8235,-4.7929,-4.7802,-4.792,-4.7511,-4.7733,-4.8569,-4.8247,-4.877,-4.9854,-4.9836,-4.9872,-4.9866,-4.9538,-4.9256,-4.9046,-4.8306,-4.8258,-4.85,-4.7951,-4.7886,-4.7968,1.7582,1.7582,1.7582,1.7582,1.7582,1.7582,1.7582,1.7582,1.7582,1.7582,1.7582,1.7582,1.7582,1.7582,1.7582,1.7582,1.7582,1.7582,1.7582,1.7582,1.7582,1.7582,1.7582,1.7582,1.7582,1.7582,1.7582,1.7582,1.7582,1.7047,1.6074,1.4561,1.3161,1.1647,1.0245,0.8709,0.7263,0.6031,0.4806,0.3692,0.2465,0.1907,0.1683,0.0897,0.0449,0.0224,-0.1344,-0.2016,-0.2352,-0.3362,-0.3699,-0.414,-0.699,-0.9592,-1.2075,-1.4887,-1.7397,-1.9279,-1.9279,-1.906,-1.8825,-1.8999,-1.9396,-1.9862,-2.042,-2.1096,-2.2328,-2.4934,-2.5755,-2.7265,-3.1362,-3.2225,-3.3073,-3.5484,-3.6133,-3.6951,-3.8837,-3.9351,-4.0217,-4.2085,-4.345,-4.4649,-4.5684,-4.7003,-4.8282,-4.9379,-4.9544,-4.9838,-5.0377,-5.0054,-4.9655,-4.9252,-4.8347,-4.7738,-4.7403,-4.6763,-4.6908,-4.7717,-4.7043,-4.738,-4.8569,-4.791,-4.8231,-4.9377,-4.9354,-4.9265,-4.9144,-4.8303,-4.8272,-4.8593,-4.7069,-4.7069,-4.7869,-4.7169,-4.7101,-4.7471,1.7582,1.7582,1.7582,1.7582,1.7582,1.7582,1.7582,1.7582,1.7582,1.7582,1.7582,1.7582,1.7582,1.7582,1.7582,1.7582,1.7582,1.7582,1.7582,1.7582,1.7582,1.7582,1.7582,1.7582,1.7582,1.7582,1.7582,1.7582,1.7582,1.7477,1.7153,1.5968,1.4669,1.3161,1.1651,1.0241,0.8823,0.7374,0.6033,0.4916,0.3692,0.2689,0.1795,0.157,0.1009,0.0336,-0.0,-0.1008,-0.2464,-0.3808,-0.4257,-0.5139,-0.9825,-1.1661,-1.2959,-1.7187,-1.8833,-1.9279,-1.9279,-1.922,-1.9412,-2.0147,-2.044,-2.0614,-2.0438,-2.2053,-2.4446,-2.7158,-2.8597,-3.0368,-3.3296,-3.4485,-3.5195,-3.5834,-3.7789,-3.9434,-3.9889,-4.1919,-4.3535,-4.3996,-4.5312,-4.6441,-4.7042,-4.8543,-4.9821,-5.066,-5.0495,-5.0384,-5.0394,-4.9829,-4.9295,-4.8841,-4.8141,-4.7572,-4.7178,-4.6501,-4.6262,-4.6358,-4.673,-4.7194,-4.777,-4.8173,-4.846,-4.8545,-4.8546,-4.8172,-4.7457,-4.7123,-4.702,-4.6932,-4.6119,-4.5961,-4.6103,-4.5658,-4.5514,-4.5602,1.7582,1.7582,1.7582,1.7582,1.7582,1.7582,1.7582,1.7582,1.7582,1.7582,1.7582,1.7582,1.7582,1.7582,1.7582,1.7582,1.7582,1.7582,1.7582,1.7582,1.7582,1.7582,1.7582,1.7582,1.7582,1.7582,1.7582,1.7582,1.7582,1.7582,1.7582,1.6399,1.5423,1.4454,1.2403,1.1,1.0025,0.8036,0.6705,0.6033,0.436,0.3246,0.2576,0.2019,0.1458,0.1009,0.0561,-0.0672,-0.2352,-0.3469,-0.4142,-0.5252,-0.9508,-1.1567,-1.3071,-1.6759,-1.8506,-1.9279,-1.9279,-1.9376,-1.9642,-2.0069,-2.0522,-2.088,-2.1202,-2.3568,-2.6292,-2.8504,-3.066,-3.2832,-3.5325,-3.6186,-3.6703,-3.7223,-3.8974,-4.0569,-4.1287,-4.3237,-4.4849,-4.5585,-4.6899,-4.8158,-4.9203,-5.0078,-5.0518,-5.0355,-5.0451,-5.0013,-4.8833,-4.8749,-4.8308,-4.7384,-4.6811,-4.6182,-4.5457,-4.5206,-4.484,-4.4257,-4.5618,-4.6683,-4.7449,-4.7038,-4.704,-4.7441,-4.6838,-4.6115,-4.5372,-4.5523,-4.5539,-4.5305,-4.4719,-4.4809,-4.5222,-4.4644,-4.4569,-4.4778,1.7582,1.7582,1.7582,1.7582,1.7582,1.7582,1.7582,1.7786,1.7786,1.7582,1.7786,1.7786,1.7582,1.7582,1.7687,1.7891,1.7687,1.7582,1.7582,1.7582,1.7582,1.7582,1.7582,1.7582,1.7582,1.7582,1.7582,1.7582,1.7582,1.7582,1.7582,1.6611,1.5962,1.5417,1.2945,1.1542,1.0996,0.8475,0.7265,0.693,0.4806,0.3804,0.3469,0.2242,0.1795,0.1683,0.0897,-0.0672,-0.2573,-0.3688,-0.4582,-0.5806,-0.8872,-1.1038,-1.2871,-1.5364,-1.7542,-1.9063,-1.9063,-1.9368,-1.9783,-2.0086,-2.0395,-2.1156,-2.2381,-2.5088,-2.7749,-2.9296,-3.2123,-3.491,-3.6851,-3.7297,-3.7624,-3.8639,-4.0096,-4.151,-4.2771,-4.4377,-4.5865,-4.7099,-4.8314,-4.9639,-5.1093,-5.1131,-5.0616,-4.9476,-4.9829,-4.9135,-4.7075,-4.7405,-4.7108,-4.5856,-4.5286,-4.4579,-4.3556,-4.3542,-4.3135,-4.2307,-4.407,-4.554,-4.6683,-4.5403,-4.5175,-4.5872,-4.4791,-4.3868,-4.3235,-4.3745,-4.3899,-4.3746,-4.3334,-4.3726,-4.4493,-4.3773,-4.3773,-4.4205,1.7582,1.7582,1.7582,1.7582,1.7582,1.7582,1.7582,1.8408,1.861,1.7687,1.8408,1.861,1.7687,1.7582,1.7996,1.8916,1.8101,1.7582,1.7582,1.7582,1.7582,1.7582,1.7582,1.7582,1.7582,1.7582,1.7582,1.7582,1.7582,1.7582,1.7582,1.7477,1.6829,1.5749,1.3911,1.2512,1.1324,0.9475,0.8045,0.7041,0.5697,0.4583,0.3469,0.2242,0.1795,0.1795,0.1683,-0.0335,-0.3454,-0.6682,-0.802,-0.8789,-1.1511,-1.2493,-1.3141,-1.5304,-1.6823,-1.7898,-1.8101,-1.8938,-2.0078,-2.1387,-2.1785,-2.2265,-2.3556,-2.6198,-2.8683,-2.9903,-3.3274,-3.62,-3.702,-3.7541,-3.7983,-3.8688,-4.142,-4.3563,-4.3848,-4.6647,-4.8773,-4.9013,-4.9726,-5.0393,-5.0908,-5.0739,-5.0144,-4.907,-4.8796,-4.8122,-4.6892,-4.6489,-4.6058,-4.5558,-4.4744,-4.39,-4.2922,-4.2069,-4.1751,-4.1782,-4.218,-4.2901,-4.3853,-4.4285,-4.3915,-4.3026,-4.2897,-4.2335,-4.1583,-4.2082,-4.229,-4.2275,-4.2444,-4.2622,-4.2673,-4.217,-4.2467,-4.3076,1.861,1.8624,1.8527,1.7905,1.7799,1.7905,1.8003,1.8206,1.8206,1.7905,1.8101,1.8094,1.7687,1.8094,1.8401,1.8304,1.8401,1.8199,1.7687,1.7582,1.7582,1.7582,1.7582,1.7582,1.7582,1.7582,1.7891,1.8506,1.7891,1.7891,1.8506,1.7891,1.7674,1.7647,1.5411,1.3696,1.2403,1.0781,0.9364,0.8045,0.6813,0.6033,0.5365,0.347,0.28,0.2688,0.2018,0.0448,-0.2011,-0.6584,-0.8605,-0.95,-1.0672,-1.1855,-1.3151,-1.4657,-1.638,-1.8094,-1.9435,-2.0467,-2.1387,-2.2693,-2.3094,-2.3384,-2.3989,-2.7189,-3.0229,-3.0635,-3.37,-3.6804,-3.8381,-3.9177,-3.9874,-4.113,-4.3127,-4.49,-4.5828,-4.789,-4.9442,-4.9861,-5.0352,-5.0699,-5.0732,-5.0147,-4.9278,-4.8097,-4.7758,-4.6904,-4.5284,-4.5337,-4.4605,-4.2709,-4.2752,-4.1837,-3.9854,-4.0232,-4.0206,-3.9715,-4.0148,-4.1366,-4.3257,-4.3109,-4.2592,-4.1874,-4.1056,-4.0218,-3.9536,-4.0159,-4.0159,-3.9812,-4.0958,-4.1604,-4.1814,-4.1702,-4.1987,-4.2487]}]]